[[{"header":{"parameterUnit":"m.s-1","parameterCategory":1,"la1":31.0,"la2":29.5877,"lo1":-88.7671,"lo2":-86.6584,"dy":0.0162,"dx":0.0185,"nx":115,"ny":88,"refTime":"2023-05-14T06:00:00:Z","depth":0,"parameterNumber":2,"parameterNumberName":"U-component_of_WINDS"},"data":[0.0,0.0,0.0,0.0,0.0,0.0,0.0,0.0,0.0,0.0,0.0,0.0,0.0,0.0,0.0,0.0,0.0,0.0,0.0,0.0,0.0,0.0,0.0,0.0,0.0,0.0,0.0,0.0,0.0,0.0,0.0,0.0,0.0,0.0,0.0,0.0,0.0,0.0,0.0,0.0,0.0,0.0,0.0,0.0,0.0,0.0,0.0,0.0,0.0,0.0,0.0,0.0,0.0,0.0,0.0,0.0,0.0,0.0,0.0,0.0,0.0,0.0,0.0,0.0,0.0,0.0,0.0,0.0,0.0,0.0,0.0,0.0,0.0,0.0,0.0,0.0,0.0,0.0,0.0,0.0,0.0,0.0,0.0,0.0,0.0,0.0,0.0,0.0,0.0,0.0,0.0,0.0,0.0,0.0,0.0,0.0,0.0,0.0,0.0,0.0,0.0,0.0,0.0,0.0,0.0,0.0,0.0,0.0,0.0,0.0,0.0,0.0,0.0,0.0,0.0,0.0,0.0,0.0,0.0,0.0,0.0,0.0,0.0,0.0,0.0,0.0,0.0,0.0,0.0,0.0,0.0,0.0,0.0,0.0,0.0,0.0,0.0,0.0,0.0,0.0,0.0,0.0,0.0,0.0,0.0,0.0,0.0,0.0,0.0,0.0,0.0,0.0,0.0,0.0,0.0,0.0,0.0,0.0,0.0,0.0,0.0,0.0,0.0,0.0,0.0,0.0,0.0,0.0,0.0,0.0,0.0,0.0,0.0,0.0,0.0,0.0,0.0,0.0,0.0,0.0,0.0,0.0,0.0,0.0,0.0,0.0,0.0,0.0,0.0,0.0,0.0,0.0,0.0,0.0,0.0,0.0,0.0,0.0,0.0,0.0,0.0,0.0,0.0,0.0,0.0,0.0,0.0,0.0,0.0,0.0,0.0,0.0,0.0,0.0,0.0,0.0,0.0,0.0,0.0,0.0,0.0,0.0,0.0,0.0,0.0,0.0,0.0,0.0,0.0,0.0,0.0,0.0,0.0,0.0,0.0,0.0,0.0,0.0,0.0,0.0,0.0,0.0,0.0,0.0,0.0,0.0,0.0,0.0,0.0,0.0,0.0,0.0,0.0,0.0,0.0,0.0,0.0,0.0,0.0,0.0,0.0,0.0,0.0,0.0,0.0,0.0,0.0,0.0,0.0,0.0,0.0,0.0,0.0,0.0,0.0,0.0,0.0,0.0,0.0,0.0,0.0,0.0,0.0,0.0,0.0,0.0,0.0,0.0,0.0,0.0,0.0,0.0,0.0,0.0,0.0,0.0,0.0,0.0,0.0,0.0,0.0,0.0,0.0,0.0,0.0,0.0,0.0,0.0,0.0,0.0,0.0,0.0,0.0,0.0,0.0,0.0,0.0,0.0,0.0,0.0,0.0,0.0,0.0,0.0,0.0,0.0,0.0,0.0,0.0,0.0,0.0,0.0,0.0,0.0,0.0,0.0,0.0,0.0,0.0,0.0,0.0,0.0,0.0,0.0,0.0,0.0,0.0,0.0,0.0,0.0,0.0,0.0,0.0,0.0,0.0,0.0,0.0,0.0,0.0,0.0,0.0,0.0,0.0,0.0,0.0,0.0,0.0,0.0,0.0,0.0,0.0,0.0,0.0,0.0,0.0,0.0,0.0,0.0,0.0,0.0,0.0,0.0,0.0,0.0,0.0,0.0,0.0,0.0,0.0,0.0,0.0,0.0,0.0,0.0,0.0,0.0,0.0,0.0,0.0,0.0,0.0,0.0,0.0,0.0,0.0,0.0,0.0,0.0,0.0,0.0,0.0,0.0,0.0,0.0,0.0,0.0,0.0,0.0,0.0,0.0,0.0,0.0,0.0,0.0,0.0,0.0,0.0,0.0,0.0,0.0,0.0,0.0,0.0,0.0,0.0,0.0,0.0,0.0,0.0,0.0,0.0,0.0,0.0,0.0,0.0,0.0,0.0,0.0,0.0,0.0,0.0,0.0,0.0,0.0,0.0,0.0,0.0,0.0,0.0,0.0,0.0,0.0,0.0,0.0,0.0,0.0,0.0,0.0,0.0,0.0,0.0,0.0,0.0,0.0,0.0,0.0,0.0,0.0,0.0,0.0,0.0,0.0,0.0,0.0,0.0,0.0,0.0,0.0,0.0,0.0,0.0,0.0,0.0,0.0,0.0,0.0,0.0,0.0,0.0,0.0,0.0,0.0,0.0,0.0,0.0,0.0,0.0,0.0,0.0,0.0,0.0,0.0,0.0,0.0,0.0,0.0,0.0,0.0,0.0,0.0,0.0,0.0,0.0,0.0,0.0,0.0,0.0,0.0,0.0,0.0,0.0,0.0,0.0,0.0,0.0,0.0,0.0,0.0,0.0,0.0,0.0,0.0,0.0,0.0,0.0,0.0,0.0,0.0,0.0,0.0,0.0,0.0,0.0,0.0,0.0,0.0,0.0,0.0,0.0,0.0,0.0,0.0,0.0,0.0,0.0,0.0,0.0,0.0,0.0,0.0,0.0,0.0,0.0,0.0,0.0,0.0,0.0,0.0,0.0,0.0,0.0,0.0,0.0,0.0,0.0,0.0,0.0,0.0,0.0,0.0,0.0,0.0,0.0,0.0,0.0,0.0,0.0,0.0,0.0,0.0,0.0,0.0,0.0,0.0,0.0,0.0,0.0,0.0,0.0,0.0,0.0,0.0,0.0,0.0,0.0,0.0,0.0,0.0,0.0,0.0,0.0,0.0,0.0,0.0,0.0,0.0,0.0,0.0,0.0,0.0,0.0,0.0,0.0,0.0,0.0,0.0,0.0,0.0,0.0,0.0,0.0,0.0,0.0,0.0,0.0,0.0,0.0,0.0,0.0,0.0,0.0,0.0,0.0,0.0,0.0,0.0,0.0,0.0,0.0,0.0,0.0,0.0,0.0,0.0,0.0,0.0,0.0,0.0,0.0,0.0,0.0,0.0,0.0,0.0,0.0,0.0,0.0,0.0,0.0,0.0,0.0,0.0,0.0,0.0,0.0,0.0,0.0,0.0,0.0,0.0,0.0,0.0,0.0,0.0,0.0,0.0,0.0,0.0,0.0,0.0,0.0,0.0,0.0,0.0,0.0,0.0,0.0,0.0,0.0,0.0,0.0,0.0,0.0,0.0,0.0,0.0,0.0,0.0,0.0,0.0,0.0,0.0,0.0,0.0,0.0,0.0,0.0,0.0,0.0,0.0,0.0,0.0,0.0,0.0,0.0,0.0,0.0,0.0,0.0,0.0,0.0,0.0,0.0,0.0,0.0,0.0,0.0,0.0,0.0,0.0,0.0,0.0,0.0,0.0,0.0,0.0,0.0,0.0,0.0,0.0,0.0,0.0,0.0,0.0,0.0,0.0,0.0,0.0,0.0,0.0,0.0,0.0,0.0,0.0,0.0,0.0,0.0,0.0,0.0,0.0,0.0,0.0,0.0,0.0,0.0,0.0,0.0,0.0,0.0,0.0,0.0,0.0,0.0,0.0,0.0,0.0,0.0,0.0,0.0,0.0,0.0,0.0,0.0,0.0,0.0,0.0,0.0,0.0,0.0,0.0,0.0,0.0,0.0,0.0,0.0,0.0,0.0,0.0,0.0,0.0,0.0,0.0,0.0,0.0,0.0,0.0,0.0,0.0,0.0,0.0,0.0,0.0,0.0,0.0,0.0,0.0,0.0,0.0,0.0,0.0,0.0,0.0,0.0,0.0,0.0,0.0,0.0,0.0,0.0,0.0,0.0,0.0,0.0,0.0,0.0,0.0,0.0,0.0,0.0,0.0,0.0,0.0,0.0,0.0,0.0,0.0,0.0,0.0,0.0,0.0,0.0,0.0,0.0,0.0,0.0,0.0,0.0,0.0,0.0,0.0,0.0,0.0,0.0,0.0,0.0,0.0,0.0,0.0,0.0,0.0,0.0,0.0,0.0,0.0,0.0,0.0,0.0,0.0,0.0,0.0,0.0,0.0,0.0,0.0,0.0,0.0,0.0,0.0,0.0,0.0,0.0,0.0,0.0,0.0,0.0,0.0,0.0,0.0,0.0,0.0,0.0,0.0,0.0,0.0,0.0,0.0,0.0,0.0,0.0,0.0,0.0,0.0,0.0,0.0,0.0,0.0,0.0,0.0,0.0,0.0,0.0,0.0,0.0,0.0,0.0,0.0,0.0,0.0,0.0,0.0,0.0,0.0,0.0,0.0,0.0,0.0,0.0,0.0,0.0,0.0,0.0,0.0,0.0,0.0,0.0,0.0,-2.2787,0.0,0.0,0.0,0.0,0.0,0.0,0.0,0.0,0.0,0.0,0.0,0.0,0.0,0.0,0.0,0.0,0.0,0.0,0.0,0.0,0.0,0.0,0.0,0.0,0.0,0.0,0.0,0.0,0.0,0.0,0.0,0.0,0.0,0.0,0.0,0.0,0.0,0.0,0.0,0.0,0.0,0.0,0.0,0.0,0.0,0.0,0.0,0.0,0.0,0.0,0.0,0.0,0.0,0.0,0.0,0.0,0.0,0.0,0.0,0.0,0.0,0.0,0.0,0.0,0.0,0.0,0.0,0.0,0.0,0.0,0.0,0.0,0.0,0.0,0.0,0.0,0.0,0.0,0.0,0.0,0.0,0.0,0.0,0.0,0.0,0.0,0.0,0.0,0.0,0.0,0.0,0.0,0.0,0.0,0.0,0.0,0.0,0.0,0.0,0.0,0.0,0.0,0.0,0.0,0.0,0.0,0.0,0.0,0.0,0.0,-2.4878,-2.4781,-2.4624,-2.4394,-2.4163,0.0,0.0,0.0,0.0,0.0,0.0,0.0,0.0,0.0,0.0,0.0,0.0,0.0,0.0,0.0,0.0,0.0,0.0,0.0,0.0,0.0,0.0,0.0,0.0,0.0,0.0,0.0,0.0,0.0,0.0,0.0,0.0,0.0,0.0,0.0,0.0,0.0,0.0,0.0,0.0,0.0,0.0,0.0,0.0,0.0,0.0,0.0,0.0,0.0,0.0,0.0,0.0,0.0,0.0,0.0,0.0,0.0,0.0,0.0,0.0,0.0,0.0,0.0,0.0,0.0,0.0,0.0,0.0,0.0,0.0,0.0,0.0,0.0,0.0,0.0,0.0,0.0,0.0,0.0,0.0,0.0,0.0,0.0,0.0,0.0,0.0,0.0,0.0,0.0,0.0,0.0,0.0,0.0,0.0,0.0,0.0,0.0,0.0,0.0,0.0,0.0,0.0,0.0,0.0,0.0,0.0,0.0,0.0,0.0,0.0,0.0,0.0,-2.5591,-2.5536,-2.505,0.0,0.0,0.0,0.0,0.0,0.0,0.0,0.0,0.0,0.0,0.0,0.0,0.0,0.0,0.0,0.0,0.0,0.0,0.0,0.0,0.0,0.0,0.0,0.0,0.0,0.0,0.0,0.0,0.0,0.0,0.0,0.0,0.0,0.0,0.0,0.0,0.0,0.0,0.0,0.0,0.0,0.0,0.0,0.0,0.0,0.0,0.0,0.0,0.0,0.0,0.0,0.0,0.0,0.0,0.0,0.0,0.0,0.0,0.0,0.0,0.0,0.0,0.0,0.0,0.0,0.0,0.0,0.0,0.0,0.0,0.0,0.0,0.0,0.0,0.0,0.0,0.0,0.0,0.0,0.0,0.0,0.0,0.0,0.0,0.0,0.0,0.0,0.0,0.0,0.0,0.0,0.0,0.0,0.0,0.0,0.0,0.0,0.0,0.0,0.0,0.0,0.0,0.0,0.0,0.0,0.0,0.0,0.0,0.0,0.0,-2.5839,-2.5839,-2.5481,0.0,-2.4584,0.0,0.0,0.0,0.0,0.0,0.0,0.0,0.0,0.0,0.0,0.0,0.0,0.0,0.0,0.0,0.0,0.0,0.0,0.0,0.0,0.0,0.0,0.0,0.0,0.0,0.0,0.0,0.0,0.0,0.0,0.0,0.0,0.0,0.0,0.0,0.0,0.0,0.0,0.0,0.0,0.0,0.0,0.0,0.0,0.0,0.0,0.0,0.0,0.0,0.0,0.0,0.0,0.0,0.0,0.0,0.0,0.0,0.0,0.0,0.0,0.0,0.0,0.0,0.0,0.0,0.0,0.0,0.0,0.0,0.0,0.0,0.0,0.0,0.0,0.0,0.0,0.0,0.0,0.0,0.0,0.0,0.0,0.0,0.0,0.0,0.0,0.0,0.0,0.0,0.0,0.0,0.0,0.0,0.0,0.0,0.0,0.0,0.0,0.0,0.0,0.0,0.0,0.0,0.0,0.0,0.0,0.0,0.0,0.0,0.0,-2.6204,-2.6447,-2.6272,-2.5879,0.0,0.0,0.0,0.0,0.0,0.0,0.0,0.0,0.0,0.0,0.0,0.0,0.0,0.0,0.0,0.0,0.0,0.0,0.0,0.0,0.0,0.0,0.0,0.0,0.0,0.0,0.0,0.0,0.0,0.0,0.0,0.0,0.0,0.0,0.0,0.0,0.0,0.0,0.0,0.0,0.0,0.0,0.0,0.0,0.0,0.0,0.0,0.0,0.0,0.0,0.0,0.0,0.0,0.0,0.0,0.0,0.0,0.0,0.0,0.0,0.0,0.0,0.0,0.0,0.0,0.0,0.0,0.0,0.0,0.0,0.0,0.0,0.0,0.0,0.0,0.0,0.0,0.0,0.0,0.0,0.0,0.0,0.0,0.0,0.0,0.0,0.0,0.0,0.0,0.0,0.0,0.0,0.0,0.0,0.0,0.0,0.0,0.0,0.0,0.0,0.0,0.0,0.0,0.0,0.0,0.0,0.0,0.0,0.0,0.0,-2.6669,-2.6811,-2.6997,-2.7063,-2.675,-2.6165,0.0,0.0,0.0,0.0,0.0,0.0,0.0,0.0,0.0,0.0,0.0,0.0,0.0,0.0,0.0,0.0,0.0,0.0,0.0,0.0,0.0,0.0,0.0,0.0,0.0,0.0,0.0,0.0,0.0,0.0,0.0,0.0,0.0,0.0,0.0,0.0,0.0,0.0,0.0,0.0,0.0,0.0,0.0,0.0,0.0,0.0,0.0,0.0,0.0,0.0,0.0,0.0,0.0,0.0,0.0,0.0,0.0,0.0,0.0,0.0,0.0,0.0,0.0,0.0,0.0,0.0,0.0,0.0,0.0,0.0,0.0,0.0,0.0,0.0,0.0,0.0,0.0,0.0,0.0,0.0,0.0,0.0,0.0,0.0,0.0,0.0,0.0,0.0,0.0,0.0,0.0,0.0,0.0,0.0,0.0,0.0,0.0,0.0,0.0,0.0,0.0,0.0,0.0,0.0,0.0,0.0,0.0,0.0,-2.6336,-2.7181,-2.7635,-2.7635,-2.7635,-2.7363,0.0,0.0,0.0,0.0,0.0,0.0,0.0,0.0,0.0,0.0,0.0,0.0,0.0,0.0,0.0,0.0,0.0,0.0,0.0,0.0,0.0,0.0,0.0,0.0,0.0,0.0,0.0,0.0,0.0,0.0,0.0,0.0,0.0,0.0,0.0,0.0,0.0,0.0,0.0,0.0,0.0,0.0,0.0,0.0,0.0,0.0,0.0,0.0,0.0,0.0,0.0,0.0,0.0,0.0,0.0,0.0,0.0,0.0,0.0,0.0,0.0,0.0,0.0,0.0,0.0,0.0,0.0,0.0,0.0,0.0,0.0,0.0,0.0,0.0,0.0,0.0,0.0,0.0,0.0,0.0,0.0,0.0,0.0,0.0,0.0,0.0,0.0,0.0,0.0,0.0,0.0,0.0,0.0,0.0,0.0,0.0,0.0,0.0,0.0,0.0,0.0,0.0,0.0,0.0,0.0,0.0,0.0,0.0,0.0,-2.7195,-2.7932,-2.8192,-2.7849,-2.7849,-2.753,0.0,0.0,0.0,0.0,0.0,0.0,0.0,0.0,0.0,0.0,0.0,0.0,0.0,0.0,0.0,0.0,0.0,0.0,0.0,0.0,0.0,0.0,0.0,0.0,0.0,0.0,0.0,0.0,0.0,0.0,0.0,0.0,0.0,0.0,0.0,0.0,0.0,0.0,0.0,0.0,0.0,0.0,0.0,0.0,0.0,0.0,0.0,0.0,0.0,0.0,0.0,0.0,0.0,0.0,0.0,0.0,0.0,0.0,0.0,0.0,0.0,0.0,0.0,0.0,0.0,0.0,0.0,0.0,0.0,0.0,0.0,0.0,0.0,0.0,0.0,0.0,0.0,0.0,0.0,0.0,0.0,0.0,0.0,0.0,0.0,0.0,0.0,0.0,0.0,0.0,0.0,0.0,0.0,0.0,0.0,0.0,0.0,0.0,0.0,0.0,0.0,0.0,0.0,0.0,0.0,0.0,0.0,0.0,0.0,-2.8306,0.0,-2.8717,-2.8271,-2.8255,-2.7845,0.0,0.0,0.0,0.0,0.0,0.0,0.0,0.0,0.0,0.0,0.0,0.0,0.0,0.0,0.0,0.0,0.0,0.0,0.0,0.0,0.0,0.0,0.0,0.0,0.0,0.0,0.0,0.0,0.0,0.0,0.0,0.0,0.0,0.0,0.0,0.0,0.0,0.0,0.0,0.0,0.0,0.0,0.0,0.0,0.0,0.0,0.0,0.0,0.0,0.0,0.0,0.0,0.0,0.0,0.0,0.0,0.0,0.0,0.0,0.0,0.0,0.0,0.0,0.0,0.0,0.0,0.0,0.0,0.0,0.0,0.0,0.0,0.0,0.0,0.0,0.0,0.0,0.0,0.0,0.0,0.0,0.0,0.0,0.0,0.0,0.0,0.0,0.0,0.0,0.0,0.0,0.0,0.0,0.0,0.0,0.0,0.0,0.0,0.0,0.0,0.0,0.0,0.0,0.0,0.0,0.0,0.0,0.0,-2.8465,-2.9524,-2.9585,-2.9361,-2.892,-2.8904,-2.8286,0.0,0.0,0.0,0.0,0.0,0.0,0.0,0.0,0.0,0.0,0.0,0.0,0.0,0.0,0.0,0.0,0.0,0.0,0.0,0.0,0.0,0.0,0.0,0.0,0.0,0.0,0.0,0.0,0.0,0.0,0.0,0.0,0.0,0.0,0.0,0.0,0.0,0.0,0.0,0.0,0.0,0.0,0.0,0.0,0.0,0.0,0.0,0.0,0.0,0.0,0.0,0.0,0.0,0.0,0.0,0.0,0.0,0.0,0.0,0.0,0.0,0.0,0.0,0.0,0.0,0.0,0.0,0.0,0.0,0.0,0.0,0.0,0.0,0.0,0.0,0.0,0.0,0.0,0.0,0.0,0.0,0.0,0.0,0.0,0.0,0.0,0.0,0.0,0.0,0.0,0.0,0.0,0.0,0.0,0.0,0.0,0.0,0.0,0.0,0.0,0.0,0.0,0.0,0.0,0.0,0.0,0.0,0.0,0.0,-2.9585,-2.9995,-3.0027,-2.9544,-2.9212,-2.8669,0.0,0.0,0.0,0.0,0.0,0.0,0.0,0.0,0.0,0.0,0.0,0.0,0.0,0.0,0.0,0.0,0.0,0.0,0.0,0.0,0.0,0.0,0.0,0.0,0.0,0.0,0.0,0.0,0.0,0.0,0.0,0.0,0.0,0.0,0.0,0.0,0.0,0.0,0.0,0.0,0.0,0.0,0.0,0.0,0.0,0.0,0.0,0.0,0.0,0.0,0.0,0.0,0.0,0.0,0.0,0.0,0.0,0.0,0.0,0.0,0.0,0.0,0.0,0.0,0.0,0.0,0.0,0.0,0.0,0.0,0.0,0.0,0.0,0.0,0.0,0.0,0.0,0.0,0.0,0.0,0.0,0.0,0.0,0.0,0.0,0.0,0.0,0.0,0.0,0.0,0.0,0.0,0.0,0.0,0.0,0.0,0.0,0.0,0.0,0.0,0.0,0.0,0.0,0.0,0.0,0.0,0.0,0.0,0.0,-3.0462,-3.078,-3.0738,-3.0303,-2.9974,-2.9373,-2.8415,0.0,0.0,0.0,0.0,0.0,0.0,0.0,0.0,0.0,0.0,0.0,0.0,0.0,0.0,0.0,0.0,0.0,0.0,0.0,0.0,0.0,0.0,0.0,0.0,0.0,0.0,0.0,0.0,0.0,0.0,0.0,0.0,0.0,0.0,0.0,0.0,0.0,0.0,0.0,0.0,0.0,0.0,0.0,0.0,0.0,0.0,0.0,0.0,0.0,0.0,0.0,0.0,0.0,0.0,0.0,0.0,0.0,0.0,0.0,0.0,0.0,0.0,0.0,0.0,0.0,0.0,0.0,0.0,0.0,0.0,0.0,0.0,0.0,0.0,0.0,0.0,0.0,0.0,0.0,0.0,0.0,0.0,0.0,0.0,0.0,0.0,0.0,0.0,0.0,0.0,0.0,0.0,0.0,0.0,0.0,0.0,0.0,0.0,0.0,0.0,0.0,0.0,0.0,0.0,0.0,0.0,0.0,0.0,-3.1857,-3.1907,-3.1719,-3.1214,-3.112,-3.0464,0.0,0.0,0.0,0.0,0.0,0.0,0.0,0.0,0.0,0.0,0.0,0.0,0.0,0.0,0.0,0.0,0.0,0.0,0.0,0.0,0.0,0.0,0.0,0.0,0.0,0.0,0.0,0.0,0.0,0.0,0.0,0.0,0.0,0.0,0.0,0.0,0.0,0.0,0.0,0.0,0.0,0.0,0.0,0.0,0.0,0.0,0.0,0.0,0.0,0.0,0.0,0.0,0.0,0.0,0.0,0.0,0.0,0.0,0.0,0.0,0.0,0.0,0.0,0.0,0.0,0.0,0.0,0.0,0.0,0.0,0.0,0.0,0.0,0.0,0.0,0.0,0.0,0.0,0.0,0.0,0.0,0.0,0.0,0.0,0.0,0.0,0.0,0.0,0.0,0.0,0.0,0.0,0.0,0.0,0.0,0.0,0.0,0.0,0.0,0.0,0.0,0.0,0.0,0.0,0.0,0.0,0.0,0.0,0.0,-3.2934,-3.3463,-3.3289,-3.2459,-3.1577,-3.0871,0.0,0.0,0.0,0.0,0.0,0.0,0.0,0.0,0.0,0.0,0.0,0.0,0.0,0.0,0.0,0.0,0.0,0.0,0.0,0.0,0.0,0.0,0.0,0.0,0.0,0.0,0.0,0.0,0.0,0.0,0.0,0.0,0.0,0.0,0.0,0.0,0.0,0.0,0.0,0.0,0.0,0.0,0.0,0.0,0.0,0.0,0.0,0.0,0.0,0.0,0.0,0.0,0.0,0.0,0.0,0.0,0.0,0.0,0.0,0.0,0.0,0.0,0.0,0.0,0.0,0.0,0.0,0.0,0.0,0.0,0.0,0.0,0.0,0.0,0.0,0.0,0.0,0.0,0.0,0.0,0.0,0.0,0.0,0.0,0.0,0.0,0.0,0.0,0.0,0.0,0.0,0.0,0.0,0.0,0.0,0.0,0.0,0.0,0.0,0.0,0.0,0.0,0.0,0.0,0.0,0.0,0.0,0.0,-3.2748,-3.3339,-3.4341,-3.4544,-3.3913,-3.2658,-3.1698,0.0,0.0,0.0,0.0,0.0,0.0,0.0,0.0,0.0,0.0,0.0,0.0,0.0,0.0,0.0,0.0,0.0,0.0,0.0,0.0,0.0,0.0,0.0,0.0,0.0,0.0,0.0,0.0,0.0,0.0,0.0,0.0,0.0,0.0,0.0,0.0,0.0,0.0,0.0,0.0,0.0,0.0,0.0,0.0,0.0,0.0,0.0,0.0,0.0,0.0,0.0,0.0,0.0,0.0,0.0,0.0,0.0,0.0,0.0,0.0,0.0,0.0,0.0,0.0,0.0,0.0,0.0,0.0,0.0,0.0,0.0,0.0,0.0,0.0,0.0,0.0,0.0,0.0,0.0,0.0,0.0,0.0,0.0,0.0,0.0,0.0,0.0,0.0,0.0,0.0,0.0,0.0,0.0,0.0,0.0,0.0,0.0,0.0,0.0,0.0,0.0,0.0,0.0,0.0,0.0,0.0,0.0,0.0,-3.3235,-3.3405,-3.4768,-3.5446,-3.5287,-3.3896,-3.266,0.0,0.0,0.0,0.0,0.0,0.0,0.0,0.0,0.0,0.0,0.0,0.0,0.0,0.0,0.0,0.0,0.0,0.0,0.0,0.0,0.0,0.0,0.0,0.0,0.0,0.0,0.0,0.0,0.0,0.0,0.0,0.0,0.0,0.0,0.0,0.0,0.0,0.0,0.0,0.0,0.0,0.0,0.0,0.0,0.0,0.0,0.0,0.0,0.0,0.0,0.0,0.0,0.0,0.0,0.0,0.0,0.0,0.0,0.0,0.0,0.0,0.0,0.0,0.0,0.0,0.0,0.0,0.0,0.0,0.0,0.0,0.0,0.0,0.0,0.0,0.0,0.0,0.0,0.0,0.0,0.0,0.0,0.0,0.0,0.0,0.0,0.0,0.0,0.0,0.0,0.0,0.0,0.0,0.0,0.0,0.0,0.0,0.0,0.0,0.0,0.0,0.0,0.0,0.0,0.0,0.0,0.0,0.0,-3.3651,-3.4226,-3.5121,-3.5549,-3.5446,-3.394,-3.2894,0.0,0.0,0.0,0.0,0.0,0.0,0.0,0.0,0.0,0.0,0.0,0.0,0.0,0.0,0.0,0.0,0.0,0.0,0.0,0.0,0.0,0.0,0.0,0.0,0.0,0.0,0.0,0.0,0.0,0.0,0.0,0.0,0.0,0.0,0.0,0.0,0.0,0.0,0.0,0.0,0.0,0.0,0.0,0.0,0.0,0.0,0.0,0.0,-3.0126,0.0,0.0,0.0,0.0,0.0,0.0,0.0,0.0,0.0,0.0,0.0,0.0,0.0,0.0,0.0,0.0,0.0,0.0,0.0,0.0,0.0,0.0,0.0,0.0,0.0,0.0,0.0,0.0,0.0,0.0,0.0,0.0,0.0,0.0,0.0,0.0,0.0,0.0,0.0,0.0,0.0,0.0,0.0,0.0,0.0,0.0,0.0,0.0,0.0,0.0,0.0,0.0,0.0,0.0,0.0,0.0,0.0,0.0,0.0,-3.3744,-3.4489,-3.5233,-3.5549,-3.535,-3.4231,-3.3372,0.0,0.0,0.0,0.0,0.0,0.0,0.0,0.0,0.0,0.0,0.0,0.0,0.0,0.0,0.0,0.0,0.0,0.0,0.0,0.0,0.0,0.0,0.0,0.0,0.0,0.0,0.0,0.0,0.0,0.0,0.0,0.0,0.0,0.0,0.0,0.0,0.0,0.0,0.0,0.0,0.0,0.0,0.0,0.0,0.0,0.0,0.0,0.0,0.0,0.0,0.0,0.0,0.0,0.0,0.0,0.0,0.0,0.0,0.0,0.0,0.0,0.0,0.0,0.0,0.0,0.0,0.0,0.0,0.0,0.0,0.0,0.0,0.0,0.0,0.0,0.0,0.0,0.0,0.0,0.0,0.0,0.0,0.0,0.0,0.0,0.0,0.0,0.0,0.0,0.0,0.0,0.0,0.0,0.0,0.0,0.0,0.0,0.0,0.0,0.0,0.0,0.0,0.0,0.0,0.0,0.0,0.0,-3.3085,-3.3812,-3.4641,-3.5284,-3.5487,-3.5321,-3.4616,-3.3773,-3.2802,0.0,0.0,0.0,0.0,0.0,0.0,0.0,0.0,0.0,0.0,0.0,0.0,0.0,0.0,0.0,0.0,0.0,0.0,0.0,0.0,0.0,0.0,0.0,0.0,0.0,0.0,0.0,0.0,0.0,0.0,0.0,0.0,0.0,0.0,0.0,0.0,0.0,0.0,-3.3082,-3.2488,0.0,0.0,0.0,0.0,0.0,0.0,0.0,0.0,-3.1046,0.0,0.0,0.0,0.0,0.0,0.0,0.0,0.0,0.0,0.0,0.0,0.0,0.0,0.0,0.0,0.0,0.0,0.0,0.0,0.0,0.0,0.0,0.0,0.0,0.0,0.0,0.0,0.0,0.0,0.0,0.0,0.0,0.0,0.0,0.0,0.0,0.0,0.0,0.0,0.0,0.0,0.0,0.0,0.0,0.0,0.0,0.0,0.0,0.0,0.0,0.0,0.0,0.0,0.0,0.0,0.0,-3.3203,-3.3355,-3.4066,-3.5385,-3.5554,-3.5549,-3.5429,-3.4662,-3.3594,-3.2351,0.0,0.0,0.0,0.0,0.0,0.0,0.0,0.0,0.0,0.0,0.0,0.0,0.0,0.0,0.0,0.0,0.0,0.0,0.0,0.0,0.0,0.0,0.0,0.0,0.0,0.0,0.0,0.0,0.0,0.0,0.0,0.0,0.0,0.0,0.0,0.0,0.0,0.0,0.0,-3.2422,-3.1823,0.0,0.0,0.0,0.0,0.0,0.0,0.0,0.0,-3.0494,0.0,0.0,0.0,0.0,0.0,0.0,0.0,0.0,0.0,0.0,0.0,0.0,0.0,0.0,0.0,0.0,0.0,0.0,0.0,0.0,0.0,0.0,0.0,0.0,0.0,0.0,0.0,0.0,0.0,0.0,0.0,0.0,0.0,0.0,0.0,0.0,0.0,0.0,0.0,0.0,0.0,0.0,0.0,0.0,0.0,0.0,0.0,0.0,0.0,0.0,0.0,0.0,0.0,0.0,0.0,-3.3355,-3.3778,-3.4506,-3.5571,-3.5639,-3.5549,-3.5367,-3.4339,-3.3116,0.0,0.0,0.0,0.0,0.0,0.0,0.0,0.0,0.0,0.0,0.0,0.0,0.0,0.0,0.0,0.0,0.0,0.0,0.0,0.0,0.0,0.0,0.0,0.0,0.0,0.0,0.0,0.0,0.0,0.0,0.0,0.0,0.0,0.0,0.0,0.0,0.0,0.0,0.0,0.0,-3.2711,-3.2462,-3.2763,0.0,0.0,0.0,0.0,0.0,0.0,-3.1356,-3.0819,0.0,0.0,0.0,0.0,0.0,0.0,0.0,0.0,0.0,0.0,0.0,0.0,0.0,0.0,0.0,0.0,0.0,0.0,0.0,0.0,0.0,0.0,0.0,0.0,0.0,0.0,0.0,0.0,0.0,0.0,0.0,0.0,0.0,0.0,0.0,0.0,0.0,0.0,0.0,0.0,0.0,0.0,0.0,0.0,0.0,0.0,0.0,0.0,0.0,0.0,0.0,0.0,0.0,0.0,0.0,-3.3406,-3.4117,-3.4844,-3.5588,-3.5639,-3.5503,-3.5274,-3.3942,-3.2592,0.0,0.0,0.0,0.0,0.0,0.0,0.0,0.0,0.0,0.0,0.0,0.0,0.0,0.0,0.0,0.0,0.0,0.0,0.0,0.0,0.0,0.0,0.0,0.0,0.0,0.0,0.0,0.0,0.0,0.0,0.0,0.0,0.0,0.0,0.0,0.0,0.0,0.0,0.0,0.0,0.0,-3.308,-3.3575,-3.3025,0.0,0.0,0.0,0.0,-3.2044,-3.1775,0.0,0.0,0.0,0.0,0.0,0.0,0.0,0.0,0.0,0.0,0.0,0.0,0.0,0.0,0.0,0.0,0.0,0.0,0.0,0.0,0.0,0.0,0.0,0.0,0.0,0.0,0.0,0.0,0.0,0.0,0.0,0.0,0.0,0.0,0.0,0.0,0.0,0.0,0.0,0.0,0.0,0.0,0.0,0.0,0.0,0.0,0.0,0.0,0.0,0.0,0.0,0.0,0.0,0.0,0.0,0.0,-3.3406,-3.4117,-3.4844,-3.5588,-3.5622,-3.5487,-3.5274,-3.3479,-3.2136,0.0,0.0,0.0,0.0,0.0,0.0,0.0,0.0,0.0,0.0,0.0,0.0,0.0,0.0,0.0,0.0,0.0,0.0,0.0,0.0,0.0,0.0,0.0,0.0,0.0,0.0,0.0,0.0,0.0,0.0,0.0,0.0,0.0,0.0,0.0,0.0,0.0,0.0,0.0,0.0,0.0,-3.3083,-3.4364,-3.3905,-3.3651,0.0,0.0,-3.3057,-3.3987,-3.2932,0.0,0.0,0.0,0.0,0.0,0.0,0.0,0.0,0.0,0.0,0.0,0.0,0.0,0.0,0.0,0.0,0.0,0.0,0.0,0.0,0.0,0.0,0.0,0.0,0.0,0.0,0.0,0.0,0.0,0.0,0.0,0.0,0.0,0.0,0.0,0.0,0.0,0.0,0.0,0.0,0.0,0.0,0.0,0.0,0.0,0.0,0.0,0.0,0.0,0.0,0.0,0.0,0.0,0.0,0.0,-3.3068,-3.344,-3.4539,-3.5284,-3.556,-3.5532,-3.5321,-3.4802,-3.2882,-3.1454,0.0,0.0,0.0,0.0,0.0,0.0,0.0,0.0,0.0,0.0,0.0,0.0,0.0,0.0,0.0,0.0,0.0,0.0,0.0,0.0,0.0,0.0,0.0,0.0,0.0,0.0,0.0,0.0,0.0,0.0,0.0,0.0,0.0,0.0,0.0,0.0,0.0,0.0,0.0,0.0,0.0,0.0,-3.4755,-3.4883,0.0,0.0,0.0,-3.4428,-3.4355,0.0,0.0,0.0,0.0,0.0,0.0,0.0,0.0,0.0,0.0,0.0,0.0,0.0,0.0,0.0,0.0,0.0,0.0,0.0,0.0,0.0,0.0,0.0,0.0,0.0,0.0,0.0,0.0,0.0,0.0,0.0,0.0,0.0,0.0,0.0,0.0,0.0,0.0,0.0,0.0,0.0,0.0,0.0,0.0,0.0,0.0,0.0,0.0,0.0,0.0,0.0,0.0,0.0,0.0,0.0,0.0,0.0,-3.3423,-3.4675,-3.5245,-3.5155,-3.4897,-3.4496,-3.3942,-3.2142,0.0,0.0,0.0,0.0,0.0,0.0,0.0,0.0,0.0,0.0,0.0,0.0,0.0,0.0,0.0,0.0,0.0,0.0,0.0,0.0,0.0,0.0,0.0,0.0,0.0,0.0,0.0,-2.931,0.0,0.0,0.0,0.0,0.0,0.0,0.0,0.0,0.0,0.0,0.0,0.0,0.0,0.0,-3.5153,-3.548,-3.5968,-3.6358,0.0,0.0,-3.5875,-3.5375,-3.4899,-3.3875,0.0,0.0,0.0,0.0,0.0,0.0,0.0,0.0,0.0,0.0,0.0,0.0,0.0,0.0,0.0,0.0,0.0,0.0,0.0,0.0,0.0,0.0,0.0,0.0,0.0,0.0,0.0,0.0,0.0,0.0,0.0,0.0,0.0,0.0,0.0,0.0,0.0,0.0,0.0,0.0,0.0,0.0,0.0,0.0,0.0,0.0,0.0,0.0,0.0,0.0,0.0,0.0,0.0,0.0,-3.3389,-3.3423,-3.4167,-3.4381,-3.3927,-3.3143,-3.2698,-3.2721,-3.1357,-3.051,0.0,0.0,0.0,0.0,0.0,0.0,0.0,0.0,0.0,0.0,0.0,0.0,0.0,0.0,0.0,0.0,0.0,0.0,0.0,0.0,0.0,0.0,0.0,0.0,0.0,0.0,0.0,0.0,0.0,0.0,0.0,0.0,0.0,0.0,0.0,0.0,0.0,0.0,0.0,0.0,0.0,-3.5673,-3.6955,-3.7062,-3.7405,0.0,0.0,-3.7089,-3.8133,-3.7036,-3.5351,-3.3291,0.0,0.0,0.0,0.0,0.0,0.0,0.0,0.0,0.0,0.0,0.0,0.0,0.0,0.0,0.0,0.0,0.0,0.0,0.0,0.0,0.0,0.0,0.0,0.0,0.0,0.0,0.0,0.0,0.0,0.0,0.0,0.0,0.0,0.0,0.0,0.0,0.0,0.0,0.0,0.0,0.0,0.0,0.0,0.0,0.0,0.0,0.0,0.0,0.0,0.0,0.0,0.0,0.0,-3.2493,-3.207,-3.2933,-3.324,-3.2999,-3.2308,-3.1758,-3.1373,-3.0313,-2.9516,0.0,0.0,0.0,0.0,0.0,0.0,0.0,0.0,0.0,0.0,0.0,0.0,0.0,0.0,0.0,0.0,0.0,0.0,0.0,0.0,0.0,0.0,0.0,0.0,0.0,0.0,0.0,0.0,-3.1606,-3.2034,-3.2283,0.0,0.0,0.0,0.0,0.0,0.0,0.0,0.0,0.0,0.0,-3.6379,-3.7796,-3.8334,0.0,0.0,-3.8408,-3.799,-3.728,-3.6953,-3.5771,-3.301,-3.1839,0.0,0.0,0.0,0.0,0.0,0.0,0.0,0.0,0.0,0.0,0.0,0.0,0.0,0.0,0.0,0.0,0.0,0.0,0.0,0.0,0.0,0.0,0.0,0.0,0.0,0.0,0.0,0.0,0.0,0.0,0.0,0.0,0.0,0.0,0.0,0.0,0.0,0.0,0.0,0.0,0.0,0.0,0.0,0.0,0.0,0.0,0.0,0.0,0.0,0.0,0.0,0.0,-3.1861,-3.1032,-3.1891,-3.2166,-3.1759,-3.1068,-3.0494,-3.0048,-2.9327,-2.8755,0.0,0.0,0.0,0.0,0.0,0.0,0.0,0.0,0.0,0.0,0.0,0.0,0.0,0.0,0.0,0.0,0.0,0.0,0.0,0.0,0.0,0.0,0.0,0.0,0.0,0.0,0.0,0.0,-3.1537,-3.2089,-3.2283,0.0,0.0,0.0,0.0,0.0,0.0,0.0,0.0,0.0,0.0,-3.73,-3.8259,-3.8797,-3.8995,-3.8588,-3.8489,-3.8072,-3.6815,-3.6754,-3.5985,-3.347,0.0,0.0,0.0,0.0,0.0,0.0,0.0,0.0,0.0,0.0,0.0,0.0,0.0,0.0,0.0,0.0,0.0,0.0,0.0,0.0,0.0,0.0,0.0,0.0,0.0,0.0,0.0,0.0,0.0,0.0,-3.119,0.0,0.0,0.0,0.0,0.0,0.0,0.0,0.0,0.0,0.0,0.0,0.0,0.0,0.0,0.0,0.0,0.0,0.0,0.0,0.0,0.0,0.0,-3.1648,-3.0518,-3.1189,-3.1087,-3.0101,-2.9218,-2.8817,-2.8807,-2.8577,-2.8367,-2.8178,0.0,0.0,0.0,0.0,0.0,0.0,0.0,0.0,0.0,0.0,0.0,0.0,0.0,0.0,0.0,0.0,0.0,0.0,0.0,0.0,0.0,0.0,0.0,0.0,0.0,0.0,-3.0491,-3.1566,-3.2266,0.0,0.0,0.0,0.0,0.0,0.0,0.0,0.0,0.0,0.0,-3.6999,-3.8362,-3.838,-3.8322,-3.8418,-3.8985,-3.7877,-3.7034,-3.7233,-3.6687,-3.593,0.0,0.0,0.0,0.0,0.0,0.0,0.0,0.0,0.0,0.0,0.0,0.0,0.0,0.0,0.0,0.0,0.0,0.0,0.0,0.0,0.0,0.0,0.0,0.0,0.0,0.0,0.0,-3.1918,-3.1918,0.0,0.0,0.0,0.0,0.0,0.0,0.0,0.0,0.0,0.0,0.0,-3.3017,-3.3034,0.0,0.0,0.0,0.0,0.0,0.0,0.0,0.0,0.0,0.0,0.0,0.0,-2.9959,-2.9112,-2.9534,-2.9607,-2.9124,-2.8458,-2.8065,-2.8006,-2.7765,-2.7506,-2.7258,0.0,0.0,0.0,0.0,0.0,0.0,0.0,0.0,0.0,0.0,0.0,0.0,0.0,0.0,0.0,0.0,0.0,0.0,0.0,0.0,0.0,0.0,0.0,0.0,0.0,-2.9862,0.0,0.0,0.0,0.0,0.0,0.0,0.0,0.0,0.0,0.0,0.0,-3.4966,-3.5307,-3.5949,-3.6578,-3.7053,-3.7087,-3.7302,0.0,0.0,0.0,0.0,0.0,0.0,0.0,0.0,0.0,0.0,0.0,0.0,0.0,0.0,-3.0643,-2.9319,-2.9443,-2.975,-2.9735,0.0,0.0,0.0,0.0,0.0,0.0,0.0,0.0,0.0,0.0,0.0,0.0,0.0,0.0,-3.251,0.0,-3.256,0.0,0.0,0.0,0.0,0.0,0.0,0.0,0.0,-3.3203,-3.3558,-3.3778,-3.3778,-3.3778,0.0,-3.3525,-3.2899,0.0,0.0,0.0,0.0,0.0,0.0,0.0,0.0,-2.8852,-2.7851,-2.8513,-2.8716,-2.8367,-2.8024,-2.774,-2.7524,-2.7299,-2.7143,-2.7099,-2.7302,-2.7418,0.0,0.0,0.0,0.0,0.0,0.0,0.0,0.0,0.0,0.0,0.0,0.0,0.0,0.0,0.0,0.0,0.0,0.0,0.0,0.0,0.0,0.0,0.0,-3.0243,0.0,0.0,0.0,0.0,0.0,0.0,0.0,0.0,0.0,-3.2734,-3.3651,-3.4516,-3.5268,-3.5804,-3.6092,-3.6067,0.0,0.0,0.0,0.0,0.0,0.0,0.0,-3.4516,-3.3552,-3.338,-3.3302,-3.3131,-3.2721,-3.2398,-3.2398,0.0,0.0,-3.0735,-3.0797,-3.112,-3.1105,-3.0936,-3.0766,-3.0766,-3.0582,-3.0376,0.0,0.0,0.0,0.0,0.0,0.0,0.0,0.0,-3.344,-3.3051,0.0,-3.3136,0.0,0.0,0.0,0.0,0.0,-3.3034,0.0,0.0,-3.4878,-3.5199,-3.4556,-3.4523,-3.4523,-3.4472,-3.3829,-3.3465,-3.3432,-3.3398,0.0,0.0,0.0,0.0,0.0,0.0,-2.8493,-2.6985,-2.8168,-2.8542,-2.784,-2.7806,-2.769,-2.7386,-2.7159,-2.7229,-2.7636,-2.7142,-2.7389,-2.855,-2.7505,0.0,0.0,0.0,0.0,0.0,0.0,0.0,0.0,0.0,0.0,0.0,0.0,0.0,0.0,0.0,0.0,0.0,0.0,0.0,0.0,-3.0085,0.0,0.0,0.0,0.0,0.0,0.0,0.0,0.0,0.0,0.0,-3.2746,-3.3736,-3.4644,-3.5266,0.0,0.0,0.0,0.0,-3.5711,-3.4478,-3.4218,-3.425,-3.4233,-3.4217,-3.4455,-3.5133,0.0,0.0,-3.4599,-3.3413,-3.2613,-3.2552,-3.3152,-3.329,-3.2675,-3.2505,-3.2459,-3.2444,-3.1982,-3.1536,-3.1459,-3.1144,-3.0646,-3.519,0.0,0.0,0.0,0.0,-3.3209,-3.3491,-3.4184,-3.4184,-3.4066,-3.3863,-3.4083,0.0,0.0,0.0,0.0,0.0,0.0,-3.3677,-3.4184,-3.4641,-3.4979,-3.5301,-3.5301,-3.5301,-3.5284,-3.5081,-3.4802,-3.4372,-3.3918,-3.2856,-3.1207,0.0,0.0,0.0,0.0,-2.7517,-2.7556,-2.7904,-2.8024,-2.779,-2.7725,-2.7539,-2.7284,-2.7093,-2.7039,-2.7041,-2.7316,-2.7621,-2.7984,-2.81,0.0,0.0,0.0,0.0,0.0,0.0,0.0,0.0,0.0,0.0,0.0,0.0,0.0,0.0,0.0,0.0,0.0,0.0,0.0,-2.9261,-3.003,-3.038,0.0,0.0,0.0,0.0,0.0,0.0,0.0,0.0,0.0,-3.3415,-3.4159,-3.4543,0.0,0.0,-3.4402,-3.3986,-3.4137,-3.4257,-3.4382,-3.4397,0.0,0.0,-3.4727,-3.4503,-3.4705,-3.5149,-3.5414,-3.523,-3.526,-3.5322,-3.5306,-3.5476,-3.5537,-3.5322,-3.4506,-3.3937,-3.3917,-3.3721,-3.3583,-3.3567,-3.3054,-3.2538,-3.6445,-3.5153,-3.4323,-3.4054,-3.4165,-3.3914,-3.4252,-3.4928,-3.4928,-3.4776,-3.4523,-3.481,-3.437,-3.3389,-3.3389,0.0,0.0,0.0,-3.4235,-3.4945,-3.4928,-3.5182,-3.5605,-3.5639,-3.547,-3.527,-3.527,-3.5021,-3.4464,-3.3416,-3.2274,-3.0933,0.0,0.0,-2.7705,-2.7316,-2.7237,-2.7381,-2.7674,-2.779,-2.7725,-2.7539,-2.7321,-2.7144,-2.6989,-2.6899,-2.6794,-2.7142,-2.7461,-2.7668,-2.81,-2.8245,0.0,0.0,0.0,0.0,0.0,0.0,0.0,0.0,0.0,0.0,0.0,-2.8188,-2.8008,0.0,0.0,0.0,-2.9401,-2.9556,-2.9761,-3.0072,0.0,0.0,0.0,0.0,0.0,0.0,0.0,-3.1951,-3.0871,-3.099,-3.3512,-3.4691,-3.5176,-3.4856,-3.4501,-3.4148,-3.3866,0.0,-3.4291,-3.446,-3.446,-3.4614,-3.5014,-3.4968,-3.4968,-3.523,-3.5599,-3.5876,-3.5891,-3.623,-3.6492,-3.6492,-3.6492,-3.6492,-3.6492,-3.56,-3.4881,-3.4866,-3.4653,-3.4485,-3.447,-3.3681,-3.2995,-3.7796,-3.6308,-3.4794,-3.4301,-3.4573,-3.4573,-3.4979,-3.5622,-3.5622,-3.5233,-3.4641,-3.5318,-3.4861,-3.3609,-3.3575,0.0,-3.4573,-3.459,-3.4945,-3.5622,-3.5639,-3.556,-3.5515,-3.5515,-3.527,-3.4738,-3.4721,-3.4464,-3.3855,-3.2304,-3.1182,-3.0446,-2.9723,-2.8522,-2.6882,-2.7252,-2.7241,-2.6811,-2.7399,-2.7665,-2.7575,-2.7335,-2.7144,-2.7003,-2.6846,-2.6794,-2.6794,-2.6794,-2.7084,-2.7625,-2.7737,-2.8013,-2.8608,0.0,0.0,0.0,0.0,0.0,0.0,0.0,0.0,0.0,0.0,0.0,0.0,0.0,0.0,0.0,-3.0046,0.0,-3.0452,-3.0292,0.0,0.0,0.0,-3.1098,-3.1694,-3.2053,-3.219,-3.219,0.0,0.0,-3.3315,-3.5256,-3.6247,-3.5629,-3.546,-3.5228,-3.4654,-3.5058,-3.5245,-3.466,-3.4629,-3.4704,-3.4845,-3.523,-3.5737,-3.6261,-3.6492,-3.6461,-3.6445,-3.6476,-3.6492,-3.6492,-3.6492,-3.6492,-3.6414,-3.5819,-3.532,-3.513,-3.4763,-3.4375,-3.439,-3.3466,-3.2527,-3.8033,-3.7522,-3.5874,-3.5287,-3.5351,-3.5351,-3.5453,-3.5622,-3.5639,-3.552,-3.5368,-3.5493,-3.5419,-3.5081,-3.5081,-3.5199,-3.5351,-3.5368,-3.5436,-3.5622,-3.5639,-3.5379,-3.4975,-3.4975,-3.4721,-3.4235,-3.4169,-3.3885,-3.3187,-3.1808,-3.055,-2.9385,-2.8117,-2.7196,-2.6673,-2.6352,-2.644,-2.6796,-2.6849,-2.7081,-2.7423,-2.7196,-2.7055,-2.7003,-2.6846,-2.6794,-2.6794,-2.6794,-2.707,-2.7694,-2.7737,-2.8028,-2.8623,-2.8071,0.0,0.0,0.0,0.0,0.0,0.0,0.0,0.0,0.0,-2.8248,-2.7859,0.0,-2.8704,0.0,-3.0198,-3.1006,-3.1166,-3.1102,0.0,0.0,-3.1,-3.1317,-3.1488,-3.2455,-3.3073,-3.3089,-3.3356,-3.3916,-3.4891,-3.5885,-3.6442,-3.6261,-3.5368,-3.4864,-3.5106,-3.5369,-3.543,-3.5322,-3.5645,-3.5999,-3.5968,-3.6138,-3.6292,-3.6476,-3.6492,-3.6492,-3.6492,-3.6492,-3.6492,-3.6492,-3.6492,-3.6274,-3.5737,-3.5464,-3.4927,-3.4041,-3.4047,-3.442,-3.4714,-3.4018,-3.305,-3.8262,-3.7206,-3.6285,-3.58,-3.5639,-3.5639,-3.5639,-3.5639,-3.5639,-3.5639,-3.5639,-3.5639,-3.5639,-3.5639,-3.5639,-3.5639,-3.5639,-3.5639,-3.5639,-3.5639,-3.5639,-3.5316,-3.4816,-3.4816,-3.4366,-3.3665,-3.3578,-3.3266,-3.2579,-3.1464,-3.037,-2.9312,-2.8197,-2.7285,-2.6596,-2.5983,-2.5903,-2.6249,-2.6452,-2.6783,-2.7255,-2.7093,-2.6805,-2.6476,-2.641,-2.6199,-2.5937,-2.5821,-2.6124,-2.6823,-2.6746,-2.718,-2.8187,-2.765,-2.7432,0.0,0.0,0.0,0.0,0.0,0.0,0.0,0.0,0.0,0.0,0.0,-2.9147,-2.9342,-3.0533,-3.1167,-3.0982,-3.1213,-3.1366,-3.1305,-3.189,-3.2413,-3.2721,-3.369,-3.4321,-3.4337,-3.4937,-3.5522,-3.5891,-3.626,-3.6507,-3.6476,-3.5845,-3.5533,-3.5798,-3.5933,-3.5922,-3.5968,-3.6245,-3.6492,-3.6492,-3.6492,-3.6492,-3.6492,-3.6492,-3.6492,-3.6492,-3.6226,-3.6022,-3.6006,-3.5737,-3.54,-3.4978,-3.4647,-3.4037,-3.3235,-3.282,-3.3208,-3.4124,-3.3604,-3.2765,-3.8368,-3.6456,-3.6293,-3.5958,-3.5577,-3.5577,-3.5577,-3.5639,-3.5639,-3.5639,-3.556,-3.5577,-3.5577,-3.556,-3.5577,-3.5577,-3.556,-3.5577,-3.5577,-3.556,-3.5515,-3.5178,-3.4673,-3.456,-3.4003,-3.3039,-3.2949,-3.2594,-3.1982,-3.1122,-3.0262,-2.9524,-2.8704,-2.7709,-2.6497,-2.5899,-2.5553,-2.5568,-2.6079,-2.6539,-2.7034,-2.6836,-2.6374,-2.5691,-2.5662,-2.54,-2.4814,-2.4667,-2.4969,-2.5749,-2.556,-2.6193,-2.7683,-2.7258,-2.7229,0.0,-2.7374,0.0,0.0,0.0,0.0,0.0,0.0,0.0,0.0,-2.9633,-2.9771,-3.0114,-3.0899,-3.1228,-3.0828,-3.1305,-3.1921,-3.2598,-3.326,-3.3921,-3.4596,-3.5199,-3.5599,-3.5614,-3.6122,-3.6476,-3.6322,-3.6322,-3.6214,-3.6153,-3.6061,-3.6014,-3.6307,-3.6368,-3.6445,-3.6492,-3.6492,-3.6492,-3.6492,-3.6492,-3.6492,-3.6492,-3.6367,-3.6367,-3.6289,-3.5737,-3.527,-3.5175,-3.4692,-3.4153,-3.4047,-3.3348,-3.2709,-3.2123,-3.1474,-3.1443,-3.2665,-3.2417,-3.1792,-3.7689,-3.718,-3.6171,-3.5622,-3.5537,-3.5537,-3.5566,-3.5622,-3.5639,-3.5639,-3.5577,-3.5549,-3.5566,-3.5577,-3.5566,-3.5566,-3.556,-3.5566,-3.5566,-3.5577,-3.5052,-3.4496,-3.4003,-3.3443,-3.2841,-3.2247,-3.2206,-3.1805,-3.1036,-3.0332,-2.9343,-2.8,-2.734,-2.6523,-2.5667,0.0,0.0,0.0,-2.5855,-2.6103,-2.6205,-2.5573,-2.5139,-2.4974,-2.4959,0.0,-2.48,-2.4814,-2.5119,-2.5734,-2.5727,0.0,0.0,0.0,0.0,0.0,0.0,0.0,0.0,0.0,0.0,0.0,-2.9228,-2.9282,-2.9564,-2.9702,-3.0036,-3.0752,-3.1067,-3.1689,-3.2736,-3.2936,-3.3306,-3.4014,-3.4675,-3.5153,-3.5306,-3.5876,-3.6307,-3.6307,-3.6415,-3.6276,-3.5753,-3.5217,-3.4926,-3.4983,-3.4876,-3.5091,-3.5599,-3.6091,-3.6461,-3.6492,-3.6384,-3.6461,-3.6492,-3.643,-3.6229,-3.6429,-3.5943,-3.5642,-3.5469,-3.4934,-3.4418,-3.424,-3.3825,-3.3145,-3.2455,-3.179,-3.1198,-3.0471,-3.025,-3.0317,-3.1006,-3.0483,-2.9651,-3.7128,0.0,-3.5836,-3.552,0.0,-3.5446,-3.5429,-3.5475,-3.5458,-3.5441,-3.5458,-3.5429,-3.5429,-3.5458,-3.5429,-3.5429,-3.5458,-3.5429,-3.5446,-3.5412,-3.5085,-3.4512,-3.3684,-3.3339,-3.2803,-3.1981,-3.1607,-3.1203,-3.0769,-2.9726,-2.8847,-2.8068,-2.736,-2.6817,-2.6391,-2.6258,-2.6046,-2.5804,-2.5918,-2.617,-2.6477,-2.6017,-2.5647,-2.5328,0.0,0.0,0.0,0.0,0.0,0.0,0.0,0.0,0.0,0.0,0.0,-2.9073,-2.8855,-2.8882,-2.923,-2.9331,-2.9633,-3.0169,-3.0312,-3.0276,-3.0073,-3.0468,-3.0981,-3.1354,-3.1591,-3.2099,-3.3077,-3.3533,-3.4081,-3.4756,-3.5431,-3.583,-3.5845,-3.583,-3.5845,-3.583,-3.5845,-3.5613,-3.5045,-3.4497,-3.4314,-3.446,-3.446,-3.445,-3.4592,-3.5079,-3.5491,-3.5491,-3.5217,-3.5018,-3.4971,-3.463,-3.4505,-3.4442,-3.4174,-3.3918,-3.3967,-3.3398,-3.2868,-3.2624,-3.21,-3.1445,-3.1034,-3.0582,-3.0242,-2.9602,-2.9384,-2.9209,-2.9294,-2.9211,-2.8913,-3.6522,-3.5577,-3.5537,-3.5492,-3.5429,-3.5291,-3.5245,-3.5245,0.0,0.0,0.0,-3.5291,-3.5291,-3.5308,-3.5291,-3.5291,-3.5308,-3.5245,-3.5291,-3.5291,-3.5152,-3.4545,-3.3598,-3.3459,-3.2895,-3.1894,-3.1147,-3.0684,-3.0548,-2.9229,-2.848,-2.833,-2.7705,-2.735,-2.7299,-2.7107,-2.674,-2.6314,-2.6103,-2.6221,-2.6747,-2.6556,-2.617,-2.5633,-2.5618,-2.5207,-2.4455,-2.4455,-2.504,-2.6212,-2.548,-2.6221,-2.8624,-2.7996,-2.7996,-2.8956,-2.9,-2.9247,-2.9755,-2.9915,-3.0338,-3.0984,-3.1307,-3.1243,-3.0731,-3.1324,-3.1727,-3.1799,-3.1996,-3.2368,-3.2938,-3.3572,-3.4225,-3.4897,-3.5461,-3.5766,-3.5813,-3.56,-3.5294,-3.5049,-3.4758,-3.4539,-3.4248,-3.3676,-3.3495,-3.3796,-3.3676,-3.3605,-3.3186,-3.3593,-3.4136,-3.4091,-3.3757,-3.3376,-3.3193,-3.2849,-3.2333,-3.2576,-3.2341,-3.2076,-3.2091,-3.1664,-3.1149,-3.1031,-3.0351,-2.9872,-2.9651,-2.9518,-2.9358,-2.8824,-2.8596,-2.8328,-2.7987,-2.8318,-2.8503,-3.574,-3.552,-3.5475,-3.5354,-3.5135,-3.5152,-3.5041,-3.4947,-3.5088,-3.5198,-3.5291,-3.5198,-3.5198,-3.5291,-3.5198,-3.5198,-3.5291,-3.5198,-3.5198,0.0,-3.4658,-3.402,-3.3391,-3.2841,-3.2231,-3.1537,-3.0893,-3.0293,-2.9738,-2.8845,-2.8152,-2.7594,-2.7328,-2.7181,-2.7055,-2.6899,-2.6788,-2.6686,-2.6134,-2.5872,-2.5974,-2.5386,-2.5067,-2.493,-2.4959,-2.4774,-2.444,-2.444,-2.4997,-2.6197,-2.5903,-2.6833,-2.9276,-2.9029,-2.9272,-3.0248,-3.0366,-3.0409,-3.0422,-3.0497,-3.06,-3.0807,-3.1117,-3.1349,-3.1347,-3.148,-3.1597,-3.1799,-3.1841,-3.217,-3.2907,-3.3089,-3.3497,-3.4106,-3.4273,-3.4334,-3.441,-3.5216,-3.5322,-3.4243,-3.3336,-3.2959,-3.3117,-3.2257,-3.1664,-3.1824,-3.1649,-3.101,-3.1078,-3.19,-3.2654,-3.2601,-3.2538,-3.2382,-3.211,-3.2147,-3.1804,-3.2097,-3.1378,-3.0992,-3.0992,-3.0499,-3.0078,-2.9827,-2.9358,-2.89,-2.871,-2.8153,-2.8024,-2.7853,-2.7799,-2.7641,-2.7603,-2.7734,-2.7747,-3.5594,-3.54,-3.5308,-3.5198,-3.5105,-3.5041,-3.4947,-3.4899,-3.4947,-3.4994,-3.5088,-3.4994,-3.5041,-3.5088,-3.4994,-3.4994,-3.5088,-3.4994,-3.5024,-3.5058,-3.4723,-3.3941,-3.2815,-3.2437,-3.1643,-3.0503,-2.9804,-2.9325,-2.9011,-2.8278,-2.7683,-2.7416,-2.7196,-2.7041,-2.6899,-2.6832,-2.6794,-2.6779,-2.6474,-2.6344,-2.6329,-2.6039,-2.5777,-2.5595,-2.5595,-2.5506,-2.5246,-2.518,-2.5604,-2.6564,-2.675,-2.7598,-2.9231,-2.9543,-2.9903,-3.0553,-3.0642,-3.0642,-3.0642,-3.0687,-3.0747,-3.0821,-3.1117,-3.1336,-3.1394,-3.1482,-3.1539,-3.1655,-3.1742,-3.204,-3.2673,-3.2792,-3.3123,-3.3804,-3.388,-3.388,-3.3895,-3.4137,-3.4001,-3.293,-3.1823,-3.126,-3.1427,-3.0908,-3.0507,-3.0629,-3.0119,-2.969,-2.9552,-2.9841,-3.0389,-3.0993,-3.108,-3.0856,-3.0581,-3.004,-2.9859,-2.9859,-2.9531,-2.928,-2.9347,-2.9067,-2.8892,-2.8662,-2.8369,-2.8157,-2.7996,-2.7719,-2.7496,-2.7469,-2.7469,-2.7469,-2.7469,-2.7469,-2.7469,-3.552,-3.5245,-3.5135,-3.5105,-3.5041,-3.4947,-3.4899,-3.4899,-3.4899,-3.4899,-3.4899,-3.4899,-3.4899,-3.4899,-3.4899,-3.4899,-3.4899,-3.4899,-3.4899,-3.4883,-3.4622,-3.3665,-3.2273,-3.1911,-3.0948,-2.9574,-2.8853,-2.8487,-2.8412,-2.7728,-2.7299,-2.7248,-2.7041,-2.6884,-2.6794,-2.6794,-2.6794,-2.6794,-2.6794,-2.6794,-2.6794,-2.6794,-2.6659,-2.6351,-2.6283,-2.6136,-2.5839,-2.5798,-2.6078,-2.6665,-2.7097,-2.7804,-2.8897,-2.948,-2.9943,-3.0305,-3.0375,-3.0326,-3.0176,-3.0387,-3.0447,-3.0297,-3.0851,-3.1102,-3.097,-3.1102,-3.1351,-3.1482,-3.1655,-3.188,-3.2227,-3.2317,-3.2675,-3.3201,-3.3261,-3.3111,-3.3036,-3.2885,-3.2418,-3.1326,-3.024,-2.9638,-2.986,-2.9827,-2.9718,-2.9532,-2.9079,-2.8762,-2.8712,-2.83,-2.8546,-2.9233,-2.9533,-2.9329,-2.8958,-2.8419,-2.8066,-2.7934,-2.7908,-2.7961,-2.8027,-2.7987,-2.7961,-2.7815,-2.7775,-2.7709,-2.7549,-2.7469,-2.7469,-2.7469,-2.7469,-2.7417,-2.7235,-2.7209,-2.7326,-3.5245,-3.5135,-3.5088,-3.5041,-3.4947,-3.4899,-3.4899,-3.4899,-3.4899,-3.4899,-3.4899,-3.4899,-3.4899,-3.4899,-3.4899,-3.4899,-3.4899,-3.4899,-3.4899,-3.4769,-3.3761,-3.2885,-3.2108,-3.0996,-3.0061,-2.9381,-2.8625,-2.8246,-2.8231,-2.7453,-2.6989,-2.6884,-2.6846,-2.6846,-2.6794,-2.6794,-2.6794,-2.6794,-2.6794,-2.6794,-2.6794,-2.6794,-2.6659,-2.6297,-2.6283,-2.6042,-2.5592,-2.555,-2.5813,-2.6339,-2.6233,-2.6768,-2.8081,-2.8632,-2.9106,-2.9623,-2.9693,-2.9407,-2.8826,-2.9359,-2.9421,-2.8876,-3.004,-3.0568,-3.0054,-3.0237,-3.0762,-3.1234,-3.1482,-3.1453,-3.1556,-3.1586,-3.1603,-3.1663,-3.1722,-3.1471,-3.107,-3.1291,-3.1139,-2.9817,-2.8685,-2.8229,-2.9378,-2.9317,-2.8889,-2.8495,-2.8235,-2.8026,-2.8026,-2.7908,-2.7842,-2.8091,-2.8092,-2.8027,-2.7842,-2.7656,-2.7603,-2.7603,-2.7536,-2.7603,-2.7603,-2.7603,-2.7523,-2.7603,-2.7523,-2.7523,-2.7523,-2.7456,-2.7417,-2.7326,-2.73,-2.7248,-2.67,-2.6531,-2.6674,-3.5211,-3.4977,-3.4994,-3.4947,-3.4899,-3.4899,-3.4899,-3.4899,-3.4899,-3.4899,-3.4899,-3.4899,-3.4899,-3.4899,-3.4899,-3.4899,-3.4899,-3.4899,-3.4675,-3.4252,-3.3696,-3.279,-3.1464,-3.0899,-3.0165,-2.9233,-2.8503,-2.8125,-2.8036,-2.7363,-2.6951,-2.6794,-2.6794,-2.6794,-2.6794,-2.6794,-2.6712,-2.6525,-2.6539,-2.6433,-2.6286,-2.6418,-2.6365,-2.6096,-2.5893,-2.5853,-2.5702,-2.5425,-2.5423,-2.5854,-2.5799,-2.6027,-2.6682,-2.7083,-2.7611,-2.826,-2.8733,-2.8826,-2.8505,-2.8748,-2.8826,-2.8505,-2.9156,-2.9484,-2.9233,-2.9498,-2.987,-3.0115,-3.0269,-3.0329,-3.0329,-3.0329,-3.0343,-3.0329,-3.0329,-3.0194,-2.9964,-3.014,-2.9912,-2.9008,-2.8069,-2.7704,-2.8244,-2.8274,-2.8026,-2.7802,-2.7656,-2.7656,-2.7656,-2.7656,-2.7656,-2.7656,-2.7669,-2.7669,-2.7656,-2.759,-2.7523,-2.7456,-2.7469,-2.7469,-2.7484,-2.7456,-2.7523,-2.743,-2.7378,-2.7391,-2.7536,-2.721,-2.7013,-2.6987,-2.6544,-2.6246,-2.5794,-2.5769,-2.5897,-3.5195,-3.4899,-3.4787,-3.4804,-3.4787,-3.4691,-3.4691,-3.4707,-3.4691,-3.4691,-3.4707,-3.4691,-3.4691,-3.4691,-3.4756,-3.4739,-3.4707,-3.4691,-3.4431,-3.3853,-3.3473,-3.2458,-3.1136,-3.0543,-2.9913,-2.9098,-2.8546,-2.8155,-2.7964,-2.7515,-2.7074,-2.6808,-2.6794,-2.6794,-2.6794,-2.6727,-2.6539,-2.6336,-2.6244,-2.6056,-2.5839,-2.6002,-2.6002,-2.5798,-2.5592,-2.5536,-2.5619,-2.523,-2.5131,-2.5327,-2.5354,-2.5441,-2.5643,-2.5875,-2.6382,-2.7063,-2.7608,-2.7943,-2.7973,-2.8117,-2.8117,-2.7986,-2.839,-2.8661,-2.8532,-2.8725,-2.8867,-2.8917,-2.8839,-2.8939,-2.9504,-2.9518,-2.9518,-2.9518,-2.9518,-2.9456,-2.9296,-2.9334,-2.9224,-2.8341,-2.7802,-2.7469,-2.7536,-2.7523,-2.7536,-2.7536,-2.7536,-2.7469,-2.7469,-2.7536,-2.7536,-2.7456,-2.7313,-2.7327,-2.7591,-2.759,-2.7497,-2.7301,-2.7249,-2.7183,-2.7131,-2.7053,-2.704,-2.6739,-2.6909,-2.6961,-2.6713,-2.6518,-2.6361,-2.6219,-2.5845,-2.5369,-2.5089,-2.5013,-2.4924,-3.5195,-3.4883,-3.4643,-3.4513,-3.448,-3.4218,-3.4151,-3.4201,-3.4134,-3.4151,-3.4151,-3.4151,-3.4151,-3.4151,-3.4399,-3.4399,-3.4201,-3.4201,-3.4101,-3.3818,-3.251,-3.1678,-3.1427,-2.9824,-2.9034,-2.9066,-2.8822,-2.8402,-2.7795,-2.7708,-2.7374,-2.6837,-2.6837,-2.6808,-2.6727,-2.6472,-2.6283,-2.6244,-2.6042,-2.5798,-2.5536,-2.555,-2.555,-2.5481,-2.5494,-2.5369,-2.5131,-2.5005,-2.5005,-2.5005,-2.4633,-2.4704,-2.5367,-2.5194,-2.5432,-2.6245,-2.6479,-2.6581,-2.6722,-2.7217,-2.7284,-2.6905,-2.7736,-2.8233,-2.7683,-2.7762,-2.7908,-2.7908,-2.7523,-2.7894,-2.9079,-2.9192,-2.9254,-2.9317,-2.9393,-2.9079,-2.861,-2.8985,-2.8779,-2.7921,-2.7523,-2.7469,-2.7469,-2.7469,-2.7469,-2.7469,-2.7469,-2.7469,-2.7469,-2.7469,-2.7456,-2.7287,-2.7013,-2.6674,-2.7287,-2.7157,-2.7,-2.6909,-2.6674,-2.6582,-2.6177,-2.589,-2.5879,-2.5918,-2.6061,-2.6011,-2.5792,-2.5625,-2.551,-2.5382,-2.5255,-2.4873,-2.4353,-2.424,-2.4151,-3.491,-3.4187,-3.3968,-3.3857,-3.3761,-3.3567,-3.3713,-3.4084,-3.4101,-3.4101,-3.4101,-3.4101,-3.4,-3.3848,-3.3949,-3.405,-3.4101,-3.4101,-3.3713,-3.2971,-3.2307,-3.1652,-3.0919,-3.0265,-3.0003,-2.99,-2.9464,-2.8956,-2.8405,-2.8347,-2.7888,-2.7259,-2.7104,-2.6863,-2.6304,-2.6096,-2.5934,-2.5798,-2.5702,-2.5481,-2.5188,-2.5188,-2.5075,-2.4778,-2.5018,-2.5244,-2.5313,-2.5131,-2.4878,-2.4593,-2.4105,-2.3826,-2.3844,-2.3946,-2.4167,-2.4608,-2.5393,-2.5873,-2.598,-2.6511,-2.6782,-2.6589,-2.6918,-2.7149,-2.6985,-2.6985,-2.7121,-2.7053,-2.7079,-2.7403,-2.763,-2.7894,-2.7881,-2.7881,-2.7894,-2.7894,-2.7789,-2.804,-2.8014,-2.7629,-2.7469,-2.7469,-2.7469,-2.7469,-2.7469,-2.7469,-2.7469,-2.7456,-2.7456,-2.7456,-2.7326,-2.6895,-2.6596,-2.6311,-2.6013,-2.6052,-2.5999,-2.6063,-2.6048,-2.5946,-2.5686,-2.5431,-2.5407,-2.5405,-2.5392,-2.5303,-2.5202,-2.4921,-2.4782,-2.4374,-2.4274,-2.4164,-2.3599,-2.3662,-2.3487,-3.3981,-3.3277,-3.3239,-3.3225,-3.3193,-3.3193,-3.3414,-3.3832,-3.3848,-3.3864,-3.3848,-3.3848,-3.3745,-3.3591,-3.3539,-3.3642,-3.3848,-3.3797,-3.3282,-3.2446,-3.2241,-3.1694,-3.0925,-3.0702,-3.0642,-3.051,-3.0147,-2.9551,-2.8929,-2.8814,-2.8354,-2.7513,-2.7414,-2.7031,-2.6301,-2.6078,-2.5855,-2.555,-2.5369,-2.5188,-2.5005,-2.5005,-2.4892,-2.4593,-2.4708,-2.4778,-2.4905,-2.465,-2.4408,-2.406,-2.3649,-2.3185,-2.2763,-2.3084,-2.3304,-2.3538,-2.4347,-2.5128,-2.5519,-2.5975,-2.6319,-2.6508,-2.6521,-2.6521,-2.6533,-2.6602,-2.6645,-2.6658,-2.6739,-2.6888,-2.6807,-2.6875,-2.6875,-2.6956,-2.7024,-2.7079,-2.7214,-2.7387,-2.7455,-2.7377,-2.7377,-2.739,-2.7335,-2.7323,-2.7323,-2.7335,-2.7323,-2.7297,-2.7102,-2.7037,-2.696,-2.6375,-2.5922,-2.5625,-2.5266,-2.506,-2.5135,-2.5273,-2.5275,-2.5275,-2.511,-2.4934,-2.4846,-2.4807,-2.4782,-2.4707,-2.4579,-2.4287,-2.3908,-2.3419,-2.347,-2.3548,-2.3299,-2.3175,-2.315,-3.2308,-3.2156,-3.2482,-3.2705,-3.2768,-3.3057,-3.3282,-3.3346,-3.3346,-3.3398,-3.3398,-3.3361,-3.3346,-3.3293,-3.3346,-3.3346,-3.3346,-3.3346,-3.2996,-3.2477,-3.2089,-3.1652,-3.1161,-3.0762,-3.0642,-3.0642,-3.0553,-3.01,-2.9228,-2.9126,-2.8663,-2.7874,-2.7717,-2.7395,-2.6764,-2.6452,-2.6018,-2.5589,-2.5297,-2.5059,-2.5005,-2.5005,-2.4948,-2.4821,-2.4478,-2.406,-2.3636,-2.3636,-2.3695,-2.3577,-2.3198,-2.2665,-2.2371,-2.2665,-2.2985,-2.314,-2.345,-2.4159,-2.5174,-2.5482,-2.5837,-2.6239,-2.6402,-2.6445,-2.6508,-2.6521,-2.6521,-2.6521,-2.6533,-2.6521,-2.6533,-2.6521,-2.6671,-2.6943,-2.6943,-2.6943,-2.7024,-2.7253,-2.7374,-2.7136,-2.7136,-2.7121,-2.6998,-2.6973,-2.6947,-2.6976,-2.6963,-2.6783,-2.6334,-2.6284,-2.6207,-2.5921,-2.5418,-2.4919,-2.4571,-2.4262,-2.4339,-2.4464,-2.4506,-2.4471,-2.4253,-2.4029,-2.4019,-2.3933,-2.3959,-2.3946,-2.3898,-2.3634,-2.3523,-2.3198,-2.3138,-2.3138,-2.3138,-2.3125,-2.3125,-3.2073,-3.2012,-3.1983,-3.2206,-3.2572,-3.2657,-3.285,-3.3277,-3.3293,-3.3293,-3.3293,-3.3293,-3.3293,-3.3293,-3.3293,-3.3293,-3.324,-3.2942,-3.2547,-3.216,-3.1936,-3.148,-3.0925,-3.0702,-3.0642,-3.0642,-3.0642,-3.048,-3.0113,-2.9843,-2.9302,-2.8552,-2.8154,-2.7594,-2.6864,-2.669,-2.6358,-2.5813,-2.5673,-2.5439,-2.5059,-2.5018,-2.4708,-2.4118,-2.3872,-2.3458,-2.2714,-2.3233,-2.3399,-2.3138,-2.2957,-2.2665,-2.2371,-2.242,-2.2567,-2.2688,-2.3229,-2.3638,-2.4188,-2.4676,-2.5165,-2.5737,-2.5862,-2.6076,-2.6458,-2.6521,-2.6521,-2.6521,-2.6521,-2.6521,-2.6521,-2.6521,-2.6521,-2.6658,-2.6671,-2.6739,-2.6794,-2.7011,-2.7092,-2.704,-2.696,-2.6973,-2.6918,-2.6879,-2.6595,-2.6419,-2.6435,-2.6229,-2.5743,-2.5589,-2.5397,-2.5099,-2.4577,-2.4221,-2.3905,-2.3764,-2.3803,-2.3901,-2.3879,-2.393,-2.365,-2.345,-2.3378,-2.3318,-2.3318,-2.3258,-2.3198,-2.3198,-2.3138,-2.3125,-2.3138,-2.3138,-2.3125,-2.3125,-2.3125,-3.1348,-3.1325,-3.1438,-3.1851,-3.2453,-3.2621,-3.2882,-3.3261,-3.3256,-3.3256,-3.3309,-3.3256,-3.3203,-3.3203,-3.3203,-3.3203,-3.3134,-3.285,-3.2327,-3.1766,-3.1667,-3.1263,-3.0702,-3.0642,-3.0522,-3.0401,-3.0401,-3.0266,-3.0021,-2.9837,-2.9392,-2.8747,-2.8457,-2.7982,-2.7216,-2.7135,-2.685,-2.6335,-2.624,-2.5882,-2.5222,-2.5087,-2.4633,-2.3734,-2.3412,-2.3078,-2.2543,-2.2896,-2.2957,-2.2665,-2.2604,-2.2482,-2.2247,-2.2309,-2.2309,-2.2431,-2.2786,-2.3255,-2.3603,-2.4025,-2.4663,-2.541,-2.5586,-2.585,-2.6302,-2.6521,-2.6521,-2.6521,-2.6521,-2.6521,-2.6521,-2.6521,-2.6521,-2.6521,-2.6521,-2.6508,-2.6633,-2.6782,-2.685,-2.6799,-2.6578,-2.6489,-2.6464,-2.6168,-2.5991,-2.5726,-2.5663,-2.5472,-2.5014,-2.4823,-2.4531,-2.4238,-2.3898,-2.3596,-2.3273,-2.3223,-2.3296,-2.3321,-2.3346,-2.3457,-2.3416,-2.3318,-2.3198,-2.3198,-2.3198,-2.3198,-2.3138,-2.3138,-2.3125,-2.3125,-2.3125,-2.3125,-2.3125,-2.3125,-2.3065,-3.0364,-3.0434,-3.1002,-3.1779,-3.2475,-3.2993,-3.3208,-3.3256,-3.315,-3.315,-3.3203,-3.315,-3.3112,-3.3112,-3.3112,-3.3058,-3.2897,-3.2773,-3.2302,-3.1595,-3.1263,-3.0911,-3.0507,-3.0462,-3.0266,-3.0097,-3.005,-2.9789,-2.9352,-2.9212,-2.8972,-2.8712,-2.8607,-2.8315,-2.7841,-2.7759,-2.7461,-2.6959,-2.6803,-2.6237,-2.5289,-2.511,-2.4661,-2.3633,-2.3163,-2.2909,-2.2726,-2.2494,-2.2309,-2.2197,-2.2259,-2.2247,-2.2197,-2.2197,-2.2197,-2.2185,-2.2309,-2.2762,-2.3304,-2.3529,-2.4153,-2.5131,-2.5423,-2.5787,-2.6201,-2.6389,-2.6521,-2.6521,-2.6521,-2.6521,-2.6521,-2.6521,-2.6521,-2.6521,-2.6521,-2.6496,-2.6526,-2.6582,-2.6481,-2.638,-2.6089,-2.5772,-2.5627,-2.5184,-2.4946,-2.4795,-2.4834,-2.457,-2.4192,-2.3941,-2.3665,-2.3477,-2.3387,-2.3311,-2.3125,-2.3138,-2.321,-2.321,-2.3198,-2.321,-2.3271,-2.3198,-2.3125,-2.3125,-2.3125,-2.3125,-2.3125,-2.3125,-2.3125,-2.3125,-2.3125,-2.3125,-2.3065,-2.3065,-2.3078,-3.1801,-3.2257,-3.2103,-3.2392,-3.3008,-3.3156,-3.315,-3.3165,-3.3005,-3.2989,-3.3096,-3.3096,-3.3112,-3.3112,-3.3112,-3.2989,-3.2827,-3.2539,-3.2318,-3.1823,-3.0999,-3.0433,-2.996,-2.9851,-2.9851,-2.9741,-2.9741,-2.9602,-2.9477,-2.9162,-2.9035,-2.8972,-2.8716,-2.8532,-2.837,-2.8329,-2.8044,-2.7493,-2.7086,-2.6542,-2.5788,-2.4974,-2.4336,-2.3753,-2.312,-2.2763,-2.2432,-2.2247,-2.2197,-2.2197,-2.2197,-2.2197,-2.2197,-2.2197,-2.2197,-2.2197,-2.2259,-2.2345,-2.2665,-2.2911,-2.3368,-2.414,-2.4753,-2.5272,-2.5774,-2.6226,-2.6414,-2.6521,-2.6521,-2.6521,-2.6521,-2.6521,-2.6521,-2.6521,-2.6521,-2.6508,-2.6395,-2.6131,-2.5866,-2.5699,-2.5608,-2.538,-2.4996,-2.4628,-2.4302,-2.4217,-2.4167,-2.4067,-2.3653,-2.3452,-2.3339,-2.3276,-2.3175,-2.3163,-2.3125,-2.3125,-2.3138,-2.3138,-2.3138,-2.3138,-2.3138,-2.3138,-2.3125,-2.3125,-2.3125,-2.3125,-2.3125,-2.3125,-2.3125,-2.3078,-2.3078,-2.3017,-2.3078,-2.3078,-2.303,-3.2758,-3.2967,-3.2672,-3.28,-3.3171,-3.3058,-3.3005,-3.3005,-3.2827,-3.2897,-3.3005,-3.2935,-3.2866,-3.2881,-3.2881,-3.2827,-3.2648,-3.212,-3.1766,-3.1291,-3.0222,-2.9699,-2.9602,-2.9602,-2.954,-2.9415,-2.9429,-2.9289,-2.9162,-2.8972,-2.8908,-2.8844,-2.8716,-2.8587,-2.856,-2.8573,-2.8438,-2.8062,-2.7662,-2.6984,-2.5833,-2.5129,-2.4025,-2.3308,-2.2756,-2.2501,-2.2246,-2.2197,-2.2197,-2.2197,-2.2197,-2.2197,-2.2197,-2.2197,-2.2197,-2.2197,-2.2197,-2.2247,-2.2359,-2.2506,-2.2984,-2.3813,-2.4424,-2.4934,-2.5622,-2.6164,-2.6408,-2.6339,-2.6465,-2.6452,-2.6521,-2.6521,-2.6521,-2.6521,-2.6521,-2.642,-2.6138,-2.5812,-2.5498,-2.5234,-2.4947,-2.4722,-2.4469,-2.4066,-2.3792,-2.3641,-2.364,-2.3477,-2.3251,-2.3163,-2.3065,-2.3078,-2.3065,-2.3065,-2.3078,-2.3017,-2.3017,-2.3078,-2.3078,-2.3078,-2.3078,-2.3078,-2.3125,-2.3125,-2.3125,-2.3125,-2.3125,-2.3078,-2.3017,-2.2957,-2.2957,-2.2957,-2.2957,-2.2957,-2.2909,-3.3378,-3.3097,-3.2934,-3.2934,-3.3049,-3.2951,-3.2897,-3.2843,-3.2648,-3.2718,-3.2773,-3.2718,-3.2633,-3.2578,-3.2633,-3.2523,-3.2398,-3.1992,-3.1233,-3.0524,-2.956,-2.9085,-2.9366,-2.9352,-2.9226,-2.9035,-2.9035,-2.8908,-2.878,-2.8665,-2.86,-2.8651,-2.8587,-2.8587,-2.8587,-2.8587,-2.8587,-2.8325,-2.8011,-2.7104,-2.582,-2.5115,-2.4099,-2.2741,-2.232,-2.2313,-2.2118,-2.2111,-2.2123,-2.2197,-2.2197,-2.2197,-2.2197,-2.2197,-2.2197,-2.2197,-2.2197,-2.2247,-2.2395,-2.2517,-2.2933,-2.3855,-2.4251,-2.4743,-2.5573,-2.5951,-2.6201,-2.6201,-2.6339,-2.6396,-2.6383,-2.6383,-2.6465,-2.6465,-2.6452,-2.6176,-2.5686,-2.5511,-2.531,-2.4795,-2.4255,-2.3966,-2.3778,-2.3453,-2.3103,-2.3353,-2.3278,-2.3215,-2.3115,-2.315,-2.3078,-2.3017,-2.3078,-2.3078,-2.3017,-2.2957,-2.2957,-2.2957,-2.2957,-2.2957,-2.2957,-2.3017,-2.3078,-2.3125,-2.3125,-2.3125,-2.3125,-2.3017,-2.2957,-2.2909,-2.2909,-2.2787,-2.2739,-2.28,-2.28,-3.4279,-3.3808,-3.3367,-3.3151,-3.3081,-3.2951,-3.2773,-3.2648,-3.2523,-3.2523,-3.2648,-3.2648,-3.2594,-3.2578,-3.2578,-3.2523,-3.2342,-3.2048,-3.1637,-3.045,-2.9704,-2.9058,-2.8972,-2.8844,-2.878,-2.8716,-2.8716,-2.8651,-2.8587,-2.8587,-2.8587,-2.8587,-2.8587,-2.8587,-2.8587,-2.8522,-2.8392,-2.7987,-2.751,-2.6748,-2.5647,-2.4711,-2.3942,-2.2972,-2.2407,-2.1957,-2.1843,-2.1788,-2.1925,-2.2135,-2.2246,-2.2318,-2.2221,-2.2197,-2.2221,-2.2258,-2.2234,-2.2209,-2.2332,-2.2783,-2.3138,-2.3579,-2.4352,-2.5025,-2.521,-2.5714,-2.5955,-2.5992,-2.605,-2.605,-2.6107,-2.6188,-2.627,-2.627,-2.6371,-2.6076,-2.5259,-2.5008,-2.4795,-2.4243,-2.3715,-2.3265,-2.3351,-2.318,-2.3005,-2.3065,-2.3078,-2.3017,-2.3017,-2.3078,-2.3017,-2.2969,-2.2957,-2.2957,-2.2909,-2.2848,-2.2848,-2.2848,-2.2848,-2.2848,-2.2909,-2.2909,-2.2969,-2.3078,-2.3125,-2.3065,-2.3017,-2.3017,-2.2909,-2.2909,-2.2787,-2.2726,-2.2616,-2.2678,-2.2616,-3.4927,-3.4218,-3.385,-3.3403,-3.292,-3.2703,-3.2578,-3.2523,-3.2453,-3.2453,-3.2523,-3.2523,-3.2508,-3.2508,-3.2453,-3.2342,-3.1879,-3.1261,-3.0555,-2.967,-2.917,-2.8881,-2.8638,-2.8522,-2.8509,-2.8587,-2.8587,-2.8587,-2.8587,-2.8587,-2.8587,-2.8587,-2.8587,-2.8522,-2.8365,-2.817,-2.7749,-2.7284,-2.6663,-2.5894,-2.5063,-2.4401,-2.3733,-2.3163,-2.2423,-2.1966,-2.2166,-2.2339,-2.2468,-2.2662,-2.2843,-2.2666,-2.2282,-2.2209,-2.2306,-2.2522,-2.2558,-2.2714,-2.3007,-2.3236,-2.3591,-2.3784,-2.4456,-2.4864,-2.52,-2.5554,-2.5734,-2.5758,-2.584,-2.591,-2.591,-2.5992,-2.6062,-2.6062,-2.6131,-2.5716,-2.4912,-2.4678,-2.4469,-2.3816,-2.3351,-2.3201,-2.3078,-2.2944,-2.2944,-2.3078,-2.3078,-2.3017,-2.2957,-2.2957,-2.2909,-2.286,-2.2848,-2.2848,-2.28,-2.2739,-2.2665,-2.2678,-2.2678,-2.2739,-2.28,-2.286,-2.2921,-2.2909,-2.2957,-2.2909,-2.2848,-2.2848,-2.2848,-2.2665,-2.2543,-2.2543,-2.2482,-2.2432,-2.2371,-3.5253,-3.4301,-3.4169,-3.3527,-3.2687,-3.2523,-3.2453,-3.2398,-3.2398,-3.2398,-3.2398,-3.2398,-3.2342,-3.2342,-3.2342,-3.2007,-3.1276,-3.0315,-2.9594,-2.8931,-2.8702,-2.8587,-2.8457,-2.8379,-2.8379,-2.8522,-2.8471,-2.8457,-2.8522,-2.8509,-2.8457,-2.8522,-2.8522,-2.8392,-2.817,-2.7683,-2.7271,-2.6799,-2.6158,-2.5252,-2.4492,-2.4085,-2.3568,-2.2771,-2.2377,-2.2205,-2.2411,-2.2659,-2.2931,-2.3136,-2.3416,-2.3149,-2.2651,-2.2462,-2.2594,-2.3087,-2.3099,-2.3244,-2.3532,-2.3863,-2.4061,-2.4506,-2.4638,-2.4843,-2.525,-2.5429,-2.5535,-2.5606,-2.5676,-2.577,-2.584,-2.584,-2.584,-2.584,-2.591,-2.5431,-2.476,-2.4623,-2.4115,-2.3329,-2.3019,-2.2982,-2.2957,-2.2896,-2.2957,-2.3017,-2.3017,-2.3017,-2.2909,-2.2848,-2.28,-2.2739,-2.2739,-2.2726,-2.2604,-2.2494,-2.2494,-2.2494,-2.2506,-2.2567,-2.2616,-2.2616,-2.2616,-2.2739,-2.2739,-2.2739,-2.2739,-2.2726,-2.2604,-2.242,-2.2359,-2.242,-2.2309,-2.2197,-2.2197,-3.4754,-3.3781,-3.3781,-3.3314,-3.2633,-3.2594,-3.2508,-3.2398,-3.2398,-3.2398,-3.2398,-3.2287,-3.2247,-3.2191,-3.2094,-3.1667,-3.0984,-3.0133,-2.947,-2.8853,-2.843,-2.821,-2.821,-2.8197,-2.8145,-2.8145,-2.821,-2.8197,-2.8327,-2.8262,-2.8276,-2.821,-2.821,-2.821,-2.8066,-2.7855,-2.7095,-2.6171,-2.5755,-2.4992,-2.3998,-2.3621,-2.3318,-2.2567,-2.238,-2.2302,-2.226,-2.2297,-2.2389,-2.265,-2.2775,-2.2919,-2.3069,-2.3299,-2.349,-2.3592,-2.364,-2.3737,-2.3941,-2.4206,-2.4398,-2.4602,-2.4891,-2.5131,-2.5288,-2.5312,-2.5394,-2.5394,-2.5382,-2.5394,-2.5394,-2.5535,-2.5606,-2.5688,-2.5709,-2.5571,-2.5038,-2.4546,-2.3996,-2.3059,-2.285,-2.28,-2.2787,-2.2787,-2.2775,-2.2775,-2.2787,-2.2787,-2.2726,-2.2678,-2.2616,-2.2616,-2.2616,-2.2543,-2.2482,-2.2371,-2.2247,-2.2309,-2.2321,-2.2321,-2.2309,-2.2309,-2.2309,-2.2494,-2.2629,-2.2629,-2.2616,-2.2555,-2.2494,-2.2359,-2.2297,-2.2309,-2.2247,-2.2197,-2.2197,-3.4545,-3.3866,-3.3559,-3.3087,-3.2578,-3.2508,-3.2468,-3.2398,-3.2398,-3.2398,-3.2342,-3.2247,-3.2191,-3.2135,-3.2038,-3.148,-3.051,-2.9856,-2.9184,-2.856,-2.8262,-2.8079,-2.8079,-2.8,-2.8013,-2.8013,-2.7947,-2.7947,-2.8183,-2.8145,-2.8079,-2.8079,-2.8079,-2.7868,-2.7297,-2.6867,-2.6239,-2.5252,-2.4696,-2.4215,-2.3372,-2.3309,-2.2985,-2.2812,-2.2663,-2.2604,-2.2606,-2.2816,-2.2969,-2.3112,-2.3313,-2.3524,-2.3712,-2.3816,-2.4023,-2.4082,-2.4157,-2.4302,-2.4506,-2.4819,-2.4927,-2.4963,-2.5192,-2.5288,-2.5312,-2.5312,-2.5312,-2.5312,-2.5312,-2.5312,-2.5312,-2.5382,-2.5453,-2.5465,-2.5535,-2.535,-2.4937,-2.4597,-2.3879,-2.3091,-2.2824,-2.2788,-2.2678,-2.2678,-2.2604,-2.2604,-2.2555,-2.2555,-2.2555,-2.2494,-2.2494,-2.2432,-2.2432,-2.2371,-2.2359,-2.2247,-2.2197,-2.2197,-2.2197,-2.2197,-2.2197,-2.2197,-2.2259,-2.2383,-2.2445,-2.2506,-2.2445,-2.2371,-2.2309,-2.2309,-2.2309,-2.2247,-2.2197,-2.2197,-2.2197,-3.4577,-3.3969,-3.3563,-3.3002,-3.2453,-3.2398,-3.2398,-3.2398,-3.2398,-3.2413,-3.2342,-3.2191,-3.2135,-3.2038,-3.1667,-3.094,-2.9704,-2.9135,-2.8638,-2.8131,-2.7947,-2.7947,-2.7934,-2.7868,-2.7802,-2.7881,-2.7736,-2.7669,-2.7934,-2.7947,-2.7947,-2.7934,-2.7947,-2.7523,-2.6744,-2.6321,-2.511,-2.4192,-2.3559,-2.3213,-2.3075,-2.3001,-2.3001,-2.3001,-2.3001,-2.2968,-2.2955,-2.3165,-2.3323,-2.3408,-2.3661,-2.3936,-2.4032,-2.4043,-2.4209,-2.4423,-2.4491,-2.48,-2.5003,-2.5252,-2.5228,-2.5228,-2.5288,-2.5312,-2.5312,-2.5312,-2.5312,-2.5312,-2.5312,-2.5312,-2.5312,-2.5312,-2.5312,-2.5312,-2.5288,-2.5168,-2.4855,-2.4599,-2.4237,-2.3567,-2.304,-2.2738,-2.2652,-2.2494,-2.2432,-2.242,-2.2432,-2.2445,-2.2383,-2.2371,-2.2309,-2.2247,-2.2259,-2.2259,-2.2247,-2.2247,-2.2197,-2.2197,-2.2197,-2.2197,-2.2197,-2.2197,-2.2259,-2.2259,-2.2259,-2.2321,-2.2197,-2.2197,-2.2247,-2.2247,-2.2197,-2.2197,-2.2197,-2.2197,-2.2197,-3.4927,-3.3986,-3.3935,-3.3303,-3.2453,-3.2398,-3.2398,-3.2398,-3.2398,-3.2342,-3.2206,-3.2109,-3.194,-3.164,-3.1029,-2.9964,-2.9044,-2.8675,-2.83,-2.7736,-2.7669,-2.7669,-2.759,-2.7536,-2.7603,-2.7669,-2.7536,-2.7656,-2.7802,-2.7669,-2.7536,-2.7523,-2.7456,-2.7108,-2.6183,-2.5906,-2.5557,-2.4337,-2.3986,-2.3632,-2.3075,-2.3001,-2.3001,-2.3001,-2.3001,-2.3001,-2.3001,-2.315,-2.315,-2.315,-2.315,-2.3372,-2.3593,-2.3677,-2.3886,-2.4192,-2.4552,-2.4791,-2.4897,-2.5111,-2.517,-2.517,-2.5241,-2.5312,-2.5312,-2.5312,-2.5312,-2.5312,-2.5312,-2.5312,-2.5312,-2.5312,-2.5312,-2.5312,-2.53,-2.53,-2.5119,-2.4855,-2.447,-2.4078,-2.3574,-2.2947,-2.251,-2.2392,-2.2247,-2.2247,-2.2247,-2.2259,-2.2259,-2.2247,-2.2247,-2.2197,-2.2197,-2.2197,-2.2197,-2.2197,-2.2197,-2.2197,-2.2197,-2.2197,-2.2197,-2.2197,-2.2197,-2.2197,-2.2197,-2.2197,-2.2197,-2.2197,-2.2197,-2.2197,-2.2197,-2.2197,-2.2197,-2.2197,-2.2197,-3.4609,-3.3802,-3.3145,-3.2602,-3.2191,-3.2206,-3.2191,-3.2191,-3.2206,-3.215,-3.2038,-3.194,-3.1597,-3.1087,-3.0598,-2.978,-2.8725,-2.8481,-2.8105,-2.759,-2.7469,-2.7469,-2.7536,-2.7469,-2.7469,-2.7469,-2.7469,-2.7536,-2.759,-2.7456,-2.7323,-2.6905,-2.6837,-2.6183,-2.5405,-2.5122,-2.448,-2.3779,-2.3423,-2.3287,-2.3065,-2.3001,-2.3001,-2.3001,-2.3001,-2.3001,-2.3001,-2.3001,-2.3001,-2.3001,-2.3001,-2.3065,-2.3224,-2.3298,-2.3372,-2.3519,-2.3886,-2.4189,-2.4418,-2.4778,-2.4838,-2.4886,-2.5028,-2.5312,-2.5312,-2.5241,-2.5241,-2.5312,-2.5312,-2.5312,-2.5241,-2.5312,-2.5312,-2.5312,-2.5253,-2.5241,-2.5205,-2.5155,-2.4867,-2.4498,-2.4118,-2.3532,-2.2982,-2.2591,-2.2468,-2.2294,-2.227,-2.2183,-2.2221,-2.2197,-2.2197,-2.2197,-2.2197,-2.2197,-2.2197,-2.2197,-2.2123,-2.2123,-2.2185,-2.2185,-2.2197,-2.2197,-2.2197,-2.2197,-2.2197,-2.2197,-2.2197,-2.2197,-2.2197,-2.2197,-2.2197,-2.2197,-2.2197,-2.2197,-2.2197,-3.3987,-3.3391,-3.2547,-3.215,-3.2012,-3.2012,-3.1996,-3.1996,-3.2012,-3.1996,-3.1883,-3.1597,-3.097,-3.0343,-2.9964,-2.9219,-2.8287,-2.8222,-2.7973,-2.7656,-2.7469,-2.7469,-2.7469,-2.7469,-2.7469,-2.7469,-2.7188,-2.7188,-2.7108,-2.6973,-2.6633,-2.6427,-2.6483,-2.5627,-2.4552,-2.4192,-2.3841,-2.3213,-2.3065,-2.3075,-2.3001,-2.3001,-2.3001,-2.3001,-2.3001,-2.3001,-2.3001,-2.3001,-2.3001,-2.3001,-2.3001,-2.3001,-2.3075,-2.3075,-2.3075,-2.315,-2.3457,-2.3593,-2.3897,-2.4273,-2.4418,-2.4478,-2.4539,-2.4897,-2.4969,-2.5028,-2.5028,-2.4957,-2.4969,-2.4969,-2.5028,-2.504,-2.5123,-2.5123,-2.5123,-2.5182,-2.5087,-2.4933,-2.4897,-2.4743,-2.4493,-2.4429,-2.3835,-2.3171,-2.2775,-2.2495,-2.2303,-2.2193,-2.2059,-2.2011,-2.1937,-2.1874,-2.1812,-2.1812,-2.1874,-2.1937,-2.1999,-2.2061,-2.2061,-2.2123,-2.2123,-2.2135,-2.2197,-2.2197,-2.2197,-2.2197,-2.2197,-2.2197,-2.2197,-2.2197,-2.2197,-2.2197,-2.2197,-2.2197,-2.2197,-3.3198,-3.2695,-3.268,-3.2398,-3.2012,-3.2012,-3.2012,-3.194,-3.1996,-3.1883,-3.1712,-3.1029,-3.0329,-2.9642,-2.9093,-2.8403,-2.759,-2.759,-2.759,-2.7536,-2.7469,-2.7469,-2.7469,-2.7469,-2.7469,-2.739,-2.7108,-2.6769,-2.6414,-2.6208,-2.6139,-2.6277,-2.5988,-2.5276,-2.448,-2.3841,-2.3621,-2.3139,-2.3001,-2.3001,-2.3001,-2.3001,-2.3001,-2.3001,-2.3001,-2.3001,-2.3001,-2.3001,-2.3001,-2.3001,-2.3001,-2.3001,-2.3001,-2.3001,-2.3001,-2.3075,-2.3075,-2.3224,-2.3372,-2.3824,-2.42,-2.4189,-2.4261,-2.4394,-2.4478,-2.4334,-2.4334,-2.4394,-2.4478,-2.4406,-2.4478,-2.4562,-2.4778,-2.4778,-2.4838,-2.4838,-2.4683,-2.4539,-2.4515,-2.479,-2.4815,-2.4672,-2.4214,-2.3433,-2.2975,-2.2622,-2.2209,-2.2086,-2.1642,-2.1498,-2.1423,-2.136,-2.136,-2.136,-2.1296,-2.1423,-2.1612,-2.1675,-2.1737,-2.1862,-2.2061,-2.2061,-2.1937,-2.2123,-2.2061,-2.2123,-2.2197,-2.2197,-2.2197,-2.2197,-2.2197,-2.2061,-2.2123,-2.2123,-2.2185,-3.2841,-3.1966,-3.1951,-3.191,-3.1712,-3.1697,-3.1712,-3.1712,-3.1697,-3.1655,-3.1597,-3.0837,-3.0147,-2.9456,-2.8776,-2.8157,-2.759,-2.7469,-2.7469,-2.7469,-2.7469,-2.7469,-2.7469,-2.7469,-2.7469,-2.739,-2.7108,-2.6756,-2.6414,-2.5779,-2.5346,-2.5264,-2.5052,-2.4337,-2.3706,-2.3486,-2.3276,-2.3139,-2.3001,-2.3001,-2.3001,-2.3001,-2.3001,-2.3001,-2.3001,-2.3001,-2.3001,-2.3001,-2.3001,-2.3001,-2.3001,-2.3001,-2.3001,-2.3001,-2.3001,-2.3001,-2.3001,-2.3001,-2.3075,-2.353,-2.3909,-2.4116,-2.4043,-2.3897,-2.4043,-2.4189,-2.4189,-2.4189,-2.4116,-2.4116,-2.4189,-2.4334,-2.4418,-2.4418,-2.4418,-2.4418,-2.4334,-2.4116,-2.4189,-2.4429,-2.4751,-2.4956,-2.4339,-2.3621,-2.3213,-2.2738,-2.2356,-2.1932,-2.1331,-2.0941,-2.0888,-2.0767,-2.0756,-2.0839,-2.0839,-2.1031,-2.1233,-2.1221,-2.1273,-2.1336,-2.1411,-2.1549,-2.1486,-2.1737,-2.1874,-2.191,-2.1984,-2.2147,-2.2123,-2.1987,-2.1925,-2.1862,-2.1925,-2.2049,-2.2049,-3.261,-3.1524,-3.1467,-3.1467,-3.1467,-3.1467,-3.1467,-3.1467,-3.1524,-3.1467,-3.1409,-3.0644,-2.995,-2.938,-2.8519,-2.796,-2.759,-2.7469,-2.7469,-2.7469,-2.7469,-2.739,-2.7255,-2.7108,-2.6905,-2.6905,-2.6539,-2.6045,-2.5545,-2.5487,-2.4707,-2.4059,-2.3768,-2.3423,-2.3213,-2.3001,-2.3001,-2.3001,-2.3001,-2.3001,-2.3001,-2.3001,-2.3001,-2.3001,-2.3001,-2.3001,-2.3001,-2.3001,-2.3001,-2.3001,-2.3001,-2.3001,-2.3001,-2.3001,-2.3001,-2.3001,-2.3001,-2.3001,-2.3075,-2.3235,-2.353,-2.3666,-2.3604,-2.3604,-2.3751,-2.3813,-2.3751,-2.374,-2.3824,-2.3824,-2.3886,-2.3897,-2.397,-2.4043,-2.4043,-2.397,-2.397,-2.3824,-2.3897,-2.3982,-2.4219,-2.4265,-2.4016,-2.3307,-2.2795,-2.2277,-2.1545,-2.1112,-2.0644,-2.0318,-2.0236,-2.0149,-2.0096,-2.0227,-2.0302,-2.0205,-2.0042,-2.0161,-2.0226,-2.042,-2.0549,-2.0711,-2.0786,-2.0764,-2.1042,-2.1504,-2.1418,-2.1158,-2.14,-2.1714,-2.1588,-2.14,-2.1537,-2.1612,-2.1737,-3.2516,-3.1524,-3.1467,-3.1467,-3.1467,-3.1467,-3.1467,-3.1467,-3.1409,-3.1409,-3.1219,-3.0147,-2.9518,-2.9142,-2.8143,-2.7656,-2.7523,-2.7456,-2.7456,-2.7456,-2.7469,-2.7108,-2.6769,-2.6564,-2.6414,-2.5358,-2.5146,-2.4909,-2.4397,-2.4131,-2.3497,-2.3213,-2.3213,-2.3139,-2.3001,-2.3001,-2.3001,-2.3001,-2.3001,-2.3001,-2.3001,-2.3001,-2.3001,-2.3001,-2.3001,-2.3001,-2.3001,-2.2892,-2.2859,-2.2859,-2.287,-2.287,-2.2881,-2.2968,-2.299,-2.3001,-2.3001,-2.3001,-2.3001,-2.3001,-2.315,-2.3224,-2.3224,-2.3224,-2.315,-2.3075,-2.3224,-2.3298,-2.3224,-2.315,-2.3224,-2.3372,-2.3519,-2.3604,-2.3593,-2.3593,-2.3519,-2.3446,-2.353,-2.3604,-2.3309,-2.3161,-2.3086,-2.285,-2.2338,-2.1638,-2.0874,-2.0298,-1.9981,-1.9926,-1.9885,-1.9812,-1.9823,-1.9771,-1.9729,-1.9106,-1.89,-1.9029,-1.9358,-1.9762,-1.9775,-1.9809,-1.9843,-1.9834,-2.0336,-2.0902,-2.0477,-1.9901,-2.0355,-2.0741,-2.0944,-2.0955,-2.1094,-2.1181,-2.1129,-3.2216,-3.1467,-3.1467,-3.1467,-3.1467,-3.1467,-3.1467,-3.1409,-3.1087,-3.0837,-3.0524,-2.9393,-2.8853,-2.8532,-2.8026,-2.7456,-2.7469,-2.7403,-2.7403,-2.7335,-2.7335,-2.7268,-2.685,-2.6346,-2.6151,-2.5861,-2.5288,-2.442,-2.4192,-2.3632,-2.3361,-2.315,-2.3001,-2.3001,-2.3001,-2.3001,-2.3001,-2.3001,-2.3001,-2.3001,-2.3001,-2.3001,-2.3001,-2.3001,-2.3001,-2.299,-2.2936,-2.2739,-2.2524,-2.2491,-2.248,-2.2524,-2.2589,-2.2698,-2.3001,-2.3001,-2.3001,-2.3001,-2.3001,-2.3001,-2.3001,-2.3001,-2.3001,-2.3001,-2.3001,-2.3001,-2.3001,-2.3001,-2.3001,-2.3001,-2.3075,-2.315,-2.3224,-2.3224,-2.3224,-2.3224,-2.315,-2.315,-2.315,-2.315,-2.3075,-2.2916,-2.283,-2.237,-2.1845,-2.1281,-2.0481,-2.0139,-1.9855,-1.9797,-1.9758,-1.9758,-1.9687,-1.9475,-1.9223,-1.8834,-1.8804,-1.9054,-1.9303,-1.9524,-1.9481,-1.9178,-1.9162,-1.9256,-1.9871,-2.0347,-1.9783,-1.9396,-1.9428,-1.9704,-1.9876,-1.9997,-2.0085,-2.0096,-2.0162,-3.2079,-3.1524,-3.1467,-3.1467,-3.1467,-3.1467,-3.1394,-3.1087,-3.0658,-3.0404,-2.995,-2.8967,-2.8546,-2.8287,-2.7776,-2.739,-2.7403,-2.7281,-2.7214,-2.7146,-2.685,-2.6552,-2.6208,-2.5849,-2.4981,-2.5063,-2.4707,-2.3998,-2.3548,-2.3621,-2.3423,-2.3075,-2.3001,-2.3001,-2.3001,-2.3001,-2.3001,-2.3001,-2.3001,-2.3001,-2.3001,-2.3001,-2.3001,-2.3001,-2.2979,-2.2936,-2.2644,-2.2331,-2.1937,-2.1883,-2.1905,-2.1991,-2.2131,-2.2548,-2.2957,-2.3001,-2.3001,-2.3001,-2.3001,-2.3001,-2.3001,-2.3001,-2.3001,-2.3001,-2.3001,-2.3001,-2.3001,-2.3001,-2.3001,-2.3001,-2.3001,-2.3001,-2.3001,-2.3001,-2.2927,-2.3001,-2.2938,-2.2927,-2.2938,-2.2938,-2.2927,-2.2767,-2.2371,-2.1956,-2.1353,-2.0787,-2.0216,-1.9905,-1.9678,-1.9644,-1.9556,-1.9463,-1.9292,-1.9,-1.887,-1.8822,-1.8831,-1.9102,-1.9175,-1.9301,-1.8918,-1.8624,-1.8643,-1.8626,-1.8774,-1.8864,-1.8993,-1.8913,-1.8943,-1.8904,-1.8914,-1.8953,-1.8995,-1.925,-1.9499,-3.2023,-3.1524,-3.1467,-3.1467,-3.1467,-3.1467,-3.1161,-3.051,-3.0464,-3.0072,-2.9456,-2.8712,-2.8287,-2.8222,-2.759,-2.7268,-2.7121,-2.7011,-2.6863,-2.6577,-2.6126,-2.5627,-2.4981,-2.4337,-2.3975,-2.3265,-2.2916,-2.3128,-2.2767,-2.2979,-2.3001,-2.2927,-2.2852,-2.2927,-2.2927,-2.2927,-2.2927,-2.2927,-2.2927,-2.2927,-2.2927,-2.2927,-2.3001,-2.3001,-2.299,-2.2837,-2.2451,-2.1929,-2.1456,-2.1237,-2.1207,-2.1365,-2.1733,-2.2433,-2.2754,-2.2927,-2.2841,-2.2852,-2.2852,-2.2852,-2.3001,-2.3001,-2.3001,-2.3001,-2.3001,-2.3001,-2.3001,-2.3001,-2.3001,-2.3001,-2.3001,-2.3001,-2.2938,-2.2927,-2.2852,-2.2852,-2.2788,-2.2799,-2.281,-2.281,-2.2799,-2.2478,-2.1497,-2.0964,-2.0927,-2.0508,-1.9974,-1.9781,-1.9602,-1.9545,-1.9393,-1.906,-1.8844,-1.8461,-1.8434,-1.8761,-1.8817,-1.908,-1.8807,-1.8751,-1.8453,-1.8323,-1.8394,-1.8291,-1.7568,-1.7532,-1.8322,-1.8543,-1.8311,-1.833,-1.8455,-1.8505,-1.874,-1.901,-1.929,-3.1625,-3.1467,-3.1467,-3.1467,-3.1467,-3.1467,-3.1102,-3.051,-3.0011,-2.9393,-2.8725,-2.7973,-2.7709,-2.759,-2.7281,-2.7146,-2.6794,-2.6427,-2.607,-2.5697,-2.5193,-2.4838,-2.4337,-2.3829,-2.339,-2.3106,-2.2745,-2.2467,-2.2478,-2.2553,-2.2628,-2.2553,-2.2628,-2.2692,-2.2777,-2.2777,-2.2777,-2.2777,-2.2777,-2.2852,-2.2777,-2.2777,-2.2852,-2.2852,-2.2927,-2.27,-2.2368,-2.1468,-2.0969,-2.1136,-2.0524,-2.042,-2.0754,-2.1357,-2.17,-2.1776,-2.2014,-2.2327,-2.2402,-2.2777,-2.2927,-2.2841,-2.2916,-2.3001,-2.3001,-2.2927,-2.2927,-2.3001,-2.3001,-2.3001,-2.3001,-2.3001,-2.2852,-2.2703,-2.2703,-2.2628,-2.2563,-2.2499,-2.2499,-2.2178,-2.2113,-2.1939,-2.0961,-2.0547,-2.0479,-2.0117,-1.9854,-1.9618,-1.9502,-1.95,-1.9347,-1.9068,-1.8944,-1.8724,-1.8843,-1.9118,-1.9058,-1.9077,-1.8852,-1.8715,-1.869,-1.857,-1.8385,-1.817,-1.7899,-1.7977,-1.8332,-1.8378,-1.8451,-1.8311,-1.8453,-1.8462,-1.8499,-1.8834,-1.9012,-3.1467,-3.1467,-3.1467,-3.1467,-3.1467,-3.1204,-3.0703,-3.0072,-2.9594,-2.8917,-2.8039,-2.7469,-2.7214,-2.7214,-2.7011,-2.6863,-2.6794,-2.6,-2.5569,-2.5288,-2.4348,-2.407,-2.3706,-2.3254,-2.2883,-2.2734,-2.2596,-2.2241,-2.2252,-2.2402,-2.2402,-2.2402,-2.2392,-2.2553,-2.2628,-2.2628,-2.2628,-2.2628,-2.2628,-2.2703,-2.2703,-2.2628,-2.2628,-2.2553,-2.2553,-2.2317,-2.1807,-2.072,-2.047,-2.0383,-1.9551,-1.9831,-2.0262,-2.0751,-2.1231,-2.1308,-2.1548,-2.1711,-2.1787,-2.2004,-2.2231,-2.2306,-2.2306,-2.2231,-2.2456,-2.2606,-2.2841,-2.3001,-2.3001,-2.3001,-2.3001,-2.3001,-2.2777,-2.2553,-2.2402,-2.2327,-2.2262,-2.2208,-2.1897,-2.1404,-2.1349,-2.1278,-2.0934,-2.043,-2.0048,-1.9784,-1.9608,-1.9539,-1.9539,-1.9719,-1.9515,-1.9261,-1.921,-1.9164,-1.9292,-1.9292,-1.9228,-1.9173,-1.9155,-1.9036,-1.8962,-1.8907,-1.8825,-1.8742,-1.8583,-1.869,-1.8748,-1.8718,-1.8733,-1.866,-1.866,-1.8755,-1.884,-1.8896,-1.9065,-3.1467,-3.1467,-3.1482,-3.1351,-3.1351,-3.0703,-3.0025,-2.9456,-2.9233,-2.8546,-2.7469,-2.7079,-2.6943,-2.6943,-2.6794,-2.6714,-2.6358,-2.5652,-2.5004,-2.5087,-2.3559,-2.299,-2.2841,-2.2327,-2.2241,-2.2166,-2.2101,-2.2101,-2.2111,-2.2176,-2.2252,-2.2327,-2.2327,-2.2402,-2.2478,-2.2402,-2.2402,-2.2478,-2.2478,-2.2553,-2.2553,-2.2402,-2.2176,-2.1873,-2.1593,-2.1339,-2.0249,-1.9553,-1.9127,-1.8958,-1.8948,-1.9411,-1.9889,-2.0303,-2.0797,-2.1011,-2.1011,-2.1088,-2.1165,-2.1395,-2.1395,-2.1385,-2.1242,-2.1395,-2.1766,-2.2069,-2.2381,-2.2467,-2.2392,-2.2381,-2.2381,-2.2306,-2.2155,-2.1928,-2.17,-2.1548,-2.1318,-2.1252,-2.1135,-2.0854,-2.1041,-2.0936,-2.0459,-1.9951,-1.9715,-1.946,-1.9371,-1.9381,-1.946,-1.9696,-1.9618,-1.9381,-1.9292,-1.9292,-1.9292,-1.9292,-1.9292,-1.9283,-1.9292,-1.9274,-1.9146,-1.9182,-1.9274,-1.9118,-1.8953,-1.9091,-1.9136,-1.9081,-1.9036,-1.9081,-1.91,-1.921,-1.9237,-1.9155,-1.9136,-3.1467,-3.1467,-3.097,-3.0718,-3.0644,-3.0025,-2.9393,-2.8712,-2.8597,-2.8105,-2.7335,-2.693,-2.6794,-2.6794,-2.6508,-2.644,-2.6164,-2.5075,-2.4492,-2.3913,-2.283,-2.2327,-2.2262,-2.2035,-2.1873,-2.1873,-2.1873,-2.1883,-2.1959,-2.1959,-2.1959,-2.1959,-2.1949,-2.1949,-2.2176,-2.2101,-2.209,-2.2014,-2.209,-2.209,-2.2014,-2.2014,-2.1939,-2.1461,-2.1115,-2.0643,-1.9774,-1.896,-1.8889,-1.8788,-1.8511,-1.8793,-1.9381,-1.964,-1.9766,-1.9854,-2.0157,-2.0391,-2.0469,-2.0702,-2.0934,-2.1078,-2.1078,-2.1165,-2.1308,-2.1538,-2.1614,-2.1624,-2.17,-2.17,-2.17,-2.169,-2.1614,-2.1308,-2.1078,-2.0847,-2.0537,-2.045,-2.044,-2.0508,-2.0781,-2.0527,-2.0039,-1.9608,-1.9371,-1.9292,-1.9292,-1.9292,-1.9292,-1.945,-1.945,-1.9292,-1.9292,-1.9292,-1.9292,-1.9292,-1.9292,-1.9292,-1.9292,-1.9292,-1.9292,-1.9292,-1.9292,-1.9292,-1.9256,-1.9292,-1.9292,-1.9265,-1.9256,-1.9292,-1.9292,-1.9292,-1.9292,-1.9228,-1.9256,-3.1467,-3.1409,-3.0777,-3.051,-3.0315,-2.9407,-2.8789,-2.8417,-2.7973,-2.759,-2.7268,-2.693,-2.6726,-2.6589,-2.6233,-2.5943,-2.5664,-2.4288,-2.3779,-2.3191,-2.2606,-2.2025,-2.1807,-2.1807,-2.1807,-2.1807,-2.1807,-2.1807,-2.1807,-2.1807,-2.1807,-2.1731,-2.1568,-2.1328,-2.1482,-2.1471,-2.1318,-2.1088,-2.1318,-2.1242,-2.1078,-2.1078,-2.1078,-2.0672,-2.0207,-1.9659,-1.9061,-1.8268,-1.8338,-1.8426,-1.8294,-1.8373,-1.8841,-1.9125,-1.9063,-1.9063,-1.9301,-1.9696,-1.9696,-1.9923,-2.0235,-2.0304,-2.0157,-1.9923,-1.9854,-2.0079,-2.0779,-2.0857,-2.1318,-2.1395,-2.1395,-2.1385,-2.1385,-2.1155,-2.1078,-2.1001,-2.0857,-2.0847,-2.0352,-1.985,-2.0168,-2.0508,-2.0039,-1.9608,-1.9371,-1.9292,-1.9292,-1.9292,-1.9292,-1.9292,-1.9292,-1.9292,-1.9292,-1.9292,-1.9292,-1.9292,-1.9292,-1.9292,-1.9292,-1.9292,-1.9292,-1.9292,-1.9292,-1.9292,-1.9292,-1.9292,-1.9292,-1.9292,-1.9292,-1.9292,-1.9292,-1.9292,-1.9292,-1.9292,-1.9292,-3.1409,-3.1278,-3.0644,-3.0269,-3.0025,-2.8789,-2.8235,-2.817,-2.7469,-2.7201,-2.7268,-2.6918,-2.6714,-2.6289,-2.5804,-2.5441,-2.4802,-2.379,-2.3213,-2.2841,-2.2176,-2.1883,-2.1807,-2.1807,-2.1807,-2.1807,-2.1807,-2.1807,-2.1807,-2.1807,-2.1731,-2.1578,-2.1175,-2.0615,-2.0605,-2.045,-2.0216,-2.006,-2.006,-1.9972,-1.9894,-1.9894,-1.9894,-1.959,-1.8966,-1.8184,-1.7708,-1.7546,-1.7546,-1.7781,-1.7925,-1.8167,-1.8336,-1.8674,-1.8514,-1.8514,-1.8754,-1.8913,-1.8851,-1.8763,-1.8993,-1.8993,-1.8683,-1.8692,-1.8692,-1.9002,-1.9696,-2.0079,-2.0537,-2.0857,-2.0857,-2.0934,-2.0847,-2.0847,-2.0847,-2.0857,-2.0857,-2.0779,-2.0149,-1.9427,-1.9743,-2.0205,-1.996,-1.9539,-1.9371,-1.9292,-1.9292,-1.9292,-1.9292,-1.9292,-1.9292,-1.9292,-1.9292,-1.9292,-1.9292,-1.9292,-1.9292,-1.9292,-1.9292,-1.9292,-1.9292,-1.9292,-1.9292,-1.9292,-1.9292,-1.9292,-1.9292,-1.9292,-1.9292,-1.9292,-1.9292,-1.9292,-1.9292,-1.9292,-1.9292,-3.1146,-3.0644,-2.9936,-2.9331,-2.8661,-2.7842,-2.7536,-2.7523,-2.7335,-2.7323,-2.7323,-2.7188,-2.6769,-2.5767,-2.5709,-2.5205,-2.4204,-2.3287,-2.3075,-2.2852,-2.2111,-2.1883,-2.1807,-2.1807,-2.1807,-2.1807,-2.1807,-2.1807,-2.1807,-2.1807,-2.1731,-2.1655,-2.0944,-2.0459,-2.0304,-1.9982,-1.9502,-1.9265,-1.9265,-1.9265,-1.9256,-1.9177,-1.8948,-1.863,-1.8238,-1.761,-1.7139,-1.6902,-1.6894,-1.7057,-1.7392,-1.7716,-1.7959,-1.8112,-1.8121,-1.8031,-1.8193,-1.8273,-1.8201,-1.8129,-1.8353,-1.8353,-1.8201,-1.8201,-1.8201,-1.8201,-1.8585,-1.8674,-1.9054,-1.9539,-1.9618,-1.9775,-1.9766,-1.9844,-1.9835,-1.9835,-1.9844,-1.9844,-1.9543,-1.933,-1.9455,-1.9627,-1.9548,-1.9371,-1.9371,-1.9292,-1.9292,-1.9292,-1.9292,-1.9292,-1.9292,-1.9292,-1.9292,-1.9292,-1.9292,-1.9292,-1.9292,-1.9292,-1.9292,-1.9292,-1.9292,-1.9292,-1.9292,-1.9292,-1.9292,-1.9292,-1.9292,-1.9292,-1.9292,-1.9292,-1.9292,-1.9292,-1.9292,-1.9292,-1.9292]},{"header":{"parameterUnit":"m.s-1","parameterCategory":1,"la1":31.0,"la2":29.5877,"lo1":-88.7671,"lo2":-86.6584,"dy":0.0162,"dx":0.0185,"nx":115,"ny":88,"refTime":"2023-05-14T06:00:00:Z","depth":0,"parameterNumber":3,"parameterNumberName":"V-component_of_WINDS"},"data":[0.0,0.0,0.0,0.0,0.0,0.0,0.0,0.0,0.0,0.0,0.0,0.0,0.0,0.0,0.0,0.0,0.0,0.0,0.0,0.0,0.0,0.0,0.0,0.0,0.0,0.0,0.0,0.0,0.0,0.0,0.0,0.0,0.0,0.0,0.0,0.0,0.0,0.0,0.0,0.0,0.0,0.0,0.0,0.0,0.0,0.0,0.0,0.0,0.0,0.0,0.0,0.0,0.0,0.0,0.0,0.0,0.0,0.0,0.0,0.0,0.0,0.0,0.0,0.0,0.0,0.0,0.0,0.0,0.0,0.0,0.0,0.0,0.0,0.0,0.0,0.0,0.0,0.0,0.0,0.0,0.0,0.0,0.0,0.0,0.0,0.0,0.0,0.0,0.0,0.0,0.0,0.0,0.0,0.0,0.0,0.0,0.0,0.0,0.0,0.0,0.0,0.0,0.0,0.0,0.0,0.0,0.0,0.0,0.0,0.0,0.0,0.0,0.0,0.0,0.0,0.0,0.0,0.0,0.0,0.0,0.0,0.0,0.0,0.0,0.0,0.0,0.0,0.0,0.0,0.0,0.0,0.0,0.0,0.0,0.0,0.0,0.0,0.0,0.0,0.0,0.0,0.0,0.0,0.0,0.0,0.0,0.0,0.0,0.0,0.0,0.0,0.0,0.0,0.0,0.0,0.0,0.0,0.0,0.0,0.0,0.0,0.0,0.0,0.0,0.0,0.0,0.0,0.0,0.0,0.0,0.0,0.0,0.0,0.0,0.0,0.0,0.0,0.0,0.0,0.0,0.0,0.0,0.0,0.0,0.0,0.0,0.0,0.0,0.0,0.0,0.0,0.0,0.0,0.0,0.0,0.0,0.0,0.0,0.0,0.0,0.0,0.0,0.0,0.0,0.0,0.0,0.0,0.0,0.0,0.0,0.0,0.0,0.0,0.0,0.0,0.0,0.0,0.0,0.0,0.0,0.0,0.0,0.0,0.0,0.0,0.0,0.0,0.0,0.0,0.0,0.0,0.0,0.0,0.0,0.0,0.0,0.0,0.0,0.0,0.0,0.0,0.0,0.0,0.0,0.0,0.0,0.0,0.0,0.0,0.0,0.0,0.0,0.0,0.0,0.0,0.0,0.0,0.0,0.0,0.0,0.0,0.0,0.0,0.0,0.0,0.0,0.0,0.0,0.0,0.0,0.0,0.0,0.0,0.0,0.0,0.0,0.0,0.0,0.0,0.0,0.0,0.0,0.0,0.0,0.0,0.0,0.0,0.0,0.0,0.0,0.0,0.0,0.0,0.0,0.0,0.0,0.0,0.0,0.0,0.0,0.0,0.0,0.0,0.0,0.0,0.0,0.0,0.0,0.0,0.0,0.0,0.0,0.0,0.0,0.0,0.0,0.0,0.0,0.0,0.0,0.0,0.0,0.0,0.0,0.0,0.0,0.0,0.0,0.0,0.0,0.0,0.0,0.0,0.0,0.0,0.0,0.0,0.0,0.0,0.0,0.0,0.0,0.0,0.0,0.0,0.0,0.0,0.0,0.0,0.0,0.0,0.0,0.0,0.0,0.0,0.0,0.0,0.0,0.0,0.0,0.0,0.0,0.0,0.0,0.0,0.0,0.0,0.0,0.0,0.0,0.0,0.0,0.0,0.0,0.0,0.0,0.0,0.0,0.0,0.0,0.0,0.0,0.0,0.0,0.0,0.0,0.0,0.0,0.0,0.0,0.0,0.0,0.0,0.0,0.0,0.0,0.0,0.0,0.0,0.0,0.0,0.0,0.0,0.0,0.0,0.0,0.0,0.0,0.0,0.0,0.0,0.0,0.0,0.0,0.0,0.0,0.0,0.0,0.0,0.0,0.0,0.0,0.0,0.0,0.0,0.0,0.0,0.0,0.0,0.0,0.0,0.0,0.0,0.0,0.0,0.0,0.0,0.0,0.0,0.0,0.0,0.0,0.0,0.0,0.0,0.0,0.0,0.0,0.0,0.0,0.0,0.0,0.0,0.0,0.0,0.0,0.0,0.0,0.0,0.0,0.0,0.0,0.0,0.0,0.0,0.0,0.0,0.0,0.0,0.0,0.0,0.0,0.0,0.0,0.0,0.0,0.0,0.0,0.0,0.0,0.0,0.0,0.0,0.0,0.0,0.0,0.0,0.0,0.0,0.0,0.0,0.0,0.0,0.0,0.0,0.0,0.0,0.0,0.0,0.0,0.0,0.0,0.0,0.0,0.0,0.0,0.0,0.0,0.0,0.0,0.0,0.0,0.0,0.0,0.0,0.0,0.0,0.0,0.0,0.0,0.0,0.0,0.0,0.0,0.0,0.0,0.0,0.0,0.0,0.0,0.0,0.0,0.0,0.0,0.0,0.0,0.0,0.0,0.0,0.0,0.0,0.0,0.0,0.0,0.0,0.0,0.0,0.0,0.0,0.0,0.0,0.0,0.0,0.0,0.0,0.0,0.0,0.0,0.0,0.0,0.0,0.0,0.0,0.0,0.0,0.0,0.0,0.0,0.0,0.0,0.0,0.0,0.0,0.0,0.0,0.0,0.0,0.0,0.0,0.0,0.0,0.0,0.0,0.0,0.0,0.0,0.0,0.0,0.0,0.0,0.0,0.0,0.0,0.0,0.0,0.0,0.0,0.0,0.0,0.0,0.0,0.0,0.0,0.0,0.0,0.0,0.0,0.0,0.0,0.0,0.0,0.0,0.0,0.0,0.0,0.0,0.0,0.0,0.0,0.0,0.0,0.0,0.0,0.0,0.0,0.0,0.0,0.0,0.0,0.0,0.0,0.0,0.0,0.0,0.0,0.0,0.0,0.0,0.0,0.0,0.0,0.0,0.0,0.0,0.0,0.0,0.0,0.0,0.0,0.0,0.0,0.0,0.0,0.0,0.0,0.0,0.0,0.0,0.0,0.0,0.0,0.0,0.0,0.0,0.0,0.0,0.0,0.0,0.0,0.0,0.0,0.0,0.0,0.0,0.0,0.0,0.0,0.0,0.0,0.0,0.0,0.0,0.0,0.0,0.0,0.0,0.0,0.0,0.0,0.0,0.0,0.0,0.0,0.0,0.0,0.0,0.0,0.0,0.0,0.0,0.0,0.0,0.0,0.0,0.0,0.0,0.0,0.0,0.0,0.0,0.0,0.0,0.0,0.0,0.0,0.0,0.0,0.0,0.0,0.0,0.0,0.0,0.0,0.0,0.0,0.0,0.0,0.0,0.0,0.0,0.0,0.0,0.0,0.0,0.0,0.0,0.0,0.0,0.0,0.0,0.0,0.0,0.0,0.0,0.0,0.0,0.0,0.0,0.0,0.0,0.0,0.0,0.0,0.0,0.0,0.0,0.0,0.0,0.0,0.0,0.0,0.0,0.0,0.0,0.0,0.0,0.0,0.0,0.0,0.0,0.0,0.0,0.0,0.0,0.0,0.0,0.0,0.0,0.0,0.0,0.0,0.0,0.0,0.0,0.0,0.0,0.0,0.0,0.0,0.0,0.0,0.0,0.0,0.0,0.0,0.0,0.0,0.0,0.0,0.0,0.0,0.0,0.0,0.0,0.0,0.0,0.0,0.0,0.0,0.0,0.0,0.0,0.0,0.0,0.0,0.0,0.0,0.0,0.0,0.0,0.0,0.0,0.0,0.0,0.0,0.0,0.0,0.0,0.0,0.0,0.0,0.0,0.0,0.0,0.0,0.0,0.0,0.0,0.0,0.0,0.0,0.0,0.0,0.0,0.0,0.0,0.0,0.0,0.0,0.0,0.0,0.0,0.0,0.0,0.0,0.0,0.0,0.0,0.0,0.0,0.0,0.0,0.0,0.0,0.0,0.0,0.0,0.0,0.0,0.0,0.0,0.0,0.0,0.0,0.0,0.0,0.0,0.0,0.0,0.0,0.0,0.0,0.0,0.0,0.0,0.0,0.0,0.0,0.0,0.0,0.0,0.0,0.0,0.0,0.0,0.0,0.0,0.0,0.0,0.0,0.0,0.0,0.0,0.0,0.0,0.0,0.0,0.0,0.0,0.0,0.0,0.0,0.0,0.0,0.0,0.0,0.0,0.0,0.0,0.0,0.0,0.0,0.0,0.0,0.0,0.0,0.0,0.0,0.0,0.0,0.0,0.0,0.0,0.0,0.0,0.0,0.0,0.0,0.0,0.0,0.0,0.0,0.0,0.0,0.0,0.0,0.0,0.0,0.0,0.0,0.0,0.0,0.0,0.0,0.0,0.0,0.0,0.0,0.0,0.0,0.0,0.0,0.0,0.0,0.0,0.0,-2.789,0.0,0.0,0.0,0.0,0.0,0.0,0.0,0.0,0.0,0.0,0.0,0.0,0.0,0.0,0.0,0.0,0.0,0.0,0.0,0.0,0.0,0.0,0.0,0.0,0.0,0.0,0.0,0.0,0.0,0.0,0.0,0.0,0.0,0.0,0.0,0.0,0.0,0.0,0.0,0.0,0.0,0.0,0.0,0.0,0.0,0.0,0.0,0.0,0.0,0.0,0.0,0.0,0.0,0.0,0.0,0.0,0.0,0.0,0.0,0.0,0.0,0.0,0.0,0.0,0.0,0.0,0.0,0.0,0.0,0.0,0.0,0.0,0.0,0.0,0.0,0.0,0.0,0.0,0.0,0.0,0.0,0.0,0.0,0.0,0.0,0.0,0.0,0.0,0.0,0.0,0.0,0.0,0.0,0.0,0.0,0.0,0.0,0.0,0.0,0.0,0.0,0.0,0.0,0.0,0.0,0.0,0.0,0.0,0.0,0.0,-2.5988,-2.6,-2.6176,-2.639,-2.6602,0.0,0.0,0.0,0.0,0.0,0.0,0.0,0.0,0.0,0.0,0.0,0.0,0.0,0.0,0.0,0.0,0.0,0.0,0.0,0.0,0.0,0.0,0.0,0.0,0.0,0.0,0.0,0.0,0.0,0.0,0.0,0.0,0.0,0.0,0.0,0.0,0.0,0.0,0.0,0.0,0.0,0.0,0.0,0.0,0.0,0.0,0.0,0.0,0.0,0.0,0.0,0.0,0.0,0.0,0.0,0.0,0.0,0.0,0.0,0.0,0.0,0.0,0.0,0.0,0.0,0.0,0.0,0.0,0.0,0.0,0.0,0.0,0.0,0.0,0.0,0.0,0.0,0.0,0.0,0.0,0.0,0.0,0.0,0.0,0.0,0.0,0.0,0.0,0.0,0.0,0.0,0.0,0.0,0.0,0.0,0.0,0.0,0.0,0.0,0.0,0.0,0.0,0.0,0.0,0.0,0.0,0.0,0.0,0.0,0.0,0.0,0.0,-2.5258,-2.5314,-2.5714,0.0,0.0,0.0,0.0,0.0,0.0,0.0,0.0,0.0,0.0,0.0,0.0,0.0,0.0,0.0,0.0,0.0,0.0,0.0,0.0,0.0,0.0,0.0,0.0,0.0,0.0,0.0,0.0,0.0,0.0,0.0,0.0,0.0,0.0,0.0,0.0,0.0,0.0,0.0,0.0,0.0,0.0,0.0,0.0,0.0,0.0,0.0,0.0,0.0,0.0,0.0,0.0,0.0,0.0,0.0,0.0,0.0,0.0,0.0,0.0,0.0,0.0,0.0,0.0,0.0,0.0,0.0,0.0,0.0,0.0,0.0,0.0,0.0,0.0,0.0,0.0,0.0,0.0,0.0,0.0,0.0,0.0,0.0,0.0,0.0,0.0,0.0,0.0,0.0,0.0,0.0,0.0,0.0,0.0,0.0,0.0,0.0,0.0,0.0,0.0,0.0,0.0,0.0,0.0,0.0,0.0,0.0,0.0,0.0,0.0,-2.5061,-2.5061,-2.537,0.0,-2.6133,0.0,0.0,0.0,0.0,0.0,0.0,0.0,0.0,0.0,0.0,0.0,0.0,0.0,0.0,0.0,0.0,0.0,0.0,0.0,0.0,0.0,0.0,0.0,0.0,0.0,0.0,0.0,0.0,0.0,0.0,0.0,0.0,0.0,0.0,0.0,0.0,0.0,0.0,0.0,0.0,0.0,0.0,0.0,0.0,0.0,0.0,0.0,0.0,0.0,0.0,0.0,0.0,0.0,0.0,0.0,0.0,0.0,0.0,0.0,0.0,0.0,0.0,0.0,0.0,0.0,0.0,0.0,0.0,0.0,0.0,0.0,0.0,0.0,0.0,0.0,0.0,0.0,0.0,0.0,0.0,0.0,0.0,0.0,0.0,0.0,0.0,0.0,0.0,0.0,0.0,0.0,0.0,0.0,0.0,0.0,0.0,0.0,0.0,0.0,0.0,0.0,0.0,0.0,0.0,0.0,0.0,0.0,0.0,0.0,0.0,-2.465,-2.4447,-2.4607,-2.4991,0.0,0.0,0.0,0.0,0.0,0.0,0.0,0.0,0.0,0.0,0.0,0.0,0.0,0.0,0.0,0.0,0.0,0.0,0.0,0.0,0.0,0.0,0.0,0.0,0.0,0.0,0.0,0.0,0.0,0.0,0.0,0.0,0.0,0.0,0.0,0.0,0.0,0.0,0.0,0.0,0.0,0.0,0.0,0.0,0.0,0.0,0.0,0.0,0.0,0.0,0.0,0.0,0.0,0.0,0.0,0.0,0.0,0.0,0.0,0.0,0.0,0.0,0.0,0.0,0.0,0.0,0.0,0.0,0.0,0.0,0.0,0.0,0.0,0.0,0.0,0.0,0.0,0.0,0.0,0.0,0.0,0.0,0.0,0.0,0.0,0.0,0.0,0.0,0.0,0.0,0.0,0.0,0.0,0.0,0.0,0.0,0.0,0.0,0.0,0.0,0.0,0.0,0.0,0.0,0.0,0.0,0.0,0.0,0.0,0.0,-2.4118,-2.393,-2.378,-2.3734,-2.4086,-2.4721,0.0,0.0,0.0,0.0,0.0,0.0,0.0,0.0,0.0,0.0,0.0,0.0,0.0,0.0,0.0,0.0,0.0,0.0,0.0,0.0,0.0,0.0,0.0,0.0,0.0,0.0,0.0,0.0,0.0,0.0,0.0,0.0,0.0,0.0,0.0,0.0,0.0,0.0,0.0,0.0,0.0,0.0,0.0,0.0,0.0,0.0,0.0,0.0,0.0,0.0,0.0,0.0,0.0,0.0,0.0,0.0,0.0,0.0,0.0,0.0,0.0,0.0,0.0,0.0,0.0,0.0,0.0,0.0,0.0,0.0,0.0,0.0,0.0,0.0,0.0,0.0,0.0,0.0,0.0,0.0,0.0,0.0,0.0,0.0,0.0,0.0,0.0,0.0,0.0,0.0,0.0,0.0,0.0,0.0,0.0,0.0,0.0,0.0,0.0,0.0,0.0,0.0,0.0,0.0,0.0,0.0,0.0,0.0,-2.4452,-2.342,-2.2882,-2.2882,-2.2882,-2.3267,0.0,0.0,0.0,0.0,0.0,0.0,0.0,0.0,0.0,0.0,0.0,0.0,0.0,0.0,0.0,0.0,0.0,0.0,0.0,0.0,0.0,0.0,0.0,0.0,0.0,0.0,0.0,0.0,0.0,0.0,0.0,0.0,0.0,0.0,0.0,0.0,0.0,0.0,0.0,0.0,0.0,0.0,0.0,0.0,0.0,0.0,0.0,0.0,0.0,0.0,0.0,0.0,0.0,0.0,0.0,0.0,0.0,0.0,0.0,0.0,0.0,0.0,0.0,0.0,0.0,0.0,0.0,0.0,0.0,0.0,0.0,0.0,0.0,0.0,0.0,0.0,0.0,0.0,0.0,0.0,0.0,0.0,0.0,0.0,0.0,0.0,0.0,0.0,0.0,0.0,0.0,0.0,0.0,0.0,0.0,0.0,0.0,0.0,0.0,0.0,0.0,0.0,0.0,0.0,0.0,0.0,0.0,0.0,0.0,-2.3433,-2.2518,-2.2224,-2.2652,-2.2652,-2.31,0.0,0.0,0.0,0.0,0.0,0.0,0.0,0.0,0.0,0.0,0.0,0.0,0.0,0.0,0.0,0.0,0.0,0.0,0.0,0.0,0.0,0.0,0.0,0.0,0.0,0.0,0.0,0.0,0.0,0.0,0.0,0.0,0.0,0.0,0.0,0.0,0.0,0.0,0.0,0.0,0.0,0.0,0.0,0.0,0.0,0.0,0.0,0.0,0.0,0.0,0.0,0.0,0.0,0.0,0.0,0.0,0.0,0.0,0.0,0.0,0.0,0.0,0.0,0.0,0.0,0.0,0.0,0.0,0.0,0.0,0.0,0.0,0.0,0.0,0.0,0.0,0.0,0.0,0.0,0.0,0.0,0.0,0.0,0.0,0.0,0.0,0.0,0.0,0.0,0.0,0.0,0.0,0.0,0.0,0.0,0.0,0.0,0.0,0.0,0.0,0.0,0.0,0.0,0.0,0.0,0.0,0.0,0.0,0.0,-2.2015,0.0,-2.1542,-2.2187,-2.2175,-2.275,0.0,0.0,0.0,0.0,0.0,0.0,0.0,0.0,0.0,0.0,0.0,0.0,0.0,0.0,0.0,0.0,0.0,0.0,0.0,0.0,0.0,0.0,0.0,0.0,0.0,0.0,0.0,0.0,0.0,0.0,0.0,0.0,0.0,0.0,0.0,0.0,0.0,0.0,0.0,0.0,0.0,0.0,0.0,0.0,0.0,0.0,0.0,0.0,0.0,0.0,0.0,0.0,0.0,0.0,0.0,0.0,0.0,0.0,0.0,0.0,0.0,0.0,0.0,0.0,0.0,0.0,0.0,0.0,0.0,0.0,0.0,0.0,0.0,0.0,0.0,0.0,0.0,0.0,0.0,0.0,0.0,0.0,0.0,0.0,0.0,0.0,0.0,0.0,0.0,0.0,0.0,0.0,0.0,0.0,0.0,0.0,0.0,0.0,0.0,0.0,0.0,0.0,0.0,0.0,0.0,0.0,0.0,0.0,-2.1842,-2.0386,-2.0333,-2.0655,-2.14,-2.1388,-2.2199,0.0,0.0,0.0,0.0,0.0,0.0,0.0,0.0,0.0,0.0,0.0,0.0,0.0,0.0,0.0,0.0,0.0,0.0,0.0,0.0,0.0,0.0,0.0,0.0,0.0,0.0,0.0,0.0,0.0,0.0,0.0,0.0,0.0,0.0,0.0,0.0,0.0,0.0,0.0,0.0,0.0,0.0,0.0,0.0,0.0,0.0,0.0,0.0,0.0,0.0,0.0,0.0,0.0,0.0,0.0,0.0,0.0,0.0,0.0,0.0,0.0,0.0,0.0,0.0,0.0,0.0,0.0,0.0,0.0,0.0,0.0,0.0,0.0,0.0,0.0,0.0,0.0,0.0,0.0,0.0,0.0,0.0,0.0,0.0,0.0,0.0,0.0,0.0,0.0,0.0,0.0,0.0,0.0,0.0,0.0,0.0,0.0,0.0,0.0,0.0,0.0,0.0,0.0,0.0,0.0,0.0,0.0,0.0,0.0,-2.0333,-1.9759,-1.9781,-2.0495,-2.0933,-2.1702,0.0,0.0,0.0,0.0,0.0,0.0,0.0,0.0,0.0,0.0,0.0,0.0,0.0,0.0,0.0,0.0,0.0,0.0,0.0,0.0,0.0,0.0,0.0,0.0,0.0,0.0,0.0,0.0,0.0,0.0,0.0,0.0,0.0,0.0,0.0,0.0,0.0,0.0,0.0,0.0,0.0,0.0,0.0,0.0,0.0,0.0,0.0,0.0,0.0,0.0,0.0,0.0,0.0,0.0,0.0,0.0,0.0,0.0,0.0,0.0,0.0,0.0,0.0,0.0,0.0,0.0,0.0,0.0,0.0,0.0,0.0,0.0,0.0,0.0,0.0,0.0,0.0,0.0,0.0,0.0,0.0,0.0,0.0,0.0,0.0,0.0,0.0,0.0,0.0,0.0,0.0,0.0,0.0,0.0,0.0,0.0,0.0,0.0,0.0,0.0,0.0,0.0,0.0,0.0,0.0,0.0,0.0,0.0,0.0,-1.9972,-1.9515,-1.9582,-2.0248,-2.0697,-2.1243,-2.2002,0.0,0.0,0.0,0.0,0.0,0.0,0.0,0.0,0.0,0.0,0.0,0.0,0.0,0.0,0.0,0.0,0.0,0.0,0.0,0.0,0.0,0.0,0.0,0.0,0.0,0.0,0.0,0.0,0.0,0.0,0.0,0.0,0.0,0.0,0.0,0.0,0.0,0.0,0.0,0.0,0.0,0.0,0.0,0.0,0.0,0.0,0.0,0.0,0.0,0.0,0.0,0.0,0.0,0.0,0.0,0.0,0.0,0.0,0.0,0.0,0.0,0.0,0.0,0.0,0.0,0.0,0.0,0.0,0.0,0.0,0.0,0.0,0.0,0.0,0.0,0.0,0.0,0.0,0.0,0.0,0.0,0.0,0.0,0.0,0.0,0.0,0.0,0.0,0.0,0.0,0.0,0.0,0.0,0.0,0.0,0.0,0.0,0.0,0.0,0.0,0.0,0.0,0.0,0.0,0.0,0.0,0.0,0.0,-1.9522,-1.9553,-1.982,-2.0465,-2.05,-2.0742,0.0,0.0,0.0,0.0,0.0,0.0,0.0,0.0,0.0,0.0,0.0,0.0,0.0,0.0,0.0,0.0,0.0,0.0,0.0,0.0,0.0,0.0,0.0,0.0,0.0,0.0,0.0,0.0,0.0,0.0,0.0,0.0,0.0,0.0,0.0,0.0,0.0,0.0,0.0,0.0,0.0,0.0,0.0,0.0,0.0,0.0,0.0,0.0,0.0,0.0,0.0,0.0,0.0,0.0,0.0,0.0,0.0,0.0,0.0,0.0,0.0,0.0,0.0,0.0,0.0,0.0,0.0,0.0,0.0,0.0,0.0,0.0,0.0,0.0,0.0,0.0,0.0,0.0,0.0,0.0,0.0,0.0,0.0,0.0,0.0,0.0,0.0,0.0,0.0,0.0,0.0,0.0,0.0,0.0,0.0,0.0,0.0,0.0,0.0,0.0,0.0,0.0,0.0,0.0,0.0,0.0,0.0,0.0,0.0,-1.9399,-1.981,-2.0101,-2.0184,-2.0408,-2.0628,0.0,0.0,0.0,0.0,0.0,0.0,0.0,0.0,0.0,0.0,0.0,0.0,0.0,0.0,0.0,0.0,0.0,0.0,0.0,0.0,0.0,0.0,0.0,0.0,0.0,0.0,0.0,0.0,0.0,0.0,0.0,0.0,0.0,0.0,0.0,0.0,0.0,0.0,0.0,0.0,0.0,0.0,0.0,0.0,0.0,0.0,0.0,0.0,0.0,0.0,0.0,0.0,0.0,0.0,0.0,0.0,0.0,0.0,0.0,0.0,0.0,0.0,0.0,0.0,0.0,0.0,0.0,0.0,0.0,0.0,0.0,0.0,0.0,0.0,0.0,0.0,0.0,0.0,0.0,0.0,0.0,0.0,0.0,0.0,0.0,0.0,0.0,0.0,0.0,0.0,0.0,0.0,0.0,0.0,0.0,0.0,0.0,0.0,0.0,0.0,0.0,0.0,0.0,0.0,0.0,0.0,0.0,0.0,-1.9483,-1.9442,-2.0127,-2.0552,-2.0579,-2.0308,-2.0291,0.0,0.0,0.0,0.0,0.0,0.0,0.0,0.0,0.0,0.0,0.0,0.0,0.0,0.0,0.0,0.0,0.0,0.0,0.0,0.0,0.0,0.0,0.0,0.0,0.0,0.0,0.0,0.0,0.0,0.0,0.0,0.0,0.0,0.0,0.0,0.0,0.0,0.0,0.0,0.0,0.0,0.0,0.0,0.0,0.0,0.0,0.0,0.0,0.0,0.0,0.0,0.0,0.0,0.0,0.0,0.0,0.0,0.0,0.0,0.0,0.0,0.0,0.0,0.0,0.0,0.0,0.0,0.0,0.0,0.0,0.0,0.0,0.0,0.0,0.0,0.0,0.0,0.0,0.0,0.0,0.0,0.0,0.0,0.0,0.0,0.0,0.0,0.0,0.0,0.0,0.0,0.0,0.0,0.0,0.0,0.0,0.0,0.0,0.0,0.0,0.0,0.0,0.0,0.0,0.0,0.0,0.0,0.0,-1.9773,-1.9677,-2.048,-2.0984,-2.1098,-2.0266,-1.9819,0.0,0.0,0.0,0.0,0.0,0.0,0.0,0.0,0.0,0.0,0.0,0.0,0.0,0.0,0.0,0.0,0.0,0.0,0.0,0.0,0.0,0.0,0.0,0.0,0.0,0.0,0.0,0.0,0.0,0.0,0.0,0.0,0.0,0.0,0.0,0.0,0.0,0.0,0.0,0.0,0.0,0.0,0.0,0.0,0.0,0.0,0.0,0.0,0.0,0.0,0.0,0.0,0.0,0.0,0.0,0.0,0.0,0.0,0.0,0.0,0.0,0.0,0.0,0.0,0.0,0.0,0.0,0.0,0.0,0.0,0.0,0.0,0.0,0.0,0.0,0.0,0.0,0.0,0.0,0.0,0.0,0.0,0.0,0.0,0.0,0.0,0.0,0.0,0.0,0.0,0.0,0.0,0.0,0.0,0.0,0.0,0.0,0.0,0.0,0.0,0.0,0.0,0.0,0.0,0.0,0.0,0.0,0.0,-1.9527,-1.986,-2.0379,-2.0731,-2.0984,-2.0192,-1.9961,0.0,0.0,0.0,0.0,0.0,0.0,0.0,0.0,0.0,0.0,0.0,0.0,0.0,0.0,0.0,0.0,0.0,0.0,0.0,0.0,0.0,0.0,0.0,0.0,0.0,0.0,0.0,0.0,0.0,0.0,0.0,0.0,0.0,0.0,0.0,0.0,0.0,0.0,0.0,0.0,0.0,0.0,0.0,0.0,0.0,0.0,0.0,0.0,-2.1095,0.0,0.0,0.0,0.0,0.0,0.0,0.0,0.0,0.0,0.0,0.0,0.0,0.0,0.0,0.0,0.0,0.0,0.0,0.0,0.0,0.0,0.0,0.0,0.0,0.0,0.0,0.0,0.0,0.0,0.0,0.0,0.0,0.0,0.0,0.0,0.0,0.0,0.0,0.0,0.0,0.0,0.0,0.0,0.0,0.0,0.0,0.0,0.0,0.0,0.0,0.0,0.0,0.0,0.0,0.0,0.0,0.0,0.0,0.0,-1.9482,-1.9912,-2.0342,-2.0731,-2.1031,-2.0466,-2.0151,0.0,0.0,0.0,0.0,0.0,0.0,0.0,0.0,0.0,0.0,0.0,0.0,0.0,0.0,0.0,0.0,0.0,0.0,0.0,0.0,0.0,0.0,0.0,0.0,0.0,0.0,0.0,0.0,0.0,0.0,0.0,0.0,0.0,0.0,0.0,0.0,0.0,0.0,0.0,0.0,0.0,0.0,0.0,0.0,0.0,0.0,0.0,0.0,0.0,0.0,0.0,0.0,0.0,0.0,0.0,0.0,0.0,0.0,0.0,0.0,0.0,0.0,0.0,0.0,0.0,0.0,0.0,0.0,0.0,0.0,0.0,0.0,0.0,0.0,0.0,0.0,0.0,0.0,0.0,0.0,0.0,0.0,0.0,0.0,0.0,0.0,0.0,0.0,0.0,0.0,0.0,0.0,0.0,0.0,0.0,0.0,0.0,0.0,0.0,0.0,0.0,0.0,0.0,0.0,0.0,0.0,0.0,-1.9102,-1.9521,-2.0,-2.0371,-2.0799,-2.1118,-2.0697,-2.0394,-2.0298,0.0,0.0,0.0,0.0,0.0,0.0,0.0,0.0,0.0,0.0,0.0,0.0,0.0,0.0,0.0,0.0,0.0,0.0,0.0,0.0,0.0,0.0,0.0,0.0,0.0,0.0,0.0,0.0,0.0,0.0,0.0,0.0,0.0,0.0,0.0,0.0,0.0,0.0,-1.4385,-1.5409,0.0,0.0,0.0,0.0,0.0,0.0,0.0,0.0,-2.0258,0.0,0.0,0.0,0.0,0.0,0.0,0.0,0.0,0.0,0.0,0.0,0.0,0.0,0.0,0.0,0.0,0.0,0.0,0.0,0.0,0.0,0.0,0.0,0.0,0.0,0.0,0.0,0.0,0.0,0.0,0.0,0.0,0.0,0.0,0.0,0.0,0.0,0.0,0.0,0.0,0.0,0.0,0.0,0.0,0.0,0.0,0.0,0.0,0.0,0.0,0.0,0.0,0.0,0.0,0.0,0.0,-1.917,-1.9258,-1.9668,-2.043,-2.0527,-2.0731,-2.0974,-2.0621,-2.0687,-2.1009,0.0,0.0,0.0,0.0,0.0,0.0,0.0,0.0,0.0,0.0,0.0,0.0,0.0,0.0,0.0,0.0,0.0,0.0,0.0,0.0,0.0,0.0,0.0,0.0,0.0,0.0,0.0,0.0,0.0,0.0,0.0,0.0,0.0,0.0,0.0,0.0,0.0,0.0,0.0,-1.6431,-1.7278,0.0,0.0,0.0,0.0,0.0,0.0,0.0,0.0,-2.1352,0.0,0.0,0.0,0.0,0.0,0.0,0.0,0.0,0.0,0.0,0.0,0.0,0.0,0.0,0.0,0.0,0.0,0.0,0.0,0.0,0.0,0.0,0.0,0.0,0.0,0.0,0.0,0.0,0.0,0.0,0.0,0.0,0.0,0.0,0.0,0.0,0.0,0.0,0.0,0.0,0.0,0.0,0.0,0.0,0.0,0.0,0.0,0.0,0.0,0.0,0.0,0.0,0.0,0.0,0.0,-1.9258,-1.9502,-1.9922,-2.0537,-2.0576,-2.0731,-2.1041,-2.1043,-2.1301,0.0,0.0,0.0,0.0,0.0,0.0,0.0,0.0,0.0,0.0,0.0,0.0,0.0,0.0,0.0,0.0,0.0,0.0,0.0,0.0,0.0,0.0,0.0,0.0,0.0,0.0,0.0,0.0,0.0,0.0,0.0,0.0,0.0,0.0,0.0,0.0,0.0,0.0,0.0,0.0,-1.6938,-1.7534,-1.8916,0.0,0.0,0.0,0.0,0.0,0.0,-2.046,-2.0984,0.0,0.0,0.0,0.0,0.0,0.0,0.0,0.0,0.0,0.0,0.0,0.0,0.0,0.0,0.0,0.0,0.0,0.0,0.0,0.0,0.0,0.0,0.0,0.0,0.0,0.0,0.0,0.0,0.0,0.0,0.0,0.0,0.0,0.0,0.0,0.0,0.0,0.0,0.0,0.0,0.0,0.0,0.0,0.0,0.0,0.0,0.0,0.0,0.0,0.0,0.0,0.0,0.0,0.0,0.0,-1.9287,-1.9697,-2.0117,-2.0547,-2.0576,-2.0809,-2.1195,-2.1312,-2.1674,0.0,0.0,0.0,0.0,0.0,0.0,0.0,0.0,0.0,0.0,0.0,0.0,0.0,0.0,0.0,0.0,0.0,0.0,0.0,0.0,0.0,0.0,0.0,0.0,0.0,0.0,0.0,0.0,0.0,0.0,0.0,0.0,0.0,0.0,0.0,0.0,0.0,0.0,0.0,0.0,0.0,-1.7868,-1.919,-1.8971,0.0,0.0,0.0,0.0,-1.9926,-2.0243,0.0,0.0,0.0,0.0,0.0,0.0,0.0,0.0,0.0,0.0,0.0,0.0,0.0,0.0,0.0,0.0,0.0,0.0,0.0,0.0,0.0,0.0,0.0,0.0,0.0,0.0,0.0,0.0,0.0,0.0,0.0,0.0,0.0,0.0,0.0,0.0,0.0,0.0,0.0,0.0,0.0,0.0,0.0,0.0,0.0,0.0,0.0,0.0,0.0,0.0,0.0,0.0,0.0,0.0,0.0,0.0,-1.9287,-1.9697,-2.0117,-2.0547,-2.0566,-2.0799,-2.1195,-2.1021,-2.1371,0.0,0.0,0.0,0.0,0.0,0.0,0.0,0.0,0.0,0.0,0.0,0.0,0.0,0.0,0.0,0.0,0.0,0.0,0.0,0.0,0.0,0.0,0.0,0.0,0.0,0.0,0.0,0.0,0.0,0.0,0.0,0.0,0.0,0.0,0.0,0.0,0.0,0.0,0.0,0.0,0.0,-1.8432,-1.9541,-1.928,-1.9136,0.0,0.0,-1.9765,-1.992,-2.1081,0.0,0.0,0.0,0.0,0.0,0.0,0.0,0.0,0.0,0.0,0.0,0.0,0.0,0.0,0.0,0.0,0.0,0.0,0.0,0.0,0.0,0.0,0.0,0.0,0.0,0.0,0.0,0.0,0.0,0.0,0.0,0.0,0.0,0.0,0.0,0.0,0.0,0.0,0.0,0.0,0.0,0.0,0.0,0.0,0.0,0.0,0.0,0.0,0.0,0.0,0.0,0.0,0.0,0.0,0.0,-1.9092,-1.9307,-1.9941,-2.0371,-2.0634,-2.0722,-2.1118,-2.1852,-2.1661,-2.2127,0.0,0.0,0.0,0.0,0.0,0.0,0.0,0.0,0.0,0.0,0.0,0.0,0.0,0.0,0.0,0.0,0.0,0.0,0.0,0.0,0.0,0.0,0.0,0.0,0.0,0.0,0.0,0.0,0.0,0.0,0.0,0.0,0.0,0.0,0.0,0.0,0.0,0.0,0.0,0.0,0.0,0.0,-1.9364,-1.9535,0.0,0.0,0.0,-1.9977,-1.9635,0.0,0.0,0.0,0.0,0.0,0.0,0.0,0.0,0.0,0.0,0.0,0.0,0.0,0.0,0.0,0.0,0.0,0.0,0.0,0.0,0.0,0.0,0.0,0.0,0.0,0.0,0.0,0.0,0.0,0.0,0.0,0.0,0.0,0.0,0.0,0.0,0.0,0.0,0.0,0.0,0.0,0.0,0.0,0.0,0.0,0.0,0.0,0.0,0.0,0.0,0.0,0.0,0.0,0.0,0.0,0.0,0.0,-1.9297,-2.0019,-2.0554,-2.0708,-2.0761,-2.1347,-2.2466,-2.2506,0.0,0.0,0.0,0.0,0.0,0.0,0.0,0.0,0.0,0.0,0.0,0.0,0.0,0.0,0.0,0.0,0.0,0.0,0.0,0.0,0.0,0.0,0.0,0.0,0.0,0.0,0.0,-2.1197,0.0,0.0,0.0,0.0,0.0,0.0,0.0,0.0,0.0,0.0,0.0,0.0,0.0,0.0,-1.9086,-1.9465,-1.9835,-2.0258,0.0,0.0,-2.04,-2.0014,-2.1807,-2.2742,0.0,0.0,0.0,0.0,0.0,0.0,0.0,0.0,0.0,0.0,0.0,0.0,0.0,0.0,0.0,0.0,0.0,0.0,0.0,0.0,0.0,0.0,0.0,0.0,0.0,0.0,0.0,0.0,0.0,0.0,0.0,0.0,0.0,0.0,0.0,0.0,0.0,0.0,0.0,0.0,0.0,0.0,0.0,0.0,0.0,0.0,0.0,0.0,0.0,0.0,0.0,0.0,0.0,0.0,-1.9277,-1.9297,-1.9727,-2.0252,-2.0892,-2.071,-2.1336,-2.27,-2.3097,-2.3411,0.0,0.0,0.0,0.0,0.0,0.0,0.0,0.0,0.0,0.0,0.0,0.0,0.0,0.0,0.0,0.0,0.0,0.0,0.0,0.0,0.0,0.0,0.0,0.0,0.0,0.0,0.0,0.0,0.0,0.0,0.0,0.0,0.0,0.0,0.0,0.0,0.0,0.0,0.0,0.0,0.0,-1.9068,-2.0065,-2.0438,-2.0948,0.0,0.0,-2.1306,-2.1684,-2.3143,-2.3732,-2.2139,0.0,0.0,0.0,0.0,0.0,0.0,0.0,0.0,0.0,0.0,0.0,0.0,0.0,0.0,0.0,0.0,0.0,0.0,0.0,0.0,0.0,0.0,0.0,0.0,0.0,0.0,0.0,0.0,0.0,0.0,0.0,0.0,0.0,0.0,0.0,0.0,0.0,0.0,0.0,0.0,0.0,0.0,0.0,0.0,0.0,0.0,0.0,0.0,0.0,0.0,0.0,0.0,0.0,-1.876,-1.8516,-1.9593,-2.0369,-2.072,-2.1182,-2.1929,-2.3109,-2.3155,-2.3478,0.0,0.0,0.0,0.0,0.0,0.0,0.0,0.0,0.0,0.0,0.0,0.0,0.0,0.0,0.0,0.0,0.0,0.0,0.0,0.0,0.0,0.0,0.0,0.0,0.0,0.0,0.0,0.0,-2.0722,-2.0017,-1.8733,0.0,0.0,0.0,0.0,0.0,0.0,0.0,0.0,0.0,0.0,-1.9445,-2.0522,-2.0922,0.0,0.0,-2.1952,-2.1934,-2.2179,-2.2979,-2.3452,-2.29,-2.3133,0.0,0.0,0.0,0.0,0.0,0.0,0.0,0.0,0.0,0.0,0.0,0.0,0.0,0.0,0.0,0.0,0.0,0.0,0.0,0.0,0.0,0.0,0.0,0.0,0.0,0.0,0.0,0.0,0.0,0.0,0.0,0.0,0.0,0.0,0.0,0.0,0.0,0.0,0.0,0.0,0.0,0.0,0.0,0.0,0.0,0.0,0.0,0.0,0.0,0.0,0.0,0.0,-1.8487,-1.8279,-1.9543,-2.0393,-2.1021,-2.1553,-2.2359,-2.337,-2.3433,-2.3704,0.0,0.0,0.0,0.0,0.0,0.0,0.0,0.0,0.0,0.0,0.0,0.0,0.0,0.0,0.0,0.0,0.0,0.0,0.0,0.0,0.0,0.0,0.0,0.0,0.0,0.0,0.0,0.0,-2.1073,-2.0149,-1.8733,0.0,0.0,0.0,0.0,0.0,0.0,0.0,0.0,0.0,0.0,-2.0042,-2.0773,-2.1175,-2.1504,-2.1832,-2.1887,-2.187,-2.212,-2.2855,-2.3481,-2.3436,0.0,0.0,0.0,0.0,0.0,0.0,0.0,0.0,0.0,0.0,0.0,0.0,0.0,0.0,0.0,0.0,0.0,0.0,0.0,0.0,0.0,0.0,0.0,0.0,0.0,0.0,0.0,0.0,0.0,0.0,-1.8008,0.0,0.0,0.0,0.0,0.0,0.0,0.0,0.0,0.0,0.0,0.0,0.0,0.0,0.0,0.0,0.0,0.0,0.0,0.0,0.0,0.0,0.0,-1.8735,-1.8977,-1.9489,-2.0479,-2.187,-2.1719,-2.2312,-2.3641,-2.3979,-2.4227,-2.4387,0.0,0.0,0.0,0.0,0.0,0.0,0.0,0.0,0.0,0.0,0.0,0.0,0.0,0.0,0.0,0.0,0.0,0.0,0.0,0.0,0.0,0.0,0.0,0.0,0.0,0.0,-1.9425,-1.8873,-1.8723,0.0,0.0,0.0,0.0,0.0,0.0,0.0,0.0,0.0,0.0,-1.9984,-2.0829,-2.0838,-2.1024,-2.1296,-2.1278,-2.1104,-2.1167,-2.1605,-2.3148,-2.4235,0.0,0.0,0.0,0.0,0.0,0.0,0.0,0.0,0.0,0.0,0.0,0.0,0.0,0.0,0.0,0.0,0.0,0.0,0.0,0.0,0.0,0.0,0.0,0.0,0.0,0.0,0.0,-1.8428,-1.8428,0.0,0.0,0.0,0.0,0.0,0.0,0.0,0.0,0.0,0.0,0.0,-1.9062,-1.9072,0.0,0.0,0.0,0.0,0.0,0.0,0.0,0.0,0.0,0.0,0.0,0.0,-1.8359,-1.8279,-1.9921,-2.1118,-2.1748,-2.2234,-2.2727,-2.3292,-2.3609,-2.391,-2.4222,0.0,0.0,0.0,0.0,0.0,0.0,0.0,0.0,0.0,0.0,0.0,0.0,0.0,0.0,0.0,0.0,0.0,0.0,0.0,0.0,0.0,0.0,0.0,0.0,0.0,-2.2097,0.0,0.0,0.0,0.0,0.0,0.0,0.0,0.0,0.0,0.0,0.0,-1.9183,-1.9976,-2.0546,-2.1332,-2.2706,-2.295,-2.3196,0.0,0.0,0.0,0.0,0.0,0.0,0.0,0.0,0.0,0.0,0.0,0.0,0.0,0.0,-2.3941,-2.2907,-2.3003,-2.3244,-2.3232,0.0,0.0,0.0,0.0,0.0,0.0,0.0,0.0,0.0,0.0,0.0,0.0,0.0,0.0,-1.8769,0.0,-1.8799,0.0,0.0,0.0,0.0,0.0,0.0,0.0,0.0,-1.917,-1.9375,-1.9502,-1.9502,-1.9502,0.0,-1.9355,-1.8994,0.0,0.0,0.0,0.0,0.0,0.0,0.0,0.0,-1.847,-1.8609,-2.0432,-2.1639,-2.2063,-2.2592,-2.2969,-2.3198,-2.3522,-2.3909,-2.44,-2.4583,-2.4687,0.0,0.0,0.0,0.0,0.0,0.0,0.0,0.0,0.0,0.0,0.0,0.0,0.0,0.0,0.0,0.0,0.0,0.0,0.0,0.0,0.0,0.0,0.0,-2.1973,0.0,0.0,0.0,0.0,0.0,0.0,0.0,0.0,0.0,-1.8614,-1.9527,-2.0637,-2.1507,-2.1941,-2.2553,-2.3534,0.0,0.0,0.0,0.0,0.0,0.0,0.0,-2.4393,-2.5283,-2.5154,-2.5095,-2.5769,-2.5564,-2.5312,-2.5312,0.0,0.0,-2.4013,-2.4061,-2.4314,-2.4302,-2.4169,-2.4037,-2.4037,-2.3893,-2.3839,0.0,0.0,0.0,0.0,0.0,0.0,0.0,0.0,-1.9307,-1.9082,0.0,-1.9131,0.0,0.0,0.0,0.0,0.0,-1.9072,0.0,0.0,-2.0137,-2.0322,-1.9951,-1.9932,-1.9932,-1.9902,-1.9531,-1.9419,-1.9399,-1.938,0.0,0.0,0.0,0.0,0.0,0.0,-1.8949,-1.9877,-2.0938,-2.1901,-2.2848,-2.2921,-2.303,-2.339,-2.3713,-2.4196,-2.4883,-2.4439,-2.4661,-2.5707,-2.4766,0.0,0.0,0.0,0.0,0.0,0.0,0.0,0.0,0.0,0.0,0.0,0.0,0.0,0.0,0.0,0.0,0.0,0.0,0.0,0.0,-2.1958,0.0,0.0,0.0,0.0,0.0,0.0,0.0,0.0,0.0,0.0,-2.0462,-2.1492,-2.2498,-2.3011,0.0,0.0,0.0,0.0,-2.3861,-2.2929,-2.2756,-2.2777,-2.2874,-2.4071,-2.5148,-2.5643,0.0,0.0,-2.7031,-2.6105,-2.548,-2.5432,-2.5901,-2.6009,-2.5528,-2.5396,-2.536,-2.5348,-2.4987,-2.4638,-2.4578,-2.4442,-2.4159,-1.6037,0.0,0.0,0.0,0.0,-1.8885,-1.9336,-1.9736,-1.9736,-1.9668,-1.9551,-1.9678,0.0,0.0,0.0,0.0,0.0,0.0,-1.9443,-1.9736,-2.0,-2.0195,-2.0381,-2.0381,-2.0381,-2.0371,-2.0254,-2.05,-2.1063,-2.0683,-1.9645,-1.8018,0.0,0.0,0.0,0.0,-1.981,-2.0484,-2.1801,-2.2592,-2.2909,-2.2957,-2.321,-2.3509,-2.376,-2.4027,-2.4347,-2.4596,-2.487,-2.5197,-2.5301,0.0,0.0,0.0,0.0,0.0,0.0,0.0,0.0,0.0,0.0,0.0,0.0,0.0,0.0,0.0,0.0,0.0,0.0,0.0,-2.3171,-2.3043,-2.248,0.0,0.0,0.0,0.0,0.0,0.0,0.0,0.0,0.0,-2.3616,-2.3367,-2.2972,0.0,0.0,-2.3977,-2.3687,-2.4688,-2.5581,-2.5674,-2.5686,0.0,0.0,-2.6288,-2.6356,-2.651,-2.7215,-2.7669,-2.7524,-2.7548,-2.7596,-2.7584,-2.7717,-2.7765,-2.7596,-2.6959,-2.6514,-2.638,-2.6346,-2.6238,-2.6226,-2.6528,-2.6822,-1.7092,-1.7911,-1.8154,-1.849,-1.8938,-1.9383,-1.9775,-2.0166,-2.0166,-2.0078,-1.9932,-2.0098,-1.9844,-1.9277,-1.9277,0.0,0.0,0.0,-1.9766,-2.0176,-2.0166,-2.0312,-2.0557,-2.0576,-2.0789,-2.1088,-2.1088,-2.1461,-2.2274,-2.17,-2.066,-1.9235,0.0,0.0,-1.8687,-1.9755,-2.0618,-2.1296,-2.231,-2.2909,-2.2957,-2.321,-2.3437,-2.37,-2.3878,-2.4008,-2.4125,-2.4439,-2.4726,-2.5022,-2.5301,-2.5432,0.0,0.0,0.0,0.0,0.0,0.0,0.0,0.0,0.0,0.0,0.0,-2.4075,-2.3502,0.0,0.0,0.0,-2.3808,-2.3615,-2.3357,-2.318,0.0,0.0,0.0,0.0,0.0,0.0,0.0,-2.2268,-2.3582,-2.4762,-2.5368,-2.5089,-2.4745,-2.452,-2.4952,-2.5268,-2.5059,0.0,-2.6791,-2.6923,-2.6923,-2.7043,-2.7356,-2.732,-2.732,-2.7524,-2.7813,-2.8029,-2.8041,-2.8306,-2.851,-2.851,-2.851,-2.851,-2.851,-2.8191,-2.7995,-2.7983,-2.7812,-2.7677,-2.7665,-2.8136,-2.8431,-1.8028,-1.9204,-1.8598,-1.9014,-1.9961,-1.9961,-2.0195,-2.0566,-2.0566,-2.0342,-2.0,-2.0391,-2.0127,-1.9404,-1.9385,0.0,-1.9961,-1.9971,-2.0176,-2.0566,-2.0576,-2.0634,-2.0712,-2.0712,-2.1088,-2.1918,-2.1907,-2.2274,-2.3051,-2.241,-2.1834,-2.1319,-2.0716,-2.0251,-1.9983,-2.0629,-2.1379,-2.2101,-2.2586,-2.2907,-2.3138,-2.345,-2.37,-2.3891,-2.4067,-2.4125,-2.4125,-2.4125,-2.4387,-2.4983,-2.4975,-2.5223,-2.5759,0.0,0.0,0.0,0.0,0.0,0.0,0.0,0.0,0.0,0.0,0.0,0.0,0.0,0.0,0.0,-2.4222,0.0,-2.3899,-2.2827,0.0,0.0,0.0,-2.1373,-2.1885,-2.2969,-2.3711,-2.3711,0.0,0.0,-2.6263,-2.6688,-2.7191,-2.7711,-2.7705,-2.7399,-2.6832,-2.7268,-2.7536,-2.7079,-2.7055,-2.6992,-2.7224,-2.7524,-2.7921,-2.833,-2.851,-2.8486,-2.8474,-2.8498,-2.851,-2.851,-2.851,-2.851,-2.8578,-2.9135,-2.9768,-2.9872,-2.9429,-2.9101,-2.9113,-2.9349,-2.9287,-1.8345,-1.881,-1.9681,-2.0168,-2.041,-2.041,-2.0469,-2.0566,-2.0576,-2.0508,-2.042,-2.0595,-2.0449,-2.0254,-2.0254,-2.0322,-2.041,-2.042,-2.0459,-2.0566,-2.0576,-2.0944,-2.1538,-2.1538,-2.1907,-2.266,-2.2723,-2.318,-2.4002,-2.311,-2.2709,-2.2855,-2.2066,-2.1152,-2.01,-2.0867,-2.1506,-2.2089,-2.233,-2.2723,-2.3318,-2.3641,-2.3832,-2.3891,-2.4067,-2.4125,-2.4125,-2.4125,-2.4374,-2.4936,-2.4975,-2.5236,-2.5772,-2.5275,0.0,0.0,0.0,0.0,0.0,0.0,0.0,0.0,0.0,-2.3914,-2.3376,0.0,-2.3979,0.0,-2.4345,-2.4553,-2.435,-2.4082,0.0,0.0,-2.3573,-2.3706,-2.3836,-2.4791,-2.5493,-2.5505,-2.6178,-2.6857,-2.726,-2.7411,-2.7711,-2.8203,-2.7633,-2.6752,-2.5977,-2.6895,-2.7681,-2.7596,-2.7849,-2.8126,-2.8102,-2.8234,-2.8354,-2.8498,-2.851,-2.851,-2.851,-2.851,-2.851,-2.851,-2.851,-2.8724,-2.9328,-2.9626,-3.0228,-3.1193,-3.0926,-3.0452,-3.0443,-3.09,-3.1227,-1.8455,-1.8958,-1.9701,-2.0255,-2.0576,-2.0576,-2.0576,-2.0576,-2.0576,-2.0576,-2.0576,-2.0576,-2.0576,-2.0576,-2.0576,-2.0576,-2.0576,-2.0576,-2.0576,-2.0576,-2.0576,-2.1011,-2.1756,-2.1756,-2.2424,-2.3463,-2.3621,-2.4059,-2.4886,-2.4253,-2.3941,-2.3949,-2.3244,-2.2293,-2.1156,-2.1324,-2.1544,-2.1831,-2.2196,-2.2774,-2.3484,-2.376,-2.382,-2.3631,-2.3676,-2.3589,-2.3354,-2.3454,-2.373,-2.4151,-2.4294,-2.4688,-2.538,-2.4896,-2.47,0.0,0.0,0.0,0.0,0.0,0.0,0.0,0.0,0.0,0.0,0.0,-2.4241,-2.3974,-2.4396,-2.457,-2.4206,-2.4386,-2.4506,-2.4458,-2.4915,-2.5324,-2.5564,-2.6322,-2.6815,-2.6827,-2.7296,-2.7753,-2.8041,-2.8076,-2.814,-2.8498,-2.8005,-2.7389,-2.6976,-2.7573,-2.8065,-2.8102,-2.8318,-2.851,-2.851,-2.851,-2.851,-2.851,-2.851,-2.851,-2.851,-2.8816,-2.904,-2.9028,-2.9328,-2.9704,-3.0139,-3.0519,-3.1053,-3.1401,-3.1694,-3.1514,-3.1132,-3.175,-3.2058,-1.8506,-1.9384,-1.9399,-1.9932,-2.0644,-2.0644,-2.0644,-2.0576,-2.0576,-2.0576,-2.0634,-2.0644,-2.0644,-2.0634,-2.0644,-2.0644,-2.0634,-2.0644,-2.0644,-2.0634,-2.0712,-2.1242,-2.1983,-2.2124,-2.2936,-2.4337,-2.4492,-2.4898,-2.5554,-2.5314,-2.4946,-2.4337,-2.3979,-2.3251,-2.2234,-2.1732,-2.1536,-2.1549,-2.2274,-2.2968,-2.35,-2.3638,-2.354,-2.3132,-2.3106,-2.2871,-2.2441,-2.2603,-2.288,-2.3184,-2.3421,-2.4002,-2.5035,-2.4543,-2.4517,0.0,-2.4648,0.0,0.0,0.0,0.0,0.0,0.0,0.0,0.0,-2.4755,-2.4651,-2.4386,-2.4468,-2.4398,-2.4085,-2.4458,-2.4939,-2.5468,-2.5985,-2.6502,-2.6908,-2.75,-2.7813,-2.7825,-2.8222,-2.8498,-2.8378,-2.8378,-2.8421,-2.8246,-2.8174,-2.8138,-2.8366,-2.8414,-2.8474,-2.851,-2.851,-2.851,-2.851,-2.851,-2.851,-2.851,-2.8669,-2.8669,-2.8736,-2.9328,-2.9858,-2.9909,-3.029,-3.0751,-3.0926,-3.1508,-3.1724,-3.143,-3.1888,-3.2137,-3.1544,-3.1856,-3.1931,-1.9515,-1.9769,-2.0153,-2.0566,-2.0829,-2.0829,-2.0741,-2.0566,-2.0576,-2.0576,-2.0644,-2.0731,-2.0741,-2.0644,-2.0741,-2.0741,-2.0634,-2.0741,-2.0741,-2.0644,-2.1375,-2.2188,-2.2936,-2.3745,-2.4636,-2.5535,-2.5618,-2.5526,-2.5358,-2.4892,-2.4188,-2.3391,-2.284,-2.2355,-2.1825,0.0,0.0,0.0,-2.2475,-2.2992,-2.3083,-2.2825,-2.2635,-2.2585,-2.2572,0.0,-2.2428,-2.2441,-2.2716,-2.3171,-2.3267,0.0,0.0,0.0,0.0,0.0,0.0,0.0,0.0,0.0,0.0,0.0,-2.4963,-2.4899,-2.4808,-2.4703,-2.476,-2.4902,-2.4822,-2.4981,-2.5576,-2.5733,-2.6021,-2.6574,-2.7091,-2.7464,-2.7584,-2.8029,-2.8366,-2.8366,-2.845,-2.8342,-2.7933,-2.7888,-2.7657,-2.7332,-2.7248,-2.7416,-2.7813,-2.8198,-2.8486,-2.851,-2.8426,-2.8486,-2.851,-2.8462,-2.856,-2.859,-2.9106,-2.9381,-2.9499,-3.0101,-3.0719,-3.083,-3.059,-3.0639,-3.1341,-3.124,-3.1198,-3.1692,-3.1877,-3.1948,-3.169,-3.1843,-3.1797,-1.995,0.0,-2.0586,-2.0819,0.0,-2.0984,-2.0974,-2.0896,-2.0886,-2.0876,-2.0886,-2.0974,-2.0974,-2.0886,-2.0974,-2.0974,-2.0886,-2.0974,-2.0984,-2.0964,-2.1395,-2.2199,-2.3368,-2.3891,-2.4719,-2.5898,-2.5709,-2.5494,-2.5252,-2.4613,-2.3991,-2.3552,-2.3059,-2.2703,-2.254,-2.2725,-2.2642,-2.2235,-2.2729,-2.3153,-2.3425,-2.3324,-2.3093,-2.2805,0.0,0.0,0.0,0.0,0.0,0.0,0.0,0.0,0.0,0.0,0.0,-2.6177,-2.5981,-2.5892,-2.6089,-2.6064,-2.5987,-2.5996,-2.5889,-2.563,-2.5234,-2.534,-2.5425,-2.5617,-2.5355,-2.5533,-2.6311,-2.6554,-2.6868,-2.74,-2.7932,-2.8246,-2.8258,-2.8246,-2.8258,-2.8246,-2.8005,-2.7699,-2.738,-2.7318,-2.7172,-2.6923,-2.6923,-2.7158,-2.7639,-2.7779,-2.7729,-2.7729,-2.8013,-2.8231,-2.8319,-2.8674,-2.8825,-2.89,-2.9187,-2.9484,-2.9397,-3.0072,-3.065,-3.0824,-3.0864,-3.1172,-3.1581,-3.1531,-3.1316,-3.1468,-3.1511,-3.1461,-3.1141,-3.1325,-3.1415,-2.0245,-2.0644,-2.0829,-2.0906,-2.0974,-2.1205,-2.1282,-2.1282,0.0,0.0,0.0,-2.1205,-2.1205,-2.1215,-2.1205,-2.1205,-2.1215,-2.1282,-2.1205,-2.1205,-2.1436,-2.222,-2.3526,-2.3756,-2.4564,-2.5943,-2.5562,-2.5294,-2.5182,-2.4417,-2.4003,-2.3878,-2.3558,-2.3463,-2.3522,-2.3772,-2.3658,-2.3077,-2.2992,-2.3301,-2.3768,-2.3806,-2.3563,-2.308,-2.3067,-2.2997,-2.2804,-2.2804,-2.335,-2.4443,-2.4392,-2.4775,-2.5887,-2.5879,-2.5879,-2.6073,-2.6112,-2.6334,-2.6791,-2.67,-2.6723,-2.7053,-2.6739,-2.6332,-2.5787,-2.6052,-2.627,-2.6213,-2.591,-2.5978,-2.6672,-2.6944,-2.7346,-2.7883,-2.8334,-2.8578,-2.8487,-2.8191,-2.7948,-2.7879,-2.7524,-2.7107,-2.6878,-2.6907,-2.6883,-2.6882,-2.6907,-2.7213,-2.7723,-2.7692,-2.752,-2.7606,-2.8075,-2.8255,-2.835,-2.8808,-2.924,-2.9203,-2.9377,-2.9521,-2.9535,-3.0048,-3.061,-3.0896,-3.1293,-3.1616,-3.1797,-3.1654,-3.1482,-3.1045,-3.107,-3.105,-3.0542,-3.0769,-3.097,-2.0635,-2.0819,-2.0896,-2.1138,-2.1425,-2.1436,-2.1578,-2.1731,-2.1502,-2.1359,-2.1205,-2.1359,-2.1359,-2.1205,-2.1359,-2.1359,-2.1205,-2.1359,-2.1359,0.0,-2.208,-2.2947,-2.3818,-2.4636,-2.5523,-2.6346,-2.5807,-2.5306,-2.4843,-2.4419,-2.3938,-2.3568,-2.3548,-2.3628,-2.3832,-2.4008,-2.4015,-2.3923,-2.3428,-2.3193,-2.3284,-2.2858,-2.257,-2.2546,-2.2572,-2.2602,-2.2791,-2.2791,-2.331,-2.4429,-2.4797,-2.5464,-2.6476,-2.6834,-2.7059,-2.7236,-2.7222,-2.7261,-2.7392,-2.7339,-2.7311,-2.7255,-2.693,-2.6539,-2.642,-2.6414,-2.6396,-2.6213,-2.6131,-2.6284,-2.6648,-2.6795,-2.7005,-2.7495,-2.763,-2.7679,-2.774,-2.7637,-2.7596,-2.7606,-2.7358,-2.7048,-2.6698,-2.6947,-2.7043,-2.6703,-2.7151,-2.7556,-2.7861,-2.8347,-2.8763,-2.897,-2.9041,-2.9157,-2.9166,-2.9329,-2.9528,-2.9412,-3.0038,-3.0323,-3.0323,-3.0901,-3.142,-3.1846,-3.1482,-3.1401,-3.1469,-3.113,-3.0852,-3.0664,-3.0739,-3.0698,-3.0522,-3.0667,-3.0681,-2.0654,-2.1061,-2.1215,-2.1359,-2.1512,-2.1578,-2.1731,-2.1807,-2.1731,-2.1655,-2.1502,-2.1655,-2.1578,-2.1502,-2.1655,-2.1655,-2.1502,-2.1655,-2.1568,-2.1589,-2.2014,-2.2678,-2.3515,-2.4002,-2.4723,-2.5482,-2.5008,-2.4607,-2.4343,-2.3939,-2.3644,-2.3416,-2.3641,-2.3819,-2.4008,-2.4054,-2.4125,-2.4112,-2.3838,-2.372,-2.3707,-2.3446,-2.3415,-2.3556,-2.3556,-2.3681,-2.3958,-2.3999,-2.4404,-2.5208,-2.572,-2.6304,-2.6903,-2.7429,-2.7643,-2.751,-2.7469,-2.7469,-2.7469,-2.739,-2.7323,-2.7268,-2.693,-2.6645,-2.6577,-2.6533,-2.6465,-2.6327,-2.6283,-2.6412,-2.6934,-2.6912,-2.7063,-2.7619,-2.7681,-2.7681,-2.7693,-2.7767,-2.778,-2.7754,-2.7785,-2.7657,-2.7319,-2.7465,-2.759,-2.7338,-2.7841,-2.8298,-2.8414,-2.907,-2.9347,-2.865,-2.873,-2.9027,-2.9147,-2.9649,-2.9859,-2.9859,-3.0183,-3.0453,-3.0389,-3.0764,-3.0982,-3.1142,-3.096,-3.0863,-3.0957,-3.0785,-3.0671,-3.0642,-3.0642,-3.0642,-3.0642,-3.0642,-3.0642,-2.0819,-2.1282,-2.1425,-2.1512,-2.1578,-2.1731,-2.1807,-2.1807,-2.1807,-2.1807,-2.1807,-2.1807,-2.1807,-2.1807,-2.1807,-2.1807,-2.1807,-2.1807,-2.1807,-2.1797,-2.1845,-2.2388,-2.3233,-2.3398,-2.3963,-2.4705,-2.4318,-2.4116,-2.4053,-2.3682,-2.3522,-2.3582,-2.3819,-2.3995,-2.4125,-2.4125,-2.4125,-2.4125,-2.4125,-2.4125,-2.4125,-2.4125,-2.4216,-2.4465,-2.4509,-2.4694,-2.5061,-2.5131,-2.5404,-2.5976,-2.6512,-2.685,-2.6947,-2.7611,-2.7801,-2.7406,-2.7591,-2.7789,-2.7894,-2.7723,-2.7656,-2.7762,-2.7175,-2.6918,-2.704,-2.6918,-2.6658,-2.6533,-2.6327,-2.6514,-2.6922,-2.6997,-2.7055,-2.7491,-2.7541,-2.7538,-2.772,-2.7839,-2.7933,-2.8082,-2.8199,-2.8126,-2.809,-2.8182,-2.8325,-2.8519,-2.8953,-2.9268,-2.9345,-2.9822,-2.956,-2.8853,-2.877,-2.9201,-2.9212,-2.9817,-3.023,-3.0219,-3.0323,-3.038,-3.0319,-3.0276,-3.0248,-3.0488,-3.0444,-3.0505,-3.0597,-3.0642,-3.0642,-3.0642,-3.0642,-3.0584,-3.038,-3.0351,-3.0482,-2.1282,-2.1425,-2.1502,-2.1578,-2.1731,-2.1807,-2.1807,-2.1807,-2.1807,-2.1807,-2.1807,-2.1807,-2.1807,-2.1807,-2.1807,-2.1807,-2.1807,-2.1807,-2.1807,-2.1832,-2.2029,-2.2496,-2.3328,-2.3676,-2.4235,-2.4873,-2.4556,-2.4338,-2.4325,-2.397,-2.3878,-2.3995,-2.4067,-2.4067,-2.4125,-2.4125,-2.4125,-2.4125,-2.4125,-2.4125,-2.4125,-2.4125,-2.4216,-2.4523,-2.4509,-2.4821,-2.5369,-2.5439,-2.5701,-2.6224,-2.6578,-2.6651,-2.6532,-2.7171,-2.738,-2.6908,-2.7811,-2.8648,-2.9205,-2.8725,-2.8661,-2.9129,-2.8012,-2.7523,-2.8026,-2.7829,-2.7335,-2.6794,-2.6533,-2.6627,-2.6596,-2.6622,-2.6754,-2.6924,-2.6854,-2.6878,-2.7488,-2.7562,-2.7793,-2.8419,-2.8436,-2.8229,-2.837,-2.8684,-2.9142,-2.9637,-2.9884,-3.0054,-3.0054,-3.019,-3.0251,-2.9993,-3.0125,-3.0187,-3.0251,-3.0447,-3.0522,-3.0522,-3.0582,-3.0522,-3.0522,-3.0522,-3.0568,-3.0522,-3.0568,-3.0568,-3.0568,-3.0628,-3.0584,-3.0482,-3.0453,-3.0395,-3.0046,-2.9856,-3.0017,-2.1262,-2.1645,-2.1655,-2.1731,-2.1807,-2.1807,-2.1807,-2.1807,-2.1807,-2.1807,-2.1807,-2.1807,-2.1807,-2.1807,-2.1807,-2.1807,-2.1807,-2.1807,-2.209,-2.2563,-2.2728,-2.3281,-2.4253,-2.4468,-2.4756,-2.5078,-2.4668,-2.4448,-2.4372,-2.4103,-2.3949,-2.4125,-2.4125,-2.4125,-2.4125,-2.4125,-2.4157,-2.4305,-2.4319,-2.4434,-2.462,-2.4421,-2.4478,-2.4765,-2.5005,-2.5075,-2.5257,-2.5536,-2.5758,-2.5854,-2.6484,-2.6834,-2.6682,-2.744,-2.7853,-2.7893,-2.8608,-2.9205,-2.9518,-2.9254,-2.9205,-2.9518,-2.8903,-2.8597,-2.8853,-2.861,-2.8222,-2.796,-2.7736,-2.767,-2.767,-2.767,-2.7683,-2.767,-2.767,-2.7789,-2.8065,-2.8477,-2.8885,-2.9135,-2.945,-2.9579,-2.9633,-2.9794,-3.0054,-3.0341,-3.0447,-3.0447,-3.0447,-3.0447,-3.0447,-3.0447,-3.0462,-3.0462,-3.0447,-3.0507,-3.0568,-3.0628,-3.0642,-3.0642,-3.0524,-3.0628,-3.0568,-3.0598,-3.054,-3.0555,-3.0582,-3.0219,-3.0001,-2.9972,-2.974,-2.9535,-2.9413,-2.9383,-2.953,-2.1252,-2.1807,-2.1949,-2.1959,-2.1949,-2.2101,-2.2101,-2.2111,-2.2101,-2.2101,-2.2111,-2.2101,-2.2101,-2.2101,-2.2035,-2.2025,-2.2111,-2.2101,-2.2467,-2.3158,-2.3329,-2.3908,-2.4767,-2.5066,-2.5212,-2.5294,-2.5034,-2.48,-2.4632,-2.4343,-2.4164,-2.4138,-2.4125,-2.4125,-2.4125,-2.4171,-2.4319,-2.4452,-2.458,-2.4835,-2.5061,-2.4892,-2.4892,-2.5131,-2.5369,-2.5425,-2.5286,-2.5674,-2.5798,-2.5661,-2.637,-2.6693,-2.6554,-2.7385,-2.8168,-2.8895,-2.9348,-2.9704,-2.9997,-2.9889,-2.9889,-3.0011,-2.9656,-2.9421,-2.9546,-2.9359,-2.9247,-2.917,-2.9219,-2.9066,-2.8492,-2.8505,-2.8505,-2.8505,-2.8505,-2.857,-2.8789,-2.9334,-2.9609,-2.9865,-3.0208,-3.0642,-3.0582,-3.0568,-3.0582,-3.0582,-3.0582,-3.0642,-3.0642,-3.0582,-3.0582,-3.0628,-3.0468,-3.035,-3.0375,-3.0507,-3.0539,-3.0321,-3.0263,-3.019,-3.0132,-3.0045,-3.0031,-2.9697,-3.0017,-3.0075,-2.993,-2.958,-2.9406,-2.9376,-2.9212,-2.8928,-2.8862,-2.8902,-2.8798,-2.1252,-2.1797,-2.2176,-2.2306,-2.2392,-2.2756,-2.2927,-2.2852,-2.2916,-2.2927,-2.2927,-2.2927,-2.2927,-2.2927,-2.2553,-2.2553,-2.2852,-2.2852,-2.3001,-2.3243,-2.3837,-2.4198,-2.4333,-2.5136,-2.5574,-2.5715,-2.5725,-2.5462,-2.5027,-2.4949,-2.4648,-2.4164,-2.4164,-2.4138,-2.4171,-2.4363,-2.4509,-2.458,-2.4821,-2.5131,-2.5425,-2.5439,-2.5439,-2.5481,-2.5494,-2.5592,-2.5798,-2.5893,-2.5893,-2.5893,-2.6301,-2.6261,-2.5813,-2.6899,-2.8245,-2.9405,-2.9667,-3.0177,-3.1013,-3.0763,-3.0703,-3.1087,-3.0269,-2.9752,-3.0343,-3.0297,-3.019,-3.019,-3.0568,-3.0176,-2.8953,-2.8812,-2.8748,-2.8684,-2.8634,-2.8953,-2.9498,-2.9624,-2.9932,-3.0337,-3.0568,-3.0642,-3.0642,-3.0642,-3.0642,-3.0642,-3.0642,-3.0642,-3.0642,-3.0642,-3.0628,-3.0438,-3.0133,-2.9886,-3.0438,-3.0293,-3.0119,-2.9885,-2.9624,-2.9523,-2.9073,-2.8753,-2.8868,-2.8911,-2.9071,-2.9143,-2.9024,-2.8963,-2.8961,-2.8943,-2.8925,-2.8739,-2.8388,-2.8381,-2.8278,-2.108,-2.1362,-2.1744,-2.1882,-2.2029,-2.2323,-2.2633,-2.299,-2.3001,-2.3001,-2.3001,-2.3001,-2.315,-2.3372,-2.3224,-2.3075,-2.3001,-2.3001,-2.3497,-2.4397,-2.479,-2.5404,-2.6291,-2.6659,-2.6778,-2.6805,-2.653,-2.6073,-2.5576,-2.5524,-2.5332,-2.4978,-2.4945,-2.4832,-2.4744,-2.4765,-2.4935,-2.5131,-2.5257,-2.5481,-2.5743,-2.5743,-2.5853,-2.6111,-2.5907,-2.5688,-2.5647,-2.5798,-2.5988,-2.6258,-2.6654,-2.693,-2.707,-2.7913,-2.8674,-2.9197,-2.9863,-3.0428,-3.0824,-3.104,-3.1219,-3.1409,-3.1102,-3.0822,-3.1043,-3.1043,-3.0925,-3.0984,-3.1014,-3.0702,-3.0418,-3.0176,-3.0162,-3.0162,-3.0176,-3.0176,-3.0326,-3.0334,-3.0438,-3.0551,-3.0642,-3.0642,-3.0642,-3.0642,-3.0642,-3.0642,-3.0642,-3.0628,-3.0628,-3.0628,-3.0482,-3.0134,-2.9799,-2.9608,-2.9532,-2.9446,-2.9258,-2.9201,-2.9057,-2.907,-2.8779,-2.8744,-2.8843,-2.8715,-2.87,-2.8726,-2.8737,-2.8542,-2.8508,-2.8163,-2.8172,-2.8292,-2.7876,-2.795,-2.7867,-2.1028,-2.1302,-2.1792,-2.1991,-2.2074,-2.26,-2.3072,-2.3361,-2.3372,-2.3383,-2.3372,-2.3372,-2.3519,-2.374,-2.3813,-2.3666,-2.3372,-2.3446,-2.407,-2.5122,-2.5417,-2.6126,-2.7121,-2.7403,-2.7469,-2.7471,-2.7144,-2.6725,-2.6277,-2.6288,-2.6096,-2.5882,-2.5901,-2.5652,-2.5398,-2.5404,-2.5519,-2.555,-2.5592,-2.5743,-2.5893,-2.5893,-2.6002,-2.6258,-2.615,-2.6111,-2.6016,-2.6204,-2.6404,-2.6721,-2.7086,-2.7509,-2.7985,-2.8379,-2.8779,-2.9067,-2.9667,-3.0213,-3.0548,-3.0956,-3.1228,-3.1452,-3.1467,-3.1467,-3.1482,-3.1424,-3.1336,-3.1351,-3.1307,-3.1205,-3.1249,-3.119,-3.119,-3.1146,-3.1087,-3.1014,-3.0895,-3.082,-3.076,-3.0673,-3.0673,-3.0687,-3.0762,-3.0747,-3.0747,-3.0762,-3.0747,-3.0718,-3.0499,-3.0426,-3.0207,-2.9681,-2.93,-2.8963,-2.8811,-2.8576,-2.8536,-2.844,-2.8569,-2.8569,-2.8506,-2.8557,-2.8582,-2.8537,-2.8508,-2.8547,-2.8399,-2.8187,-2.7869,-2.7542,-2.7601,-2.7816,-2.7643,-2.7619,-2.759,-2.1182,-2.1588,-2.2428,-2.2688,-2.2838,-2.358,-2.407,-2.4116,-2.4116,-2.4043,-2.4043,-2.4127,-2.4116,-2.4189,-2.4116,-2.4116,-2.4116,-2.4116,-2.4527,-2.5146,-2.5639,-2.6208,-2.685,-2.7335,-2.7469,-2.7469,-2.751,-2.7341,-2.7136,-2.716,-2.7082,-2.6918,-2.6884,-2.6571,-2.5959,-2.6222,-2.6131,-2.5814,-2.5855,-2.595,-2.5893,-2.5893,-2.5948,-2.6042,-2.6365,-2.6721,-2.7071,-2.7071,-2.7019,-2.7122,-2.7524,-2.7989,-2.825,-2.8115,-2.8258,-2.8961,-2.9088,-2.9569,-3.0403,-3.0503,-3.0791,-3.127,-3.1465,-3.1377,-3.1452,-3.1467,-3.1467,-3.1467,-3.1482,-3.1467,-3.1482,-3.1467,-3.1366,-3.1132,-3.1132,-3.1132,-3.1087,-3.0939,-3.0805,-3.0807,-3.0807,-3.0925,-3.1058,-3.1029,-3.0999,-3.0896,-3.0881,-3.0675,-3.016,-2.9971,-2.9752,-2.917,-2.8729,-2.8414,-2.8018,-2.7665,-2.7753,-2.7774,-2.7944,-2.8027,-2.7777,-2.7764,-2.7876,-2.7899,-2.7928,-2.7913,-2.798,-2.7794,-2.7786,-2.7524,-2.7575,-2.7575,-2.7575,-2.756,-2.756,-2.1431,-2.1592,-2.2084,-2.2551,-2.2913,-2.3401,-2.3867,-2.4177,-2.4189,-2.4189,-2.4189,-2.4189,-2.4189,-2.4189,-2.4189,-2.4189,-2.4261,-2.4599,-2.5087,-2.5581,-2.5861,-2.6414,-2.7121,-2.7403,-2.7469,-2.7469,-2.7469,-2.7445,-2.7473,-2.7708,-2.7685,-2.7453,-2.7667,-2.7594,-2.7218,-2.7279,-2.7057,-2.6498,-2.647,-2.6343,-2.595,-2.5907,-2.615,-2.6669,-2.6864,-2.7225,-2.7925,-2.7444,-2.7276,-2.7575,-2.7725,-2.7989,-2.825,-2.8186,-2.8244,-2.8522,-2.8814,-2.9061,-2.9343,-2.9801,-3.0258,-3.0672,-3.0821,-3.1076,-3.1392,-3.1467,-3.1467,-3.1467,-3.1467,-3.1467,-3.1467,-3.1467,-3.1467,-3.1351,-3.1366,-3.1307,-3.1234,-3.1073,-3.1028,-3.097,-3.1014,-3.1029,-3.1102,-3.1058,-3.0865,-3.0526,-3.0409,-3.0174,-2.9613,-2.9437,-2.9215,-2.862,-2.8272,-2.7986,-2.7743,-2.758,-2.7624,-2.7617,-2.7713,-2.7772,-2.7447,-2.7335,-2.7372,-2.7423,-2.7423,-2.7473,-2.7524,-2.7524,-2.7575,-2.756,-2.7575,-2.7575,-2.756,-2.756,-2.756,-2.1144,-2.1731,-2.2115,-2.2614,-2.3149,-2.3484,-2.389,-2.4166,-2.4273,-2.4273,-2.42,-2.4273,-2.4345,-2.4345,-2.4345,-2.4345,-2.4406,-2.4754,-2.537,-2.607,-2.622,-2.6701,-2.7403,-2.7469,-2.7603,-2.7736,-2.7736,-2.7855,-2.8118,-2.8314,-2.8383,-2.8373,-2.8581,-2.8474,-2.8183,-2.8099,-2.7804,-2.727,-2.7172,-2.6919,-2.6578,-2.6436,-2.6648,-2.7063,-2.7291,-2.7625,-2.8088,-2.7775,-2.7725,-2.7989,-2.8039,-2.8137,-2.8348,-2.8299,-2.8299,-2.8327,-2.8519,-2.8718,-2.8888,-2.9275,-2.9786,-3.0283,-3.0492,-3.0806,-3.1345,-3.1467,-3.1467,-3.1467,-3.1467,-3.1467,-3.1467,-3.1467,-3.1467,-3.1467,-3.1467,-3.1452,-3.1321,-3.1219,-3.1161,-3.1102,-3.0982,-3.0878,-3.0849,-3.0639,-3.0431,-2.9989,-2.9915,-2.9692,-2.9159,-2.8936,-2.8595,-2.8254,-2.798,-2.775,-2.7614,-2.7554,-2.7518,-2.7548,-2.7578,-2.7586,-2.7416,-2.7423,-2.7524,-2.7524,-2.7524,-2.7524,-2.7575,-2.7575,-2.756,-2.756,-2.756,-2.756,-2.756,-2.756,-2.761,-2.0577,-2.1909,-2.2524,-2.2983,-2.3486,-2.3971,-2.4238,-2.4273,-2.4418,-2.4418,-2.4345,-2.4418,-2.4502,-2.4502,-2.4502,-2.4574,-2.479,-2.4921,-2.5465,-2.6277,-2.6701,-2.7108,-2.759,-2.7669,-2.7855,-2.8066,-2.8145,-2.8392,-2.8844,-2.8958,-2.9226,-2.9345,-2.9366,-2.9321,-2.883,-2.8745,-2.8436,-2.7917,-2.7877,-2.7769,-2.7478,-2.7403,-2.7389,-2.7307,-2.7604,-2.779,-2.794,-2.8152,-2.8299,-2.8411,-2.8363,-2.8348,-2.8411,-2.8411,-2.8411,-2.8396,-2.8299,-2.8488,-2.8779,-2.8798,-2.917,-3.0083,-3.0298,-3.0731,-3.1225,-3.145,-3.1467,-3.1467,-3.1467,-3.1467,-3.1467,-3.1467,-3.1467,-3.1467,-3.1467,-3.1437,-3.1334,-3.1261,-3.1142,-3.1023,-3.0681,-3.0309,-3.0406,-3.0013,-2.9729,-2.9549,-2.9465,-2.9152,-2.8704,-2.8405,-2.8203,-2.7979,-2.7748,-2.7658,-2.756,-2.7575,-2.7539,-2.7539,-2.7524,-2.7539,-2.7488,-2.7524,-2.756,-2.756,-2.756,-2.756,-2.756,-2.756,-2.756,-2.756,-2.756,-2.756,-2.761,-2.761,-2.7625,-2.145,-2.2169,-2.2899,-2.3534,-2.3982,-2.4311,-2.4418,-2.4429,-2.4646,-2.4634,-2.449,-2.449,-2.4502,-2.4502,-2.4502,-2.4634,-2.4849,-2.5194,-2.5477,-2.6,-2.6947,-2.7643,-2.8183,-2.8327,-2.8327,-2.8471,-2.8471,-2.8587,-2.8716,-2.9035,-2.9162,-2.9226,-2.9477,-2.9546,-2.9378,-2.9336,-2.904,-2.8595,-2.8793,-2.8713,-2.8266,-2.8104,-2.8119,-2.8308,-2.8047,-2.7985,-2.8201,-2.8348,-2.8411,-2.8411,-2.8411,-2.8411,-2.8411,-2.8411,-2.8411,-2.8411,-2.8363,-2.8345,-2.8366,-2.8293,-2.8601,-2.9155,-2.9763,-3.0118,-3.0717,-3.1255,-3.148,-3.1467,-3.1467,-3.1467,-3.1467,-3.1467,-3.1467,-3.1467,-3.1467,-3.1452,-3.1317,-3.1004,-3.069,-3.0627,-3.0116,-2.9848,-2.9789,-2.9612,-2.935,-2.8989,-2.8801,-2.8682,-2.8188,-2.7949,-2.7814,-2.7739,-2.7619,-2.7604,-2.756,-2.756,-2.7575,-2.7575,-2.7575,-2.7575,-2.7575,-2.7575,-2.756,-2.756,-2.756,-2.756,-2.756,-2.756,-2.756,-2.7625,-2.7625,-2.7675,-2.7625,-2.7625,-2.769,-2.1172,-2.2237,-2.2771,-2.3504,-2.4322,-2.4574,-2.4646,-2.4646,-2.4849,-2.479,-2.4646,-2.4706,-2.4766,-2.4778,-2.4778,-2.4849,-2.5052,-2.5664,-2.607,-2.6607,-2.7815,-2.843,-2.8587,-2.8587,-2.8651,-2.878,-2.8794,-2.8908,-2.9035,-2.9226,-2.9289,-2.9352,-2.9477,-2.9602,-2.9574,-2.9588,-2.9448,-2.9186,-2.9405,-2.9448,-2.9327,-2.9292,-2.9275,-2.9302,-2.8866,-2.867,-2.8473,-2.8411,-2.8411,-2.8411,-2.8411,-2.8411,-2.8411,-2.8411,-2.8411,-2.8411,-2.8411,-2.8348,-2.8235,-2.8168,-2.851,-2.9146,-2.9629,-3.0247,-3.0945,-3.1459,-3.1612,-3.167,-3.1539,-3.1524,-3.1467,-3.1467,-3.1467,-3.1467,-3.1467,-3.1347,-3.115,-3.0761,-3.0387,-3.0073,-2.96,-2.9203,-2.916,-2.8937,-2.8606,-2.8299,-2.8173,-2.7979,-2.7709,-2.7604,-2.761,-2.7625,-2.761,-2.761,-2.7625,-2.7675,-2.7675,-2.7625,-2.7625,-2.7625,-2.7625,-2.7625,-2.756,-2.756,-2.756,-2.756,-2.756,-2.7625,-2.7675,-2.7725,-2.7725,-2.7725,-2.7725,-2.7725,-2.779,-2.0554,-2.2324,-2.2529,-2.3383,-2.4455,-2.4718,-2.479,-2.4861,-2.5052,-2.4992,-2.4921,-2.4992,-2.504,-2.5111,-2.504,-2.5182,-2.5312,-2.5791,-2.6676,-2.7484,-2.8546,-2.9085,-2.8858,-2.8844,-2.8972,-2.9162,-2.9162,-2.9289,-2.9415,-2.9554,-2.9617,-2.954,-2.9602,-2.9602,-2.9602,-2.9602,-2.9602,-2.9718,-2.9907,-3.0235,-3.0499,-3.0603,-3.0569,-3.0454,-2.989,-2.9211,-2.8695,-2.8429,-2.8444,-2.8411,-2.8411,-2.8411,-2.8411,-2.8411,-2.8411,-2.8411,-2.8411,-2.8348,-2.8281,-2.8308,-2.8702,-2.959,-2.9947,-3.0555,-3.144,-3.1762,-3.1784,-3.1784,-3.167,-3.1597,-3.1582,-3.1582,-3.1539,-3.1539,-3.1524,-3.1195,-3.0612,-3.0402,-3.0163,-2.9549,-2.8906,-2.8562,-2.8338,-2.8075,-2.7655,-2.7955,-2.7865,-2.779,-2.767,-2.759,-2.7625,-2.7675,-2.7625,-2.7625,-2.7675,-2.7725,-2.7725,-2.7725,-2.7725,-2.7725,-2.7725,-2.7675,-2.7625,-2.756,-2.756,-2.756,-2.756,-2.7675,-2.7725,-2.779,-2.779,-2.789,-2.7955,-2.7905,-2.7905,-2.1838,-2.2911,-2.3582,-2.4085,-2.4478,-2.4718,-2.4921,-2.5052,-2.5182,-2.5182,-2.5052,-2.5052,-2.5123,-2.5111,-2.5111,-2.5182,-2.5382,-2.5721,-2.6195,-2.7537,-2.8312,-2.9058,-2.9226,-2.9352,-2.9415,-2.9477,-2.9477,-2.954,-2.9602,-2.9602,-2.9602,-2.9602,-2.9602,-2.9602,-2.9602,-2.9665,-2.9789,-3.0144,-3.0553,-3.1042,-3.1531,-3.1628,-3.1628,-3.1618,-3.07,-2.9674,-2.8856,-2.8653,-2.8573,-2.846,-2.8473,-2.8565,-2.8442,-2.8411,-2.8442,-2.8488,-2.8458,-2.8427,-2.8455,-2.8771,-2.9088,-2.951,-3.0342,-3.0904,-3.1131,-3.1754,-3.191,-3.1955,-3.1883,-3.1883,-3.1811,-3.1769,-3.1727,-3.1727,-3.1567,-3.1076,-3.0103,-2.9804,-2.9549,-2.8891,-2.8263,-2.785,-2.7829,-2.787,-2.766,-2.761,-2.7625,-2.7675,-2.7675,-2.7625,-2.7675,-2.774,-2.7725,-2.7725,-2.779,-2.784,-2.784,-2.784,-2.784,-2.784,-2.779,-2.779,-2.774,-2.7625,-2.756,-2.761,-2.7675,-2.7675,-2.779,-2.779,-2.789,-2.794,-2.8054,-2.8005,-2.8054,-2.1614,-2.2756,-2.3265,-2.3936,-2.4694,-2.4981,-2.5111,-2.5182,-2.5241,-2.5241,-2.5182,-2.5182,-2.517,-2.517,-2.5241,-2.5382,-2.5931,-2.6582,-2.7391,-2.8403,-2.8917,-2.9261,-2.9526,-2.9665,-2.9651,-2.9602,-2.9602,-2.9602,-2.9602,-2.9602,-2.9602,-2.9602,-2.9602,-2.9665,-2.9761,-2.9946,-3.0283,-3.0703,-3.1218,-3.1834,-3.2369,-3.2529,-3.2368,-3.2323,-3.1436,-3.0513,-2.9956,-2.9779,-2.9681,-2.9534,-2.9369,-2.9012,-2.8519,-2.8427,-2.855,-2.8827,-2.8873,-2.9073,-2.9316,-2.9607,-2.9925,-3.017,-3.0884,-3.1258,-3.154,-3.1982,-3.2064,-3.2094,-3.2053,-3.1996,-3.1996,-3.1955,-3.1898,-3.1898,-3.1841,-3.1196,-3.0087,-2.9672,-2.916,-2.8382,-2.7829,-2.7649,-2.7625,-2.771,-2.771,-2.7625,-2.7625,-2.7675,-2.7725,-2.7725,-2.779,-2.7855,-2.784,-2.784,-2.7905,-2.7955,-2.7989,-2.8005,-2.8005,-2.7955,-2.7905,-2.7855,-2.7806,-2.779,-2.7725,-2.779,-2.784,-2.784,-2.784,-2.7989,-2.8088,-2.8088,-2.8137,-2.8201,-2.825,-2.1078,-2.2596,-2.2723,-2.3694,-2.4969,-2.5182,-2.5241,-2.5312,-2.5312,-2.5312,-2.5312,-2.5312,-2.5382,-2.5382,-2.5382,-2.5804,-2.6595,-2.7657,-2.8454,-2.9184,-2.9463,-2.9602,-2.9727,-2.9775,-2.9775,-2.9665,-2.9741,-2.9727,-2.9665,-2.9651,-2.9727,-2.9665,-2.9665,-2.9789,-2.9946,-3.0343,-3.0689,-3.1102,-3.1592,-3.2321,-3.2949,-3.3151,-3.3042,-3.2672,-3.2256,-3.1566,-3.1131,-3.0903,-3.0848,-3.0842,-3.0654,-2.9898,-2.9123,-2.875,-2.8919,-2.955,-2.9566,-2.975,-3.012,-3.0406,-3.0797,-3.1366,-3.1536,-3.1797,-3.2173,-3.2256,-3.2247,-3.2191,-3.2135,-3.2109,-3.2053,-3.2053,-3.2053,-3.2053,-3.1996,-3.1405,-3.044,-2.987,-2.9124,-2.8051,-2.7801,-2.7755,-2.7725,-2.7775,-2.7725,-2.7675,-2.7675,-2.7675,-2.779,-2.784,-2.7905,-2.7955,-2.7955,-2.794,-2.8039,-2.8152,-2.8152,-2.8152,-2.8168,-2.8118,-2.8054,-2.8054,-2.8054,-2.7955,-2.7955,-2.7955,-2.7955,-2.794,-2.8039,-2.8186,-2.8235,-2.8186,-2.8299,-2.8411,-2.8411,-2.1928,-2.3434,-2.3434,-2.4093,-2.504,-2.5123,-2.517,-2.5312,-2.5312,-2.5312,-2.5312,-2.5453,-2.5535,-2.5606,-2.5758,-2.622,-2.6934,-2.7855,-2.8583,-2.9233,-2.9699,-2.9988,-2.9988,-2.9974,-3.005,-3.005,-2.9988,-2.9974,-2.9851,-2.9913,-2.9927,-2.9988,-2.9988,-2.9988,-3.0097,-3.0266,-3.0896,-3.1607,-3.1946,-3.2571,-3.3335,-3.3578,-3.3457,-3.3144,-3.287,-3.245,-3.179,-3.1549,-3.1388,-3.1176,-3.1061,-3.0833,-3.0476,-3.0227,-3.0202,-3.0197,-3.0258,-3.0381,-3.0643,-3.0982,-3.1228,-3.149,-3.1859,-3.2167,-3.2367,-3.2398,-3.2358,-3.2358,-3.2342,-3.2358,-3.2358,-3.2247,-3.2191,-3.215,-3.2033,-3.1718,-3.0919,-3.0312,-2.95,-2.8349,-2.8091,-2.7905,-2.789,-2.789,-2.7875,-2.7875,-2.789,-2.789,-2.794,-2.8005,-2.8054,-2.8054,-2.8054,-2.8088,-2.8137,-2.825,-2.8348,-2.8299,-2.8314,-2.8314,-2.8299,-2.8299,-2.8299,-2.8152,-2.8069,-2.8069,-2.8054,-2.8103,-2.8152,-2.8235,-2.8284,-2.8299,-2.8348,-2.8411,-2.8411,-2.222,-2.3276,-2.3717,-2.4371,-2.5111,-2.517,-2.5253,-2.5312,-2.5312,-2.5312,-2.5382,-2.5535,-2.5606,-2.5676,-2.5828,-2.6414,-2.7471,-2.8208,-2.8931,-2.9574,-2.9913,-3.0111,-3.0111,-3.0158,-3.0172,-3.0172,-3.0233,-3.0233,-2.996,-3.005,-3.0111,-3.0111,-3.0111,-3.028,-3.0718,-3.1043,-3.1549,-3.2321,-3.2772,-3.3177,-3.3848,-3.3915,-3.3758,-3.3662,-3.3599,-3.3355,-3.3047,-3.2736,-3.2652,-3.2551,-3.2384,-3.223,-3.2044,-3.1894,-3.1591,-3.1102,-3.092,-3.1105,-3.1366,-3.1767,-3.1905,-3.1951,-3.2244,-3.2367,-3.2398,-3.2398,-3.2398,-3.2398,-3.2398,-3.2398,-3.2398,-3.2342,-3.2287,-3.2302,-3.2247,-3.187,-3.135,-3.0922,-3.002,-2.89,-2.8438,-2.8141,-2.8005,-2.8005,-2.8039,-2.8039,-2.8103,-2.8103,-2.8103,-2.8152,-2.8152,-2.8201,-2.8201,-2.825,-2.8235,-2.8348,-2.8411,-2.8411,-2.8411,-2.8411,-2.8411,-2.8411,-2.8363,-2.8266,-2.8217,-2.8168,-2.8217,-2.825,-2.8299,-2.8299,-2.8299,-2.8348,-2.8411,-2.8411,-2.8411,-2.2134,-2.3021,-2.361,-2.442,-2.5241,-2.5312,-2.5312,-2.5312,-2.5312,-2.5324,-2.5382,-2.5606,-2.5676,-2.5828,-2.622,-2.7015,-2.8312,-2.9008,-2.9526,-3.0036,-3.0233,-3.0233,-3.0219,-3.028,-3.0341,-3.0294,-3.0401,-3.0462,-3.0219,-3.0233,-3.0233,-3.0219,-3.0233,-3.0568,-3.1175,-3.1507,-3.2431,-3.3145,-3.3646,-3.3933,-3.405,-3.4101,-3.4101,-3.4101,-3.4101,-3.4052,-3.3872,-3.3705,-3.362,-3.3585,-3.3479,-3.3403,-3.3382,-3.3398,-3.2867,-3.1973,-3.1774,-3.2029,-3.2292,-3.2321,-3.229,-3.229,-3.2367,-3.2398,-3.2398,-3.2398,-3.2398,-3.2398,-3.2398,-3.2398,-3.2398,-3.2398,-3.2398,-3.2398,-3.2367,-3.2213,-3.1813,-3.1344,-3.0883,-2.9894,-2.8966,-2.8458,-2.8351,-2.8152,-2.8201,-2.8186,-2.8201,-2.8217,-2.8266,-2.825,-2.8299,-2.8348,-2.8363,-2.8363,-2.8348,-2.8348,-2.8411,-2.8411,-2.8411,-2.8411,-2.8411,-2.8411,-2.8363,-2.8363,-2.8363,-2.8314,-2.8411,-2.8411,-2.8348,-2.8348,-2.8411,-2.8411,-2.8411,-2.8411,-2.8411,-2.1614,-2.3032,-2.3106,-2.3975,-2.5241,-2.5312,-2.5312,-2.5312,-2.5312,-2.5382,-2.5618,-2.577,-2.598,-2.6314,-2.6973,-2.8065,-2.9044,-2.9435,-2.9822,-3.0401,-3.0462,-3.0462,-3.0507,-3.0582,-3.0522,-3.0462,-3.0582,-3.0447,-3.0341,-3.0462,-3.0582,-3.0568,-3.0628,-3.0911,-3.1622,-3.1849,-3.213,-3.3039,-3.3319,-3.3594,-3.405,-3.4101,-3.4101,-3.4101,-3.4101,-3.4101,-3.4101,-3.4,-3.4,-3.4,-3.4,-3.3848,-3.3694,-3.3658,-3.3487,-3.3145,-3.2879,-3.2749,-3.2742,-3.2578,-3.2508,-3.2508,-3.2453,-3.2398,-3.2398,-3.2398,-3.2398,-3.2398,-3.2398,-3.2398,-3.2398,-3.2398,-3.2398,-3.2398,-3.2382,-3.2382,-3.2151,-3.1813,-3.132,-3.0957,-3.0038,-2.9239,-2.8812,-2.8532,-2.8348,-2.8348,-2.8348,-2.8363,-2.8363,-2.8348,-2.8348,-2.8411,-2.8411,-2.8411,-2.8411,-2.8411,-2.8411,-2.8411,-2.8411,-2.8411,-2.8411,-2.8411,-2.8411,-2.8411,-2.8411,-2.8411,-2.8411,-2.8411,-2.8411,-2.8411,-2.8411,-2.8411,-2.8411,-2.8411,-2.8411,-2.2048,-2.3231,-2.4192,-2.5016,-2.5606,-2.5618,-2.5606,-2.5606,-2.5618,-2.5688,-2.5828,-2.598,-2.6396,-2.6905,-2.743,-2.826,-2.9359,-2.9623,-3.0007,-3.0507,-3.0642,-3.0642,-3.0582,-3.0642,-3.0642,-3.0642,-3.0642,-3.0582,-3.0507,-3.0628,-3.0747,-3.1087,-3.1146,-3.1622,-3.2226,-3.2446,-3.2933,-3.3491,-3.3764,-3.3882,-3.4034,-3.4101,-3.4101,-3.4101,-3.4101,-3.4101,-3.4101,-3.4101,-3.4101,-3.4101,-3.4101,-3.4034,-3.3949,-3.3899,-3.3848,-3.3745,-3.3487,-3.3293,-3.315,-3.2881,-3.2812,-3.2726,-3.2617,-3.2398,-3.2398,-3.2453,-3.2453,-3.2398,-3.2398,-3.2398,-3.2453,-3.2398,-3.2398,-3.2398,-3.2468,-3.2453,-3.2407,-3.2198,-3.1828,-3.1497,-3.1149,-3.0392,-2.9682,-2.9441,-2.9018,-2.8535,-2.8504,-2.8521,-2.8442,-2.8411,-2.8411,-2.8411,-2.8411,-2.8411,-2.8411,-2.8411,-2.8444,-2.8444,-2.8396,-2.8396,-2.8411,-2.8411,-2.8411,-2.8411,-2.8411,-2.8411,-2.8411,-2.8411,-2.8411,-2.8411,-2.8411,-2.8411,-2.8411,-2.8411,-2.8411,-2.2925,-2.3818,-2.5087,-2.5688,-2.5923,-2.5923,-2.591,-2.591,-2.5923,-2.591,-2.605,-2.6396,-2.704,-2.7683,-2.8065,-2.8839,-2.9808,-2.987,-3.0129,-3.0447,-3.0642,-3.0642,-3.0642,-3.0642,-3.0642,-3.0642,-3.0866,-3.0866,-3.0911,-3.1029,-3.1321,-3.1495,-3.1422,-3.2074,-3.2879,-3.3145,-3.3423,-3.3933,-3.4034,-3.405,-3.4101,-3.4101,-3.4101,-3.4101,-3.4101,-3.4101,-3.4101,-3.4101,-3.4101,-3.4101,-3.4101,-3.4101,-3.405,-3.405,-3.405,-3.4,-3.3813,-3.3694,-3.3503,-3.3256,-3.315,-3.3081,-3.3011,-3.2742,-3.2687,-3.2617,-3.2617,-3.2672,-3.2687,-3.2687,-3.2617,-3.2633,-3.2594,-3.2594,-3.2594,-3.2523,-3.2547,-3.2493,-3.2447,-3.2245,-3.192,-3.155,-3.0923,-3.0472,-2.9816,-2.8922,-2.8676,-2.8662,-2.8618,-2.8556,-2.8589,-2.8636,-2.8684,-2.8684,-2.8636,-2.8589,-2.8541,-2.8493,-2.8493,-2.8444,-2.8444,-2.846,-2.8411,-2.8411,-2.8411,-2.8411,-2.8411,-2.8411,-2.8411,-2.8411,-2.8411,-2.8411,-2.8411,-2.8411,-2.8411,-2.412,-2.4862,-2.485,-2.5312,-2.5923,-2.5923,-2.5923,-2.598,-2.591,-2.605,-2.6258,-2.6973,-2.767,-2.8376,-2.8967,-2.967,-3.0507,-3.0507,-3.0507,-3.0582,-3.0642,-3.0642,-3.0642,-3.0642,-3.0642,-3.0687,-3.0911,-3.1204,-3.148,-3.1652,-3.1709,-3.1595,-3.1807,-3.2351,-3.2933,-3.3423,-3.3578,-3.3984,-3.4101,-3.4101,-3.4101,-3.4101,-3.4101,-3.4101,-3.4101,-3.4101,-3.4101,-3.4101,-3.4101,-3.4101,-3.4101,-3.4101,-3.4101,-3.4101,-3.4101,-3.405,-3.405,-3.3949,-3.3848,-3.3555,-3.3309,-3.3293,-3.324,-3.3118,-3.3081,-3.3187,-3.3187,-3.3118,-3.3081,-3.3134,-3.3081,-3.3043,-3.2881,-3.2881,-3.2812,-3.2812,-3.2904,-3.3011,-3.298,-3.2897,-3.2633,-3.2299,-3.2133,-3.1667,-3.0767,-2.9884,-2.9339,-2.9309,-2.8983,-2.892,-2.8951,-2.8998,-2.8998,-2.8998,-2.9045,-2.8951,-2.8811,-2.8763,-2.8716,-2.8621,-2.8493,-2.8493,-2.8589,-2.8444,-2.8493,-2.8444,-2.8411,-2.8411,-2.8411,-2.8411,-2.8411,-2.8493,-2.8444,-2.8444,-2.8396,-2.4636,-2.5886,-2.5873,-2.5955,-2.6258,-2.6245,-2.6258,-2.6258,-2.6245,-2.6327,-2.6396,-2.7162,-2.7868,-2.857,-2.9282,-2.9931,-3.0507,-3.0642,-3.0642,-3.0642,-3.0642,-3.0642,-3.0642,-3.0642,-3.0642,-3.0687,-3.0911,-3.119,-3.148,-3.1977,-3.2296,-3.2336,-3.2501,-3.3039,-3.3543,-3.3697,-3.3866,-3.3984,-3.4101,-3.4101,-3.4101,-3.4101,-3.4101,-3.4101,-3.4101,-3.4101,-3.4101,-3.4101,-3.4101,-3.4101,-3.4101,-3.4101,-3.4101,-3.4101,-3.4101,-3.4101,-3.4101,-3.4101,-3.405,-3.3761,-3.3519,-3.3346,-3.3398,-3.3503,-3.3398,-3.3293,-3.3293,-3.3293,-3.3346,-3.3346,-3.3293,-3.3187,-3.315,-3.315,-3.315,-3.315,-3.3187,-3.3346,-3.3293,-3.3165,-3.3146,-3.2967,-3.2892,-3.2812,-3.1804,-3.0869,-3.035,-2.9911,-2.9767,-2.9494,-2.9555,-2.9521,-2.9505,-2.935,-2.935,-2.9213,-2.9091,-2.9075,-2.9013,-2.8967,-2.8936,-2.8858,-2.8905,-2.8716,-2.8636,-2.8683,-2.8651,-2.8475,-2.8444,-2.8525,-2.8573,-2.8621,-2.8573,-2.8477,-2.8477,-2.4909,-2.6452,-2.6521,-2.6521,-2.6521,-2.6521,-2.6521,-2.6521,-2.6452,-2.6521,-2.6589,-2.7351,-2.8051,-2.862,-2.9532,-3.0115,-3.0507,-3.0642,-3.0642,-3.0642,-3.0642,-3.0687,-3.0807,-3.0911,-3.1087,-3.1087,-3.1349,-3.1736,-3.2114,-3.2185,-3.2788,-3.3266,-3.3475,-3.3764,-3.3933,-3.4101,-3.4101,-3.4101,-3.4101,-3.4101,-3.4101,-3.4101,-3.4101,-3.4101,-3.4101,-3.4101,-3.4101,-3.4101,-3.4101,-3.4101,-3.4101,-3.4101,-3.4101,-3.4101,-3.4101,-3.4101,-3.4101,-3.4101,-3.405,-3.3965,-3.3761,-3.3642,-3.371,-3.371,-3.3607,-3.3539,-3.3607,-3.3591,-3.3555,-3.3555,-3.3487,-3.3503,-3.345,-3.3398,-3.3398,-3.345,-3.345,-3.3555,-3.3503,-3.3466,-3.3488,-3.3551,-3.3514,-3.3441,-3.3012,-3.2112,-3.1643,-3.1299,-3.1189,-3.0843,-3.0429,-3.0298,-3.0076,-2.9847,-2.9677,-2.9814,-2.9995,-2.975,-2.9705,-2.9572,-2.9483,-2.9441,-2.9412,-2.938,-2.9229,-2.9061,-2.9077,-2.9121,-2.892,-2.8685,-2.8779,-2.892,-2.8842,-2.8811,-2.8716,-2.5063,-2.6452,-2.6521,-2.6521,-2.6521,-2.6521,-2.6521,-2.6521,-2.6589,-2.6589,-2.6782,-2.7868,-2.8505,-2.8889,-2.9917,-3.0447,-3.0568,-3.0628,-3.0628,-3.0628,-3.0642,-3.0911,-3.1204,-3.1379,-3.148,-3.2312,-3.2477,-3.261,-3.2971,-3.3214,-3.3713,-3.3933,-3.3933,-3.3984,-3.4101,-3.4101,-3.4101,-3.4101,-3.4101,-3.4101,-3.4101,-3.4101,-3.4101,-3.4101,-3.4101,-3.4101,-3.4101,-3.3939,-3.389,-3.389,-3.3906,-3.3906,-3.3922,-3.4052,-3.4084,-3.4101,-3.4101,-3.4101,-3.4101,-3.4101,-3.4,-3.3949,-3.3949,-3.3949,-3.4,-3.405,-3.3949,-3.3899,-3.3949,-3.4,-3.3949,-3.3848,-3.3745,-3.371,-3.3694,-3.3694,-3.3745,-3.3797,-3.3761,-3.371,-3.3915,-3.4016,-3.4066,-3.4037,-3.3909,-3.3479,-3.2925,-3.2641,-3.2447,-3.2044,-3.1517,-3.1401,-3.1116,-3.1034,-3.0968,-3.0875,-3.0842,-3.0601,-3.0533,-3.0576,-3.0451,-3.0359,-3.0266,-3.0109,-2.9867,-2.9713,-2.9794,-2.9924,-2.9617,-2.9348,-2.9227,-2.9243,-2.9167,-2.9153,-2.9215,-2.5511,-2.6521,-2.6521,-2.6521,-2.6521,-2.6521,-2.6521,-2.6589,-2.6905,-2.7162,-2.7484,-2.8634,-2.9233,-2.9546,-3.0054,-3.0628,-3.0642,-3.0702,-3.0702,-3.0762,-3.0762,-3.0821,-3.1161,-3.1537,-3.1724,-3.1936,-3.2367,-3.3002,-3.3145,-3.3594,-3.3832,-3.4,-3.4101,-3.4101,-3.4101,-3.4101,-3.4101,-3.4101,-3.4101,-3.4101,-3.4101,-3.4101,-3.4101,-3.4101,-3.4101,-3.4084,-3.4003,-3.3712,-3.3551,-3.3502,-3.3486,-3.3551,-3.3648,-3.381,-3.4101,-3.4101,-3.4101,-3.4101,-3.4101,-3.4101,-3.4101,-3.4101,-3.4101,-3.4101,-3.4101,-3.4101,-3.4101,-3.4101,-3.4101,-3.4101,-3.405,-3.4,-3.3949,-3.3949,-3.3949,-3.3949,-3.4,-3.4,-3.4,-3.4,-3.405,-3.4134,-3.4168,-3.4611,-3.4622,-3.4559,-3.4086,-3.3517,-3.3208,-3.2947,-3.256,-3.256,-3.2443,-3.2412,-3.2312,-3.2133,-3.2083,-3.2026,-3.1968,-3.2017,-3.1791,-3.145,-3.1116,-3.0966,-3.0598,-3.0308,-3.0609,-3.074,-3.0349,-3.0054,-3.0315,-3.0212,-3.006,-3.0076,-3.0032,-2.5746,-2.6452,-2.6521,-2.6521,-2.6521,-2.6521,-2.6577,-2.6905,-2.7364,-2.7617,-2.8051,-2.9093,-2.956,-2.9808,-3.0312,-3.0687,-3.0702,-3.0836,-3.0895,-3.0955,-3.1161,-3.1364,-3.1652,-3.1921,-3.2555,-3.2516,-3.2788,-3.3335,-3.363,-3.3578,-3.3764,-3.405,-3.4101,-3.4101,-3.4101,-3.4101,-3.4101,-3.4101,-3.4101,-3.4101,-3.4101,-3.4101,-3.4101,-3.4101,-3.4068,-3.4003,-3.3729,-3.3421,-3.3144,-3.3062,-3.3095,-3.3225,-3.3437,-3.3746,-3.4036,-3.4101,-3.4101,-3.4101,-3.4101,-3.4101,-3.4101,-3.4101,-3.4101,-3.4101,-3.4101,-3.4101,-3.4101,-3.4101,-3.4101,-3.4101,-3.4101,-3.4101,-3.4101,-3.4101,-3.4151,-3.4101,-3.4167,-3.4151,-3.4167,-3.4167,-3.4151,-3.4234,-3.4448,-3.4967,-3.5362,-3.529,-3.5193,-3.4651,-3.4083,-3.3854,-3.3702,-3.3711,-3.3584,-3.3413,-3.3352,-3.3267,-3.3284,-3.3422,-3.338,-3.3263,-3.31,-3.2751,-3.229,-3.1938,-3.2032,-3.2025,-3.1767,-3.1633,-3.1683,-3.1774,-3.195,-3.17,-3.1149,-3.1108,-3.1205,-2.5816,-2.6452,-2.6521,-2.6521,-2.6521,-2.6521,-2.685,-2.7471,-2.755,-2.792,-2.857,-2.9345,-2.9808,-2.987,-3.0507,-3.0821,-3.0925,-3.1073,-3.1176,-3.1394,-3.1694,-3.2074,-3.2555,-3.3039,-3.3303,-3.385,-3.4134,-3.3968,-3.4234,-3.4068,-3.4101,-3.4151,-3.4201,-3.4151,-3.4151,-3.4151,-3.4151,-3.4151,-3.4151,-3.4151,-3.4151,-3.4151,-3.4101,-3.4101,-3.4084,-3.3858,-3.36,-3.3289,-3.3039,-3.3017,-3.3129,-3.3376,-3.3627,-3.3893,-3.4054,-3.4151,-3.4184,-3.4201,-3.4201,-3.4201,-3.4101,-3.4101,-3.4101,-3.4101,-3.4101,-3.4101,-3.4101,-3.4101,-3.4101,-3.4101,-3.4101,-3.4101,-3.4167,-3.4151,-3.4201,-3.4201,-3.4267,-3.4283,-3.4299,-3.4299,-3.4283,-3.4448,-3.4908,-3.5412,-3.5706,-3.5701,-3.5667,-3.5685,-3.5181,-3.49,-3.4806,-3.4922,-3.4706,-3.4358,-3.4306,-3.4374,-3.4477,-3.4599,-3.4459,-3.4357,-3.4163,-3.3922,-3.3528,-3.334,-3.3748,-3.3679,-3.3054,-3.311,-3.3551,-3.3585,-3.3294,-3.3042,-3.2459,-3.2596,-3.2749,-2.6302,-2.6521,-2.6521,-2.6521,-2.6521,-2.6521,-2.6918,-2.7471,-2.7986,-2.8634,-2.9359,-3.0129,-3.0372,-3.0507,-3.0836,-3.0955,-3.1234,-3.1495,-3.1766,-3.2018,-3.2391,-3.2664,-3.3039,-3.3407,-3.3716,-3.3935,-3.4202,-3.4431,-3.4448,-3.4399,-3.4349,-3.4399,-3.4349,-3.4284,-3.425,-3.425,-3.425,-3.425,-3.425,-3.4201,-3.425,-3.425,-3.4201,-3.4201,-3.4151,-3.3973,-3.3795,-3.3217,-3.3073,-3.3337,-3.3167,-3.3323,-3.4034,-3.4512,-3.4897,-3.4849,-3.4723,-3.4546,-3.4497,-3.425,-3.4151,-3.4184,-3.4134,-3.4101,-3.4101,-3.4151,-3.4151,-3.4101,-3.4101,-3.4101,-3.4101,-3.4101,-3.4201,-3.43,-3.43,-3.4349,-3.4415,-3.4481,-3.4481,-3.4479,-3.4544,-3.4771,-3.5232,-3.5588,-3.583,-3.5922,-3.6002,-3.6131,-3.6105,-3.5728,-3.5633,-3.5673,-3.5628,-3.5214,-3.5439,-3.558,-3.5656,-3.569,-3.5456,-3.5197,-3.4967,-3.4743,-3.4576,-3.4535,-3.4567,-3.435,-3.394,-3.4203,-3.4519,-3.4438,-3.4163,-3.4003,-3.3894,-3.3977,-3.4123,-2.6521,-2.6521,-2.6521,-2.6521,-2.6521,-2.6769,-2.7284,-2.792,-2.8454,-2.917,-3.0068,-3.0642,-3.0895,-3.0895,-3.1073,-3.1176,-3.1234,-3.1823,-3.2145,-3.2367,-3.3055,-3.3282,-3.3543,-3.3834,-3.4086,-3.4185,-3.4301,-3.4578,-3.4594,-3.4497,-3.4497,-3.4497,-3.448,-3.4399,-3.4349,-3.4349,-3.4349,-3.4349,-3.4349,-3.43,-3.43,-3.4349,-3.4349,-3.4399,-3.4399,-3.4366,-3.423,-3.3483,-3.3567,-3.3757,-3.3524,-3.3835,-3.4398,-3.488,-3.5161,-3.5115,-3.4991,-3.4913,-3.4866,-3.4706,-3.4561,-3.4513,-3.4513,-3.4561,-3.4415,-3.4317,-3.4184,-3.4101,-3.4101,-3.4101,-3.4101,-3.4101,-3.425,-3.4399,-3.4497,-3.4546,-3.4611,-3.4692,-3.4704,-3.4758,-3.4838,-3.5065,-3.5362,-3.5745,-3.5983,-3.6062,-3.6114,-3.6174,-3.6174,-3.5942,-3.5942,-3.6035,-3.6128,-3.6042,-3.6284,-3.6284,-3.6163,-3.6059,-3.6025,-3.5801,-3.5663,-3.5559,-3.5404,-3.5249,-3.5134,-3.4967,-3.4891,-3.5018,-3.5232,-3.5094,-3.5094,-3.5087,-3.5063,-3.5167,-3.5297,-2.6521,-2.6521,-2.6533,-2.6658,-2.6658,-2.7284,-2.7999,-2.857,-2.8853,-2.956,-3.0642,-3.1014,-3.1132,-3.1132,-3.1234,-3.1278,-3.1552,-3.2104,-3.2586,-3.2547,-3.3646,-3.4084,-3.4184,-3.4546,-3.4578,-3.4626,-3.4691,-3.4691,-3.4707,-3.4643,-3.4594,-3.4546,-3.4546,-3.4497,-3.4448,-3.4497,-3.4497,-3.4448,-3.4448,-3.4399,-3.4399,-3.4497,-3.4643,-3.4835,-3.4894,-3.4822,-3.4722,-3.4559,-3.4506,-3.4377,-3.436,-3.4661,-3.4975,-3.5165,-3.5307,-3.5316,-3.5316,-3.527,-3.5224,-3.5085,-3.5085,-3.5068,-3.5178,-3.5085,-3.4833,-3.4642,-3.4464,-3.4431,-3.448,-3.4464,-3.4464,-3.4513,-3.461,-3.4754,-3.4897,-3.4991,-3.5131,-3.5195,-3.5174,-3.5227,-3.5367,-3.5542,-3.5616,-3.5993,-3.6122,-3.6216,-3.6241,-3.6259,-3.6216,-3.6088,-3.6131,-3.6259,-3.6284,-3.6284,-3.6284,-3.6284,-3.6284,-3.6266,-3.6284,-3.6249,-3.6008,-3.6077,-3.6249,-3.5956,-3.5645,-3.5904,-3.599,-3.5887,-3.5801,-3.5887,-3.5921,-3.6128,-3.618,-3.6025,-3.599,-2.6521,-2.6521,-2.704,-2.7297,-2.7351,-2.7999,-2.8634,-2.9345,-2.9484,-3.0007,-3.0762,-3.1117,-3.1234,-3.1234,-3.1452,-3.1509,-3.1739,-3.2532,-3.2949,-3.3371,-3.4168,-3.4546,-3.4611,-3.4756,-3.4835,-3.4835,-3.4835,-3.4851,-3.4804,-3.4804,-3.4804,-3.4804,-3.4787,-3.4787,-3.4643,-3.4691,-3.4675,-3.4723,-3.4675,-3.4675,-3.4723,-3.4723,-3.4771,-3.5021,-3.514,-3.5397,-3.5309,-3.5287,-3.5525,-3.5711,-3.5371,-3.5531,-3.5882,-3.5985,-3.6028,-3.6002,-3.581,-3.5677,-3.5633,-3.5498,-3.5362,-3.5253,-3.5253,-3.5224,-3.5115,-3.4975,-3.4927,-3.4944,-3.4897,-3.4897,-3.4897,-3.488,-3.4927,-3.5115,-3.5253,-3.5391,-3.5571,-3.5599,-3.5582,-3.5701,-3.5814,-3.5915,-3.5966,-3.6114,-3.6241,-3.6284,-3.6284,-3.6284,-3.6284,-3.6199,-3.6199,-3.6284,-3.6284,-3.6284,-3.6284,-3.6284,-3.6284,-3.6284,-3.6284,-3.6284,-3.6284,-3.6284,-3.6284,-3.6284,-3.6215,-3.6284,-3.6284,-3.6232,-3.6215,-3.6284,-3.6284,-3.6284,-3.6284,-3.6163,-3.6215,-2.6521,-2.6589,-2.7229,-2.7471,-2.7657,-2.8648,-2.9296,-2.9685,-3.0129,-3.0507,-3.0821,-3.1117,-3.1292,-3.1409,-3.1682,-3.1894,-3.212,-3.3124,-3.3491,-3.3901,-3.4317,-3.4739,-3.4899,-3.4899,-3.4899,-3.4899,-3.4899,-3.4899,-3.4899,-3.4899,-3.4899,-3.4947,-3.5024,-3.5148,-3.5055,-3.5038,-3.5131,-3.527,-3.5131,-3.5178,-3.5253,-3.5253,-3.5253,-3.5448,-3.5715,-3.602,-3.6229,-3.6242,-3.6382,-3.6556,-3.6295,-3.6255,-3.6388,-3.635,-3.6426,-3.6426,-3.6301,-3.6088,-3.6088,-3.5941,-3.5766,-3.5705,-3.581,-3.5941,-3.6002,-3.5854,-3.5453,-3.5407,-3.5131,-3.5085,-3.5085,-3.5068,-3.5068,-3.5207,-3.5253,-3.5299,-3.5407,-3.5391,-3.543,-3.5445,-3.5647,-3.5881,-3.5966,-3.6114,-3.6241,-3.6284,-3.6284,-3.6284,-3.6284,-3.6284,-3.6284,-3.6284,-3.6284,-3.6284,-3.6284,-3.6284,-3.6284,-3.6284,-3.6284,-3.6284,-3.6284,-3.6284,-3.6284,-3.6284,-3.6284,-3.6284,-3.6284,-3.6284,-3.6284,-3.6284,-3.6284,-3.6284,-3.6284,-3.6284,-3.6284,-2.6589,-2.6714,-2.7351,-2.7736,-2.7999,-2.9296,-2.9884,-2.9946,-3.0642,-3.0881,-3.0821,-3.1102,-3.1278,-3.161,-3.2007,-3.2272,-3.2765,-3.3507,-3.3933,-3.4184,-3.4643,-3.4851,-3.4899,-3.4899,-3.4899,-3.4899,-3.4899,-3.4899,-3.4899,-3.4899,-3.4947,-3.5041,-3.5241,-3.5526,-3.5509,-3.5599,-3.5732,-3.582,-3.582,-3.5847,-3.589,-3.589,-3.589,-3.6079,-3.6433,-3.6873,-3.7126,-3.7203,-3.7203,-3.7069,-3.6956,-3.6838,-3.6776,-3.665,-3.6731,-3.6731,-3.6609,-3.6527,-3.6602,-3.6626,-3.6485,-3.6485,-3.6667,-3.6684,-3.6684,-3.6502,-3.6088,-3.5854,-3.5571,-3.5407,-3.5407,-3.5362,-3.5391,-3.5391,-3.5391,-3.5407,-3.5407,-3.5453,-3.5433,-3.5411,-3.5617,-3.5895,-3.601,-3.6174,-3.6241,-3.6284,-3.6284,-3.6284,-3.6284,-3.6284,-3.6284,-3.6284,-3.6284,-3.6284,-3.6284,-3.6284,-3.6284,-3.6284,-3.6284,-3.6284,-3.6284,-3.6284,-3.6284,-3.6284,-3.6284,-3.6284,-3.6284,-3.6284,-3.6284,-3.6284,-3.6284,-3.6284,-3.6284,-3.6284,-3.6284,-2.6837,-2.7351,-2.8038,-2.8698,-2.9421,-3.0251,-3.0582,-3.0568,-3.0762,-3.0747,-3.0747,-3.0866,-3.1204,-3.1962,-3.2033,-3.2407,-3.3161,-3.3882,-3.405,-3.4201,-3.4707,-3.4851,-3.4899,-3.4899,-3.4899,-3.4899,-3.4899,-3.4899,-3.4899,-3.4899,-3.4947,-3.4994,-3.5379,-3.5616,-3.5705,-3.5864,-3.6105,-3.6232,-3.6232,-3.6232,-3.6215,-3.6256,-3.6399,-3.6563,-3.6781,-3.7129,-3.7392,-3.7521,-3.7503,-3.7429,-3.7297,-3.7143,-3.7027,-3.693,-3.6948,-3.697,-3.6891,-3.6851,-3.6908,-3.6965,-3.6811,-3.6811,-3.6908,-3.6908,-3.6908,-3.6908,-3.6673,-3.665,-3.6409,-3.6174,-3.6131,-3.6045,-3.6028,-3.5985,-3.5968,-3.5968,-3.5985,-3.5985,-3.5994,-3.5975,-3.6019,-3.6148,-3.6191,-3.6241,-3.6241,-3.6284,-3.6284,-3.6284,-3.6284,-3.6284,-3.6284,-3.6284,-3.6284,-3.6284,-3.6284,-3.6284,-3.6284,-3.6284,-3.6284,-3.6284,-3.6284,-3.6284,-3.6284,-3.6284,-3.6284,-3.6284,-3.6284,-3.6284,-3.6284,-3.6284,-3.6284,-3.6284,-3.6284,-3.6284,-3.6284]}]]